[[{"header":{"parameterUnit":"m.s-1","parameterCategory":1,"la1":30.6,"la2":29.2853,"lo1":-89.7004,"lo2":-87.6739,"dy":0.0162,"dx":0.0183,"nx":112,"ny":82,"refTime":"2023-08-05T12:00:00:Z","depth":0,"parameterNumber":2,"parameterNumberName":"U-component_of_WINDS"},"data":[0.0,0.0,0.0,0.0,0.0,0.0,0.0,0.0,0.0,0.0,0.0,0.0,0.0,0.0,0.0,0.0,0.0,0.0,0.0,0.0,0.0,0.0,0.0,0.0,0.0,0.0,0.0,0.0,0.0,0.0,0.0,0.0,0.0,0.0,0.0,0.0,0.0,0.0,0.0,0.0,0.0,0.0,0.0,0.0,0.0,0.0,0.0,0.0,0.0,0.0,0.0,0.0,0.0,0.0,0.0,0.0,0.0,0.0,0.0,0.0,0.0,0.0,0.0,0.0,0.0,0.0,0.0,0.0,0.0,0.0,0.0,0.0,0.0,0.0,0.0,0.0,0.0,0.0,0.0,0.0,0.0,0.0,0.0,0.0,0.0,0.0,0.0,0.0,0.0,0.0,-3.3171,-3.6785,-4.5215,-5.2545,-5.7313,-5.8981,-5.7538,-5.2404,0.0,0.0,0.0,0.0,0.0,0.0,0.0,0.0,0.0,0.0,0.0,0.0,0.0,0.0,0.0,0.0,0.0,0.0,0.0,0.0,0.0,0.0,0.0,0.0,0.0,0.0,0.0,0.0,0.0,0.0,0.0,0.0,0.0,0.0,0.0,0.0,0.0,0.0,0.0,0.0,0.0,0.0,0.0,0.0,0.0,0.0,0.0,0.0,0.0,0.0,0.0,0.0,0.0,0.0,0.0,0.0,0.0,0.0,0.0,0.0,0.0,0.0,0.0,0.0,0.0,0.0,0.0,0.0,0.0,0.0,0.0,0.0,0.0,0.0,0.0,0.0,0.0,0.0,0.0,0.0,0.0,0.0,0.0,0.0,0.0,0.0,0.0,0.0,0.0,0.0,0.0,0.0,0.0,0.0,0.0,0.0,0.0,0.0,0.0,0.0,0.0,0.0,0.0,0.0,-3.5009,-4.3041,-4.7949,-5.2349,-5.6605,-5.7746,-5.6225,-5.1569,0.0,0.0,0.0,0.0,0.0,0.0,0.0,0.0,0.0,0.0,0.0,0.0,0.0,0.0,0.0,0.0,0.0,0.0,0.0,0.0,0.0,0.0,0.0,0.0,0.0,0.0,0.0,0.0,0.0,0.0,0.0,0.0,0.0,0.0,0.0,0.0,0.0,0.0,0.0,0.0,0.0,0.0,0.0,0.0,0.0,0.0,0.0,0.0,0.0,0.0,0.0,0.0,0.0,0.0,0.0,0.0,0.0,0.0,0.0,0.0,0.0,0.0,0.0,0.0,0.0,0.0,0.0,0.0,0.0,0.0,0.0,0.0,0.0,0.0,0.0,0.0,0.0,0.0,0.0,0.0,0.0,0.0,0.0,0.0,0.0,0.0,0.0,0.0,0.0,0.0,0.0,0.0,0.0,0.0,0.0,0.0,0.0,0.0,0.0,0.0,0.0,0.0,0.0,-3.3331,-3.7849,-4.4685,-4.8208,-5.1818,-5.6419,-5.7103,-5.5497,-5.138,-4.9001,0.0,0.0,0.0,0.0,0.0,0.0,0.0,0.0,0.0,0.0,0.0,0.0,0.0,0.0,0.0,0.0,0.0,0.0,0.0,0.0,0.0,0.0,0.0,0.0,0.0,0.0,0.0,0.0,0.0,0.0,0.0,0.0,0.0,0.0,0.0,0.0,0.0,0.0,0.0,0.0,0.0,0.0,0.0,0.0,0.0,0.0,0.0,0.0,0.0,0.0,0.0,0.0,0.0,0.0,0.0,0.0,0.0,0.0,0.0,0.0,0.0,0.0,0.0,0.0,0.0,0.0,0.0,0.0,0.0,0.0,0.0,0.0,0.0,0.0,0.0,0.0,0.0,0.0,0.0,0.0,0.0,0.0,0.0,0.0,0.0,0.0,0.0,0.0,0.0,0.0,0.0,0.0,0.0,0.0,0.0,0.0,0.0,0.0,0.0,0.0,0.0,0.0,-3.598,-4.0039,-4.5357,-4.8071,-5.141,-5.6149,-5.6048,-5.4259,-5.0785,-4.7448,0.0,0.0,0.0,0.0,0.0,0.0,0.0,0.0,0.0,0.0,0.0,0.0,0.0,0.0,0.0,0.0,0.0,0.0,0.0,0.0,0.0,0.0,0.0,0.0,0.0,0.0,0.0,0.0,0.0,0.0,0.0,0.0,0.0,0.0,0.0,0.0,0.0,0.0,0.0,0.0,0.0,0.0,0.0,0.0,0.0,0.0,0.0,0.0,0.0,0.0,0.0,0.0,0.0,0.0,0.0,0.0,0.0,0.0,0.0,0.0,0.0,0.0,0.0,0.0,0.0,0.0,0.0,0.0,0.0,0.0,0.0,0.0,0.0,0.0,0.0,0.0,0.0,0.0,0.0,0.0,0.0,0.0,0.0,0.0,0.0,0.0,0.0,0.0,0.0,0.0,0.0,0.0,0.0,0.0,0.0,0.0,0.0,0.0,0.0,0.0,0.0,0.0,-3.6237,-4.0382,-4.6614,-4.8577,-5.1198,-5.5441,-5.3803,-5.1509,-4.9006,-4.4818,0.0,0.0,0.0,0.0,0.0,0.0,0.0,0.0,0.0,0.0,0.0,0.0,0.0,0.0,0.0,0.0,0.0,0.0,0.0,0.0,0.0,0.0,0.0,0.0,0.0,0.0,0.0,0.0,0.0,0.0,0.0,0.0,0.0,0.0,0.0,0.0,0.0,0.0,0.0,0.0,0.0,0.0,0.0,0.0,0.0,0.0,0.0,0.0,0.0,0.0,0.0,0.0,0.0,0.0,0.0,0.0,0.0,0.0,0.0,0.0,0.0,0.0,0.0,0.0,0.0,0.0,0.0,0.0,0.0,0.0,0.0,0.0,0.0,0.0,0.0,0.0,0.0,0.0,0.0,0.0,0.0,0.0,0.0,0.0,0.0,0.0,0.0,0.0,0.0,0.0,0.0,0.0,0.0,0.0,0.0,0.0,0.0,0.0,0.0,0.0,0.0,0.0,-3.7141,-4.1265,0.0,-4.7287,-4.948,-5.3378,-5.2541,-5.0558,-4.7814,0.0,0.0,0.0,0.0,0.0,0.0,0.0,0.0,0.0,0.0,0.0,0.0,0.0,0.0,0.0,0.0,0.0,0.0,0.0,0.0,0.0,0.0,0.0,0.0,0.0,0.0,0.0,0.0,0.0,0.0,0.0,0.0,0.0,0.0,0.0,0.0,0.0,0.0,0.0,0.0,0.0,0.0,0.0,0.0,0.0,0.0,0.0,0.0,0.0,0.0,0.0,0.0,0.0,0.0,0.0,0.0,0.0,0.0,0.0,0.0,0.0,0.0,0.0,0.0,0.0,0.0,0.0,0.0,0.0,0.0,0.0,0.0,0.0,0.0,0.0,0.0,0.0,0.0,0.0,0.0,0.0,0.0,0.0,0.0,0.0,0.0,0.0,0.0,0.0,0.0,0.0,0.0,0.0,0.0,0.0,0.0,0.0,0.0,0.0,0.0,0.0,0.0,-3.4245,-3.7504,-4.134,0.0,-4.661,-4.8357,-5.1917,-5.085,-4.911,-4.678,0.0,0.0,0.0,0.0,0.0,0.0,0.0,0.0,0.0,0.0,0.0,0.0,0.0,0.0,0.0,0.0,0.0,0.0,0.0,0.0,0.0,0.0,0.0,0.0,0.0,0.0,0.0,0.0,0.0,0.0,0.0,0.0,0.0,0.0,0.0,0.0,0.0,0.0,0.0,0.0,0.0,0.0,0.0,0.0,0.0,0.0,0.0,0.0,0.0,0.0,0.0,0.0,0.0,0.0,0.0,0.0,0.0,0.0,0.0,0.0,0.0,0.0,0.0,0.0,0.0,0.0,0.0,0.0,0.0,0.0,0.0,0.0,0.0,0.0,0.0,0.0,0.0,0.0,0.0,0.0,0.0,0.0,0.0,0.0,0.0,0.0,0.0,0.0,0.0,0.0,0.0,0.0,0.0,0.0,0.0,0.0,0.0,0.0,0.0,0.0,0.0,0.0,-3.5224,-3.7049,-4.0288,-4.6206,-4.6889,-4.8091,-5.1166,-4.8671,-4.6594,0.0,0.0,0.0,0.0,0.0,0.0,0.0,0.0,0.0,0.0,0.0,0.0,0.0,0.0,0.0,0.0,0.0,0.0,0.0,0.0,0.0,0.0,0.0,0.0,0.0,0.0,0.0,0.0,0.0,0.0,0.0,0.0,0.0,0.0,0.0,0.0,0.0,0.0,0.0,0.0,0.0,0.0,0.0,0.0,0.0,0.0,0.0,0.0,0.0,0.0,0.0,0.0,0.0,0.0,0.0,0.0,0.0,0.0,0.0,0.0,0.0,0.0,0.0,0.0,0.0,0.0,0.0,0.0,0.0,0.0,0.0,0.0,0.0,0.0,0.0,0.0,0.0,0.0,0.0,0.0,0.0,0.0,0.0,0.0,0.0,0.0,0.0,0.0,0.0,0.0,0.0,0.0,0.0,0.0,0.0,0.0,0.0,0.0,0.0,0.0,0.0,0.0,0.0,-3.5224,-3.7882,-4.1072,-4.5339,-4.6191,-4.7251,-4.9112,-4.7509,-4.5703,-4.382,0.0,0.0,0.0,0.0,0.0,0.0,0.0,0.0,0.0,0.0,0.0,0.0,0.0,0.0,0.0,0.0,0.0,0.0,0.0,0.0,0.0,0.0,0.0,0.0,0.0,0.0,0.0,0.0,0.0,0.0,0.0,0.0,0.0,0.0,0.0,0.0,0.0,0.0,0.0,0.0,0.0,0.0,0.0,0.0,0.0,0.0,0.0,0.0,0.0,0.0,0.0,0.0,0.0,0.0,0.0,0.0,0.0,0.0,0.0,0.0,0.0,0.0,0.0,0.0,0.0,0.0,0.0,0.0,0.0,0.0,0.0,0.0,0.0,0.0,0.0,0.0,0.0,0.0,0.0,0.0,0.0,0.0,0.0,0.0,0.0,0.0,0.0,0.0,0.0,0.0,0.0,0.0,0.0,0.0,0.0,0.0,0.0,0.0,0.0,0.0,0.0,0.0,-3.4903,-3.7484,-4.0472,-4.4196,-4.5179,-4.6005,-4.7037,-4.5931,-4.4051,-4.1383,0.0,0.0,0.0,0.0,0.0,0.0,0.0,0.0,0.0,0.0,0.0,0.0,0.0,0.0,0.0,0.0,0.0,0.0,0.0,0.0,0.0,0.0,0.0,0.0,0.0,0.0,0.0,0.0,0.0,0.0,0.0,0.0,0.0,0.0,0.0,0.0,0.0,0.0,0.0,0.0,0.0,0.0,0.0,0.0,0.0,0.0,0.0,0.0,0.0,0.0,0.0,0.0,0.0,0.0,0.0,0.0,0.0,0.0,0.0,0.0,0.0,0.0,0.0,0.0,0.0,0.0,0.0,0.0,0.0,0.0,0.0,0.0,0.0,0.0,0.0,0.0,0.0,0.0,0.0,0.0,0.0,0.0,0.0,0.0,0.0,0.0,0.0,0.0,0.0,0.0,0.0,0.0,0.0,0.0,0.0,0.0,0.0,0.0,0.0,0.0,0.0,0.0,-3.4373,-3.6361,-3.9003,-4.3012,-4.3959,-4.459,-4.5164,-4.4107,-4.2164,-3.9123,0.0,0.0,0.0,0.0,0.0,0.0,0.0,0.0,0.0,0.0,0.0,0.0,0.0,0.0,0.0,0.0,0.0,0.0,0.0,0.0,0.0,0.0,0.0,0.0,0.0,0.0,0.0,0.0,0.0,0.0,0.0,0.0,0.0,0.0,0.0,0.0,0.0,0.0,0.0,0.0,0.0,0.0,0.0,0.0,0.0,0.0,0.0,0.0,0.0,0.0,0.0,0.0,0.0,0.0,0.0,0.0,0.0,0.0,0.0,0.0,-3.8197,0.0,0.0,0.0,0.0,0.0,0.0,0.0,0.0,0.0,0.0,0.0,0.0,0.0,0.0,0.0,0.0,0.0,0.0,0.0,0.0,0.0,0.0,0.0,0.0,0.0,0.0,0.0,0.0,0.0,0.0,0.0,0.0,0.0,0.0,0.0,0.0,0.0,0.0,0.0,0.0,0.0,-3.4373,-3.6383,-3.8708,-4.1758,-4.3032,-4.3742,-4.3868,-4.3155,-4.1534,-3.8658,-3.6758,0.0,0.0,0.0,0.0,0.0,0.0,0.0,0.0,0.0,0.0,0.0,0.0,0.0,0.0,0.0,0.0,0.0,0.0,0.0,0.0,0.0,0.0,0.0,0.0,0.0,0.0,0.0,0.0,0.0,0.0,0.0,0.0,0.0,0.0,0.0,0.0,0.0,0.0,0.0,0.0,0.0,0.0,0.0,0.0,0.0,0.0,0.0,0.0,0.0,0.0,0.0,0.0,0.0,0.0,0.0,0.0,0.0,0.0,0.0,0.0,-3.9514,0.0,0.0,0.0,0.0,0.0,0.0,0.0,0.0,0.0,0.0,0.0,0.0,0.0,0.0,0.0,0.0,0.0,0.0,0.0,0.0,0.0,0.0,0.0,0.0,0.0,0.0,0.0,0.0,0.0,0.0,0.0,0.0,0.0,0.0,0.0,0.0,0.0,0.0,0.0,0.0,-3.3624,-3.6048,-3.8385,-4.0586,-4.1937,-4.2436,-4.2248,-4.1279,-3.9685,-3.7143,-3.5825,0.0,0.0,0.0,0.0,0.0,0.0,0.0,0.0,0.0,0.0,0.0,0.0,0.0,0.0,0.0,0.0,0.0,0.0,0.0,0.0,0.0,0.0,0.0,0.0,0.0,0.0,0.0,0.0,0.0,0.0,0.0,0.0,0.0,0.0,0.0,0.0,0.0,0.0,0.0,0.0,0.0,0.0,0.0,0.0,0.0,0.0,0.0,0.0,0.0,0.0,0.0,0.0,0.0,-4.5035,-4.5633,-4.6157,-4.6157,-4.6097,-4.5873,-4.3688,-4.2432,-4.1758,-3.9978,0.0,0.0,0.0,0.0,0.0,0.0,0.0,0.0,0.0,0.0,0.0,0.0,0.0,0.0,0.0,0.0,0.0,0.0,0.0,0.0,0.0,0.0,0.0,0.0,-3.5917,-3.6882,0.0,0.0,0.0,0.0,0.0,0.0,0.0,0.0,0.0,0.0,0.0,0.0,-3.2893,-3.5618,-3.7952,-3.9262,-4.0468,-4.0939,-4.035,-3.938,-3.7852,-3.5818,-3.5165,-3.396,0.0,0.0,0.0,0.0,0.0,0.0,0.0,0.0,0.0,0.0,0.0,0.0,0.0,0.0,0.0,0.0,0.0,0.0,0.0,0.0,0.0,0.0,0.0,0.0,0.0,0.0,0.0,0.0,0.0,0.0,0.0,0.0,-3.3103,-3.7765,0.0,0.0,0.0,0.0,0.0,0.0,0.0,0.0,0.0,0.0,0.0,0.0,0.0,-4.3928,-4.4766,-4.6501,-4.7743,-4.8491,-4.9149,-4.9508,-4.9583,-4.9583,-4.9284,-4.8716,-4.8386,0.0,-4.3868,-4.303,0.0,0.0,0.0,0.0,0.0,0.0,0.0,0.0,0.0,0.0,0.0,0.0,0.0,0.0,0.0,0.0,0.0,0.0,0.0,0.0,0.0,0.0,-3.6837,-3.683,-3.7321,-3.7808,0.0,-3.5713,-3.3858,-3.2993,-3.2503,0.0,0.0,0.0,0.0,0.0,0.0,0.0,-3.298,-3.5524,-3.7324,-3.7539,-3.8589,-3.9032,-3.845,-3.8214,-3.7588,-3.6332,-3.5742,-3.4876,-3.3621,-3.1162,0.0,0.0,0.0,0.0,0.0,0.0,0.0,0.0,0.0,0.0,0.0,0.0,0.0,0.0,0.0,0.0,0.0,0.0,0.0,0.0,0.0,0.0,0.0,0.0,0.0,0.0,0.0,0.0,0.0,-3.043,-3.5494,-3.7542,-4.0135,-4.1306,0.0,0.0,0.0,0.0,0.0,0.0,0.0,0.0,0.0,-4.505,-4.6052,-4.7219,-4.8611,-4.9494,-5.0272,-5.0915,-5.1199,-5.1334,-5.1334,-5.1334,-5.0975,-5.0346,-4.9972,-4.8775,-4.6965,-4.517,-4.2532,-3.9391,0.0,0.0,0.0,0.0,-3.3483,-3.3332,-3.4575,-3.5059,0.0,-3.4853,0.0,0.0,0.0,0.0,0.0,0.0,0.0,0.0,0.0,0.0,-3.7349,-3.7977,-3.8555,-3.8956,-3.8956,-3.7764,-3.6345,0.0,-3.4474,-3.3646,-3.224,0.0,0.0,0.0,0.0,-3.3018,-3.3884,-3.5592,-3.6835,-3.7149,-3.7902,-3.8165,-3.7588,-3.755,-3.6908,-3.532,-3.4664,-3.3715,-3.2194,-3.0395,-2.8942,0.0,0.0,0.0,0.0,0.0,0.0,0.0,0.0,0.0,0.0,0.0,0.0,0.0,0.0,0.0,0.0,0.0,0.0,0.0,0.0,0.0,0.0,0.0,0.0,0.0,0.0,0.0,0.0,-3.3872,-3.8142,-3.8153,-4.2423,-4.4238,0.0,0.0,0.0,0.0,0.0,0.0,-4.3394,-4.4003,-4.5559,-4.8222,-4.9105,-5.0331,-5.1962,-5.1992,-5.2232,-5.271,-5.2531,-5.2366,-5.2187,-5.2022,-5.1588,-5.093,-5.0272,-4.9628,-4.885,-4.6696,-4.3843,-4.0726,-3.9324,-3.7203,-3.4971,-3.5546,-3.5328,-3.4977,-3.6621,-3.691,-3.6521,-3.6257,-3.5893,-3.5215,-3.3395,0.0,0.0,0.0,0.0,-3.4738,-3.6533,-3.7312,-3.7826,-3.8668,-3.9182,-3.9446,-3.9295,-3.8831,-3.8115,0.0,-3.6232,-3.5278,-3.3759,0.0,0.0,0.0,0.0,-3.3796,-3.4613,-3.5805,-3.6671,-3.6948,-3.7462,-3.7465,-3.6515,-3.6465,-3.5698,-3.3993,-3.3399,-3.2557,-3.0979,-2.9736,-2.8131,-2.6393,0.0,0.0,0.0,0.0,0.0,0.0,0.0,0.0,0.0,0.0,0.0,0.0,0.0,0.0,0.0,0.0,0.0,0.0,0.0,0.0,0.0,0.0,0.0,0.0,0.0,0.0,0.0,0.0,0.0,-4.2876,-4.7584,0.0,0.0,0.0,0.0,-4.4756,-4.3297,-4.3498,-4.5992,-4.6756,-4.8312,-5.093,-5.2261,-5.3294,-5.4057,-5.4057,-5.4087,-5.4102,-5.3443,-5.28,-5.2172,-5.1558,-5.0915,-5.0257,-4.9598,-4.894,-4.8282,-4.7519,-4.5651,-4.304,-4.1309,-3.9473,-3.7678,-3.6752,-3.6621,-3.7036,-3.7149,-3.7161,-3.7224,-3.7726,-3.6822,-3.5336,-3.4788,-3.3859,0.0,0.0,-3.5441,-3.5968,-3.8178,-3.8755,-3.8806,-3.8856,-3.8894,-3.8768,-3.8216,-3.7651,-3.74,0.0,-3.7061,-3.5968,-3.4839,0.0,-3.3633,-3.3119,-3.3947,-3.4663,-3.4713,-3.6144,-3.6948,-3.6458,-3.6897,-3.6502,-3.4664,-3.4519,-3.3895,-3.2543,-3.2409,-3.2184,-3.1701,-2.9591,-2.7978,-2.7028,-2.4997,0.0,0.0,0.0,0.0,0.0,0.0,0.0,0.0,0.0,0.0,0.0,0.0,0.0,0.0,0.0,0.0,0.0,0.0,0.0,0.0,0.0,0.0,0.0,0.0,0.0,0.0,0.0,0.0,-4.5464,-4.9284,0.0,-4.7467,-4.7882,-4.787,-4.6747,-4.7361,-4.8095,-4.876,-4.9464,-5.0436,-5.1813,-5.271,-5.3294,-5.3548,-5.3548,-5.3548,-5.3533,-5.2441,-5.1798,-5.1528,-5.0451,-4.9838,-4.9568,-4.8925,-4.8506,-4.8237,-4.7578,-4.5785,-4.3384,-4.2791,-4.0965,-3.8579,-3.8565,-3.8404,-3.8266,-3.8266,-3.8266,-3.8178,-3.7651,-3.6596,-3.5411,-3.5316,-3.4977,-3.4864,-3.5805,-3.6332,-3.6948,-3.8479,-3.8592,-3.8417,-3.8781,-3.858,-3.8253,-3.8052,-3.7852,-3.7764,-3.7965,-3.7111,-3.6232,-3.5843,-3.5316,-3.4889,-3.47,-3.5002,-3.5378,-3.573,-3.5593,-3.5284,-3.509,-3.4516,-3.3738,-3.3066,-3.2769,-3.2081,-3.068,-3.0289,-2.9753,-2.8714,-2.7367,-2.6416,-2.5802,-2.4493,-2.3574,0.0,0.0,0.0,0.0,0.0,0.0,0.0,0.0,0.0,0.0,0.0,0.0,0.0,0.0,0.0,0.0,0.0,0.0,0.0,0.0,0.0,0.0,0.0,0.0,0.0,0.0,-4.7143,-4.6812,-5.0191,-5.136,-4.8392,-4.9475,-4.991,-4.8677,-4.9619,-5.0178,-4.9883,-5.0526,-5.1094,-5.1528,-5.2396,-5.2845,-5.2845,-5.2845,-5.274,-5.2501,-5.1409,-5.078,-5.0526,-4.9434,-4.8955,-4.9044,-4.8252,-4.7952,-4.7908,-4.7249,-4.5741,-4.3775,-4.361,-4.2024,-3.9752,-3.9752,-3.9346,-3.8843,-3.8642,-3.8454,-3.8178,-3.7425,-3.6571,-3.5818,-3.5818,-3.5818,-3.5931,-3.6483,-3.691,-3.74,-3.8329,-3.8291,-3.8052,-3.8253,-3.8015,-3.7676,-3.7487,-3.745,-3.745,-3.745,-3.701,-3.6634,-3.6634,-3.6182,-3.5818,-3.5818,-3.5818,-3.5756,-3.5726,-3.4812,-3.4015,-3.3515,-3.2544,-3.1639,-3.124,-3.0954,-3.0195,-2.8818,-2.8397,-2.7691,-2.6582,-2.5898,-2.5234,-2.4648,-2.3935,-2.3428,-2.3135,0.0,0.0,0.0,0.0,0.0,0.0,0.0,0.0,0.0,0.0,0.0,0.0,0.0,0.0,0.0,0.0,0.0,0.0,0.0,0.0,0.0,0.0,0.0,-4.1032,-4.5668,-4.8544,-4.7157,-5.0508,-5.2096,-4.9829,-4.9726,-5.0074,-5.0723,-4.9819,-4.9269,-4.9269,-4.9868,-5.0212,-5.0212,-5.1439,-5.2112,-5.2112,-5.2112,-5.1783,-5.1154,-5.0496,-4.9838,-4.9224,-4.8536,-4.837,-4.8445,-4.7578,-4.7249,-4.7189,-4.6561,-4.5548,-4.4392,-4.3775,-4.2683,-4.1353,-4.0122,-3.9283,-3.873,-3.8178,-3.7613,-3.7161,-3.7161,-3.6797,-3.6358,-3.6358,-3.6358,-3.6471,-3.701,-3.7161,-3.7287,-3.7839,-3.7965,-3.7826,-3.7312,-3.7161,-3.6985,-3.6445,-3.6332,-3.6332,-3.6307,-3.6759,-3.7136,-3.7136,-3.6671,-3.6307,-3.6307,-3.6307,0.0,-3.4533,-3.3886,-3.3074,-3.1811,-3.1188,-3.0414,-2.9063,-2.8953,-2.8356,-2.7074,-2.6582,-2.6162,-2.5732,-2.5283,-2.4648,-2.3809,-2.3359,-2.3135,-2.3135,0.0,0.0,0.0,0.0,0.0,0.0,0.0,0.0,0.0,0.0,0.0,0.0,0.0,0.0,0.0,0.0,0.0,0.0,0.0,0.0,0.0,0.0,-4.1641,-4.5472,-4.8017,-4.9967,-5.1168,-5.1663,-5.1545,-5.0594,-5.0554,-5.0328,-4.973,-4.9434,-4.9269,-4.9269,-4.9434,-4.9538,-4.9538,-4.9883,-5.0077,-5.0077,-5.0077,-4.9972,-4.9793,-4.9134,-4.873,-4.8521,-4.7384,-4.6875,-4.6875,-4.6157,-4.5843,-4.5843,-4.5648,-4.5391,-4.4955,-4.3832,-4.2164,-4.0254,-3.9894,-3.8877,-3.7626,-3.7462,-3.7048,-3.6584,-3.6584,-3.6483,-3.6358,-3.6358,-3.6358,-3.6395,-3.6546,-3.6584,-3.6709,-3.7262,-3.7111,-3.6872,-3.7123,-3.6571,-3.5956,-3.5805,-3.5768,-3.5655,-3.5253,-3.5617,-3.5994,-3.5994,-3.5542,-3.5177,-3.5177,-3.4404,0.0,-3.3338,-3.1553,-3.0242,-3.0199,-2.9237,-2.8472,-2.8081,-2.7782,-2.7131,-2.6133,-2.5674,-2.5381,-2.5254,-2.4824,-2.4336,-2.3799,-2.3359,-2.3135,0.0,0.0,0.0,0.0,0.0,0.0,0.0,0.0,0.0,0.0,0.0,0.0,0.0,0.0,0.0,0.0,0.0,0.0,0.0,0.0,0.0,0.0,-3.9581,-4.2918,-4.7098,-4.8714,-5.0107,-5.1727,-5.0973,-5.0385,-5.0428,-5.0027,-4.9554,-4.8939,-4.885,-4.8745,-4.8461,-4.8446,-4.8446,-4.8446,-4.8716,-4.873,-4.8446,-4.8446,-4.8312,-4.8027,-4.7354,-4.7025,-4.701,-4.6247,-4.5759,-4.5639,-4.5424,-4.5229,-4.5042,-4.496,-4.4885,0.0,0.0,0.0,0.0,0.0,-3.8114,-3.7111,-3.6659,-3.6433,-3.632,-3.6094,-3.6169,-3.6358,-3.6358,-3.6358,-3.6358,-3.6358,-3.6358,-3.6433,-3.6759,-3.6596,-3.6383,-3.6471,-3.6006,-3.5479,-3.5253,-3.5203,-3.5102,-3.4788,-3.4801,0.0,-3.4851,-3.4776,-3.4532,-3.4053,-3.3385,-3.2512,-3.146,-2.9742,-2.8676,-2.8368,-2.7451,-2.6855,-2.6855,-2.6621,0.0,0.0,0.0,-2.4629,-2.4277,-2.4014,0.0,0.0,0.0,-2.3496,-2.3672,0.0,0.0,0.0,-2.4414,-2.4756,0.0,0.0,0.0,0.0,0.0,0.0,0.0,0.0,0.0,0.0,0.0,0.0,0.0,0.0,0.0,0.0,-4.1265,-4.3562,-4.6165,-4.7557,-4.8681,-4.9644,-4.8773,-4.8217,-4.8814,-4.8094,-4.7658,-4.7762,-4.7762,-4.7626,-4.7219,0.0,0.0,0.0,0.0,-4.7743,-4.7085,-4.707,-4.6785,-4.6202,-4.5589,-4.5289,-4.5289,-4.5214,-4.4982,-4.4638,-4.4937,-4.4833,-4.4467,-4.425,-4.4167,-4.4071,-4.3454,-4.2457,-4.1146,-3.8282,-3.7094,-3.6847,-3.5818,0.0,0.0,-3.5604,-3.578,-3.6182,-3.6182,-3.6182,-3.6182,-3.6182,-3.6182,-3.6182,-3.6182,-3.6182,-3.6056,-3.5567,-3.5403,-3.5228,-3.4738,-3.4625,-3.4613,-3.455,-3.4198,-3.3884,-3.3633,-3.402,-3.3958,-3.2823,-3.244,-3.1479,-2.9179,-2.845,-2.7647,-2.6476,0.0,0.0,-2.581,-2.581,-2.5771,-2.5674,-2.4922,-2.4131,-2.332,-2.333,-2.3516,-2.3857,-2.3857,-2.4043,-2.4414,-2.4805,-2.4814,-2.4492,-2.4541,-2.4961,0.0,0.0,0.0,0.0,0.0,0.0,0.0,0.0,0.0,0.0,0.0,0.0,0.0,0.0,0.0,-3.8312,-4.0025,-4.1386,-4.1814,-4.1951,-4.2996,-4.5804,-4.4381,-4.3172,-4.33,-4.3164,-4.3489,-4.4429,-4.4531,-4.5068,-4.6401,-4.6516,-4.6516,-4.6516,-4.6636,-4.6381,-4.5678,-4.5678,-4.5618,-4.5484,0.0,0.0,-4.5274,-4.4751,-4.4481,-4.4325,-4.3928,-4.3389,-4.2895,-4.3344,-4.321,-4.2712,-4.2146,-4.127,-3.9999,-3.797,-3.6636,-3.5768,-3.5115,-3.4951,-3.5027,-3.4914,-3.4951,-3.5039,-3.5039,-3.5039,0.0,-3.5039,-3.5039,-3.5039,-3.5039,-3.5039,-3.5014,-3.4901,-3.4537,-3.4186,-3.4085,-3.406,-3.3922,-3.3483,-3.3671,-3.347,-3.1995,-3.1829,-3.18,-3.1532,-2.9872,-2.8411,-2.7947,-2.6937,-2.628,-2.6348,-2.6309,-2.626,-2.626,-2.626,-2.5957,-2.5244,-2.5039,-2.4707,-2.4189,-2.4512,-2.457,-2.4307,-2.4297,-2.4336,-2.4414,-2.4502,-2.4678,-2.4951,-2.5312,-2.5381,0.0,0.0,0.0,0.0,0.0,0.0,0.0,0.0,0.0,0.0,0.0,-3.082,0.0,0.0,-3.6159,-3.7541,-3.8239,-3.8663,-3.8942,-3.8145,-3.8768,-4.2247,-4.1665,-4.1132,-4.1349,-4.1202,-4.1727,-4.3473,-4.33,-4.3931,-4.5684,-4.5813,-4.5813,-4.5813,-4.5813,-4.5484,-4.4811,-4.4811,-4.4631,-4.4317,-4.4317,-4.4137,-4.3823,-4.3479,-4.3165,-4.2821,-4.2491,-4.2177,-4.1893,-4.2222,-4.2162,-4.1816,-4.1033,-3.9981,-3.8803,-3.6996,-3.5876,-3.5052,-3.45,-3.45,-3.4675,-3.4399,-3.45,-3.4726,-3.4726,-3.4726,-3.4726,-3.4726,-3.4726,-3.4726,-3.4726,-3.4726,-3.465,-3.4374,-3.4098,-3.3822,-3.3545,-3.3483,-3.3407,-3.3131,-3.2822,-3.2269,-3.1359,-3.0226,-2.9407,-2.9407,-2.8402,-2.741,-2.6754,-2.611,-2.582,-2.6035,-2.6064,-2.6064,-2.6064,-2.6064,-2.5781,-2.5107,-2.5068,-2.4873,-2.4434,-2.4424,-2.4521,-2.4736,-2.4531,-2.4629,-2.5078,-2.5078,-2.5185,-2.541,-2.5635,-2.5732,0.0,0.0,0.0,0.0,0.0,0.0,0.0,0.0,-2.5385,-2.8005,-3.0139,-3.1817,-3.2669,-3.3692,-3.4808,-3.5642,-3.5521,-3.544,-3.5615,-3.438,-3.4607,-3.7456,-3.846,-3.9043,-3.9557,-3.9262,-3.9962,-4.2338,-4.2223,-4.2803,-4.4788,-4.5035,-4.511,-4.511,-4.511,-4.4781,-4.4122,-4.4122,-4.3793,-4.315,-4.315,-4.2806,-4.2177,-4.2177,-4.1878,-4.1369,-4.125,-4.1265,-4.1354,-4.1115,-4.0995,-4.0781,-3.97,-3.8464,-3.7111,-3.5991,-3.5108,-3.4487,-3.3935,-3.4035,-3.4324,-3.3884,-3.4035,-3.4399,-3.4399,-3.4399,-3.4399,-3.4399,-3.4399,-3.4399,-3.4399,-3.4399,-3.4299,-3.3847,-3.3746,-3.3621,-3.3169,-3.3081,-3.3068,-3.2797,-3.1865,-3.1033,-3.0586,-2.8866,-2.7589,-2.7589,-2.74,-2.6849,-2.583,-2.5742,-2.5742,-2.5742,-2.5742,-2.5742,-2.5742,-2.5742,-2.5586,-2.5215,-2.5195,-2.4961,-2.4443,-2.418,-2.4287,-2.4805,-2.4551,-2.4766,-2.5478,-2.5478,-2.5478,-2.5478,-2.5478,-2.5762,-0.0631,-0.4152,-0.8337,-1.1175,-1.4223,-1.7937,0.0,0.0,-2.7487,-3.1419,-3.2909,-3.3159,-3.2193,-3.3834,-3.4271,-3.1079,-3.1272,-3.1233,-2.9374,-2.8976,-2.9034,-2.9416,-3.2056,-3.4056,-3.4628,-3.4615,-3.577,-3.8533,-3.9158,-4.0615,-4.3349,-4.4107,-4.4421,-4.4421,-4.4421,-4.4107,-4.3449,-4.3449,-4.312,-4.2476,-4.2476,-4.2132,-4.1489,-4.1489,-4.1444,-4.1354,-4.0771,-4.0846,-4.1294,-4.0113,-3.9417,-3.8957,-3.7826,-3.6102,-3.4419,-3.5226,-3.4947,-3.3909,-3.3357,-3.3206,-3.3257,-3.3194,-3.3206,-3.3257,-3.3257,-3.3257,-3.3257,-3.3257,-3.3257,-3.3257,-3.3257,-3.3257,-3.3244,-3.3181,-3.3169,-3.3156,-3.3093,-3.3081,-3.2797,-3.1589,-3.1311,-3.0496,-2.8402,-2.7767,-2.7589,-2.7589,-2.6668,-2.583,-2.5742,-2.5742,-2.5742,-2.5742,-2.5742,-2.5742,-2.5742,-2.5742,-2.5713,-2.5664,-2.5664,-2.5283,-2.4453,-2.4746,-2.4619,-2.3945,-2.4248,-2.4463,-2.457,-2.457,-2.457,-2.457,-2.457,-2.501,0.0658,-0.3762,0.0,0.0,-1.4296,-1.8339,-2.1871,-2.4388,-2.6812,-2.9427,-3.0435,-3.0737,-3.0229,-3.0858,-3.0975,0.0,-2.89,-2.8683,-2.7741,-2.7352,-2.7425,-2.7997,-2.9319,-3.0638,-3.1821,-3.2276,-3.3894,-3.7291,-3.7522,-3.9067,-4.2758,-4.3594,-4.4234,-4.4744,-4.4744,-4.4397,-4.3609,-4.3167,-4.2546,-4.1788,-4.1788,-4.1444,-4.0816,-4.0816,-4.0382,-3.9604,-3.8945,-3.8495,-3.8238,-3.7622,-3.7025,-3.6282,-3.5108,-3.4179,-3.3436,-3.3959,-3.3611,-3.2893,-3.2654,-3.2792,-3.3018,-3.2679,-3.2579,-3.2516,-3.219,-3.2102,-3.2102,-3.2102,-3.2328,-3.2579,-3.2579,-3.283,-3.3081,-3.3081,-3.2513,-3.1965,-3.1965,-3.1424,-3.0777,-3.0226,-2.959,-2.8762,-2.7767,-2.704,-2.6476,-2.6476,-2.6014,-2.5742,-2.5742,-2.5742,-2.5742,-2.5742,-2.5508,-2.5352,-2.5352,-2.5117,-2.5078,-2.5332,-2.5107,-2.4912,-2.4805,-2.4492,-2.4268,-2.415,-2.4082,-2.417,-2.4414,-2.4414,-2.4414,-2.4414,-2.4414,-2.4227,0.1049,0.0,0.0,-0.9812,-1.3753,-1.7537,-2.024,-2.2625,-2.481,-2.6399,-2.7041,-2.7247,-2.6761,-2.6854,-2.6753,-2.5904,-2.5543,-2.5364,-2.5604,-2.5307,-2.5587,-2.7012,-2.774,-2.8662,-3.0157,-3.1085,-3.308,-3.6838,-3.7175,-3.8706,-4.2256,-4.3169,-4.389,-4.4793,-4.4411,-4.3906,-4.3464,-4.2725,-4.1906,-4.1115,-4.1115,-4.0666,-3.9843,-3.9664,-3.9035,-3.8093,-3.7307,-3.6652,-3.5971,-3.5683,-3.5026,-3.408,-3.3325,-3.2699,-3.2358,-3.2409,-3.2227,-3.1989,-3.1989,-3.2265,-3.2541,-3.2114,-3.1989,-3.1913,-3.1512,-3.1386,-3.1386,-3.1386,-3.1675,-3.1989,-3.1989,-3.2403,-3.2707,-3.2288,-3.1659,-3.1051,-3.0502,-2.985,-2.9271,-2.8782,-2.814,-2.7494,-2.7125,-2.6294,-2.5742,-2.5742,-2.5742,-2.5742,-2.5742,-2.5742,-2.5742,-2.5742,-2.5332,-2.5068,-2.5068,-2.4668,-2.4551,-2.4863,-2.459,-2.4502,-2.4707,-2.4121,-2.3877,-2.4062,-2.3769,-2.376,-2.4062,-2.4062,-2.4062,-2.4062,-2.3679,-2.3185,0.0,0.0,-0.4261,-0.9139,-1.2099,-1.4975,-1.9196,-2.0689,-2.1682,-2.3389,-2.3742,-2.3281,-2.1594,-2.2171,-2.2104,-2.007,-2.0071,-2.0634,-2.1356,-2.1471,-2.2337,-2.4607,-2.6676,-2.8337,0.0,-3.0996,-3.3356,-3.6754,-3.8251,-3.9847,-4.1803,-4.2505,-4.319,-4.4026,-4.2535,-4.2045,-4.271,-4.1879,-4.113,-4.0427,-4.0427,-3.9738,-3.8422,-3.7793,-3.7479,-3.7366,-3.6441,-3.6057,-3.5913,-3.504,-3.4004,-3.3027,-3.3027,-3.2084,-3.0645,-3.0683,-3.0997,-3.1411,-3.1411,-3.1424,-3.1436,-3.1424,-3.1411,-3.1411,-3.1399,-3.1386,-3.1386,-3.1386,-3.1399,-3.1411,-3.1411,-3.1825,-3.1838,-3.0278,-3.0584,-3.0673,-2.8623,-2.8824,-2.8907,-2.7268,-2.7274,-2.722,-2.6014,-2.5732,-2.5742,-2.5742,-2.5742,-2.5742,-2.5742,-2.5742,-2.5742,-2.5742,-2.5332,-2.5068,-2.5068,-2.4668,-2.4424,-2.4434,-2.4424,-2.4238,-2.3848,-2.3799,-2.3594,-2.3184,-2.3164,-2.3164,-2.3184,-2.3184,-2.3184,-2.3086,-2.1971,-2.1645,0.0,0.0,-0.2474,-0.755,-1.0263,-1.2411,-1.5272,-1.6693,-1.7697,-1.8567,-1.8545,-1.8287,-1.7671,-1.852,-1.9028,-1.8073,-1.8888,-2.0087,-2.1132,-2.1975,-2.3564,-2.649,-2.857,0.0,0.0,0.0,0.0,-3.6328,-3.7385,-3.8887,-4.1184,-4.202,-4.2525,-4.2876,-4.2747,-4.2331,-4.1426,-4.1109,-4.0553,-3.9738,-3.929,-3.8601,-3.7719,-3.6384,-3.5799,-3.57,-3.4328,-3.3417,-3.2763,-3.2496,-3.1787,-3.0854,-3.0854,-3.0532,-3.0068,-3.0068,-3.0181,-3.0382,-3.0746,-3.1097,-3.1336,-3.0984,-3.0871,-3.0809,-3.0444,-3.0331,-3.0331,-3.0331,-3.0595,-3.0698,-2.9906,-3.0131,-3.0242,-2.8935,-2.8274,-2.7788,-2.7039,-2.6515,-2.588,-2.538,-2.5388,-2.5401,-2.5339,-2.5293,-2.5391,-2.5693,-2.5742,-2.5635,-2.5332,-2.5293,-2.5185,-2.4893,-2.4473,-2.4219,-2.4219,-2.3818,-2.3691,-2.3984,-2.373,-2.3633,-2.3779,-2.3516,-2.3291,-2.3135,-2.3135,-2.3135,-2.3135,-2.3135,-2.2687,-2.1872,-2.1489,-2.0555,0.7519,0.4496,-0.0094,-0.4342,-0.7174,-0.9585,-1.2414,-1.3731,-1.421,-1.4157,-1.3921,-1.3789,-1.409,-1.4827,-1.5287,-1.4984,-1.6448,-1.8346,-2.0575,-2.2399,-2.4941,-2.8934,-3.1015,-3.3061,0.0,0.0,0.0,-3.7064,-3.7852,-3.9114,-4.0967,-4.1295,-4.1601,-4.1923,-4.1515,-4.0848,-4.0064,-3.9693,-3.926,-3.8691,-3.7638,-3.6936,-3.6507,-3.492,-3.4115,-3.4101,-3.2687,-3.1742,-3.118,-3.0833,-3.0343,-2.9792,-2.9792,-2.9792,-2.9792,-2.9792,-2.9792,-2.9842,-3.0193,-3.0545,-3.0771,-3.0432,-3.0319,-3.0256,-2.9892,-2.9792,-2.9792,-2.9792,-2.9783,-2.9542,-2.8757,-2.874,-2.8576,-2.7275,-2.6637,-2.6088,-2.532,-2.4726,-2.4375,-2.4219,-2.4316,-2.4502,-2.4785,-2.4834,-2.5039,-2.5644,-2.5469,-2.5215,-2.5088,-2.4932,-2.4727,-2.4443,-2.4043,-2.3789,-2.3789,-2.3389,-2.3262,-2.3545,-2.3291,-2.3262,-2.3545,-2.3291,-2.3135,-2.3135,-2.3135,-2.2862,-2.2492,-2.2492,-2.1863,-2.0692,-2.0223,-1.9222,0.8232,0.6859,0.3202,0.0369,-0.2691,-0.6076,-1.0269,-1.1333,-1.1134,-1.0131,-0.9858,-1.0079,0.0,0.0,-1.1134,-1.1079,-1.2948,-1.5867,-1.9924,-2.2868,-2.6469,0.0,0.0,0.0,0.0,0.0,0.0,-3.8908,0.0,-4.0325,-4.1032,-4.038,-4.0292,-4.0926,-3.8803,-3.7948,-3.8598,-3.7834,-3.7389,-3.7345,-3.5755,-3.4949,-3.4891,-3.3297,-3.2522,-3.2464,-3.1536,-3.1106,-3.1044,-3.0139,-2.9792,-2.9792,-2.9792,-2.9792,-2.9792,-2.9792,-2.9792,-2.9792,-2.9792,-2.9792,-2.9792,-2.9792,-2.9792,-2.9792,-2.9792,-2.9792,-2.9702,-2.9702,-2.8858,-2.8004,-2.7924,-2.7554,-2.679,-2.5147,-2.5459,-2.5612,-2.3564,-2.3779,-2.4228,-2.3838,-2.4092,-2.4385,-2.4385,-2.4404,-2.4707,-2.5547,-2.4932,-2.4541,-2.498,-2.4658,-2.4375,-2.4355,-2.3994,-2.375,-2.375,-2.3379,-2.3135,-2.3135,-2.3135,-2.3135,-2.3135,-2.3047,-2.3047,-2.3047,-2.296,-2.2315,-2.1203,-2.1203,-2.0576,-1.9405,-1.8226,-1.7692,0.8987,1.1103,1.0457,0.7255,0.4824,0.2356,-0.1293,-0.3885,-0.5351,-0.497,-0.6462,-0.7872,0.0,0.0,0.0,-1.2105,-1.5353,0.0,-2.3348,-2.6606,0.0,-3.3133,0.0,-3.695,-3.7959,-3.9072,0.0,0.0,-3.9089,-3.9313,-3.9491,-3.8818,-3.82,-3.7783,-3.7686,-3.7428,-3.7086,-3.7301,-3.718,-3.6716,-3.5565,-3.4718,-3.4174,-3.239,-3.1536,-3.1536,-3.0558,-3.0139,-3.0139,-2.9934,-2.9792,-2.9792,-2.9792,-2.9792,-2.9792,-2.9792,-2.9792,-2.9792,-2.9792,-2.9792,-2.9792,-2.9792,-2.9792,-2.9792,-2.9792,-2.9197,-2.8518,-2.8518,-2.7775,-2.6707,-2.587,-2.5538,-2.5105,-2.3831,-2.372,-2.3741,-2.3184,-2.331,-2.3437,-2.333,-2.3652,-2.3945,-2.3945,-2.4209,-2.4492,-2.4717,-2.4297,-2.4102,-2.4531,-2.4209,-2.3828,-2.3496,-2.3369,-2.3301,-2.3301,-2.3203,-2.3135,-2.3135,-2.3135,-2.3135,-2.3135,-2.2217,-2.1756,-2.1756,-2.0854,-2.0305,-1.9943,-1.9943,-1.9314,-1.8141,-1.787,-1.7225,0.6743,1.0569,1.2565,1.198,0.9686,0.6843,0.3925,0.209,0.0347,-0.1649,-0.3639,0.0,0.0,0.0,0.0,0.0,0.0,0.0,-2.7434,-3.0791,-3.3691,0.0,-3.778,0.0,-3.9563,-3.9898,-3.9901,0.0,-3.9086,-3.8745,-3.8414,-3.7674,-3.71,-3.66,-3.6643,-3.6505,-3.6058,-3.6402,-3.6172,-3.5369,-3.4407,-3.3494,-3.2749,-3.1267,-3.0558,-3.0558,0.0,-2.9792,-2.9792,-2.9792,-2.9792,-2.9792,-2.9792,-2.9792,-2.9792,-2.9792,-2.9792,-2.9792,-2.9792,-2.9792,-2.9702,-2.9197,-2.87,-2.8383,-2.8383,-2.7879,-2.7371,-2.7371,-2.6625,-2.563,-2.4957,-2.4457,-2.3877,-2.3212,-2.3135,-2.3135,-2.3135,-2.3135,-2.3135,-2.3135,-2.333,-2.3564,-2.375,-2.3828,-2.3984,-2.4355,-2.3896,-2.3662,-2.4082,-2.3769,-2.3408,-2.3164,-2.3135,-2.3135,-2.3135,-2.3135,-2.3135,-2.3135,-2.3135,-2.3135,-2.3135,-2.1943,-2.1293,-2.1293,-2.0124,-1.9222,-1.868,-1.868,-1.8041,-1.685,-1.685,-1.648,0.4575,0.8949,1.2955,1.5623,1.3212,0.9582,0.7221,0.6444,0.4924,0.0402,0.0,-0.3368,-0.6255,-0.7971,-1.0567,-1.5619,0.0,-2.4366,-3.1585,-3.4836,-3.7442,-4.0047,-4.041,-4.0577,-4.0882,-4.0508,-4.0154,-3.9952,-3.9315,-3.858,-3.7806,-3.6919,-3.6446,-3.6446,-3.5831,-3.5504,-3.5504,-3.5359,-3.4839,-3.4027,-3.289,-3.196,-3.118,-3.0203,-2.9792,-2.9792,-2.9792,0.0,-2.9792,-2.9792,-2.9792,-2.9792,-2.9792,-2.9792,-2.9792,-2.9792,-2.9792,-2.9792,-2.9792,-2.9624,-2.9209,-2.8347,-2.7441,-2.6719,-2.6565,-2.6389,-2.6307,-2.6307,-2.5462,-2.4542,-2.4542,-2.38,-2.3135,-2.3135,-2.3135,-2.3135,-2.3135,-2.3135,-2.3135,-2.3135,-2.3135,-2.3262,-2.3633,-2.3389,-2.3389,-2.4141,-2.3613,-2.3271,-2.3652,-2.3379,-2.3135,-2.3135,-2.3135,-2.3135,-2.3135,-2.3135,-2.3135,-2.3135,-2.296,-2.2862,-2.2862,-2.1578,-2.0845,-2.0845,-1.967,-1.8495,-1.7412,-1.7412,-1.6857,-1.5832,-1.5832,-1.5832,1.0151,1.4554,1.8356,1.9226,1.7351,1.4688,1.1853,0.8444,0.0,0.0,0.0,-0.3883,-0.6969,-0.8353,0.0,-1.7399,0.0,0.0,0.0,0.0,-3.9181,0.0,0.0,0.0,0.0,0.0,0.0,0.0,0.0,-3.858,-3.7806,-3.6492,-3.5668,-3.5668,-3.5569,-3.5504,-3.5504,-3.4691,-3.4177,-3.3959,-3.2249,-3.1389,-3.118,-3.0203,-2.9792,-2.9792,-2.9792,0.0,-2.9792,-2.9792,-2.9792,-2.9792,-2.9792,-2.9792,-2.9792,-2.9792,-2.9792,-2.9792,-2.9792,-2.8621,-2.7221,-2.7855,-2.8004,-2.7683,-2.6801,-2.5808,-2.5126,-2.5126,-2.4296,-2.3387,-2.3387,-2.3222,-2.3135,-2.3135,-2.3135,-2.3135,-2.3135,-2.3135,-2.3135,-2.3135,-2.3135,-2.3164,-2.3242,-2.3184,-2.3193,-2.334,-2.3232,-2.3164,-2.3242,-2.3184,-2.3135,-2.3135,-2.3135,-2.3135,-2.3135,-2.3135,-2.3135,-2.3135,-2.2129,-2.1569,-2.1569,-1.9497,-1.8319,-1.8319,-1.7124,-1.6386,-1.6109,-1.6109,-1.6015,-1.5832,-1.5832,-1.5832,1.5485,1.9232,2.2284,2.1963,1.9626,1.6728,1.4336,0.0,0.0,0.0,0.0,-0.4947,-0.8412,0.0,0.0,0.0,0.0,0.0,0.0,0.0,0.0,0.0,0.0,0.0,0.0,0.0,0.0,0.0,0.0,-3.8398,-3.7263,-3.6133,-3.5504,-3.5504,-3.5504,-3.5504,-3.5504,-3.4986,-3.4259,-3.3241,-3.2393,-3.1402,-3.0495,-2.9998,-2.9792,-2.9792,-2.9792,0.0,-2.9792,-2.9792,-2.9792,-2.9792,-2.9792,-2.9792,-2.9792,-2.9792,-2.9792,-2.9792,-2.9792,-2.8712,-2.7371,-2.7279,-2.6449,-2.5368,-2.4893,-2.4382,-2.3877,-2.3877,-2.3551,-2.3135,-2.3135,-2.3135,-2.3135,-2.3135,-2.3135,-2.3135,-2.3135,-2.3135,-2.3135,-2.3135,-2.3135,-2.3135,-2.3135,-2.3135,-2.3135,-2.3135,-2.3135,-2.3135,-2.3135,-2.3135,-2.3135,-2.3135,-2.3135,-2.3135,-2.3135,-2.2492,-2.2129,-2.2129,-2.1033,-2.0395,-2.0395,-1.8688,-1.7692,-1.7692,-1.648,-1.5832,-1.5832,-1.5832,-1.5832,-1.5832,-1.5832,-1.5832,2.0888,2.3573,2.5668,2.469,2.1709,1.8514,1.6566,0.9704,0.0,0.0,-0.4637,-0.6603,-0.9654,0.0,0.0,0.0,0.0,0.0,0.0,0.0,0.0,0.0,0.0,0.0,0.0,0.0,0.0,0.0,0.0,0.0,-3.6661,-3.6054,-3.5668,-3.5504,-3.5504,-3.5504,-3.5504,-3.5279,-3.4409,-3.289,-3.2464,-3.1549,-3.0075,-2.9856,-2.9792,-2.9792,-2.9792,0.0,0.0,-2.9792,-2.9792,-2.9792,-2.9792,-2.9792,-2.9792,-2.9792,-2.9624,-2.9456,-2.9456,-2.8518,-2.7267,-2.6378,-2.4893,-2.3387,-2.3135,-2.3135,-2.3135,-2.3135,-2.3135,-2.3135,-2.3135,-2.3135,-2.3135,-2.3135,-2.3135,-2.3135,-2.3135,-2.3135,-2.3135,-2.3135,-2.3135,-2.3135,-2.3135,-2.3135,-2.3135,-2.3135,-2.3135,-2.3135,-2.3135,-2.3135,-2.3135,-2.3135,-2.3135,-2.3135,-2.3135,-2.2031,-2.1293,-2.1293,-1.9943,-1.9131,-1.9131,-1.7956,-1.7318,-1.7318,-1.6298,-1.5832,-1.5832,-1.5832,-1.5832,-1.5832,-1.5832,-1.5832,2.6728,2.7954,2.8801,2.7691,2.4851,2.1867,1.9866,0.0,0.0,0.0,-0.6573,-0.9406,-0.9822,-1.0876,0.0,0.0,0.0,0.0,0.0,0.0,0.0,0.0,0.0,0.0,0.0,0.0,0.0,0.0,0.0,0.0,-3.6661,-3.6554,-3.6165,-3.5504,-3.5504,-3.5504,-3.5504,-3.461,-3.4027,-3.3876,-3.2177,-3.1254,-3.1044,-3.0216,-2.9792,-2.9792,-2.9792,0.0,0.0,-2.9792,-2.9792,-2.9792,-2.9792,-2.9792,-2.9792,-2.9792,-2.9106,-2.8255,-2.8255,-2.6849,-2.5115,-2.4957,-2.4787,-2.4457,-2.3387,-2.3135,-2.3135,-2.3135,-2.3135,-2.3135,-2.3135,-2.3135,-2.3135,-2.3135,-2.3135,-2.3135,-2.3135,-2.3135,-2.3135,-2.3135,-2.3135,-2.3135,-2.3135,-2.3135,-2.3135,-2.3135,-2.3135,-2.3135,-2.3135,-2.3135,-2.3135,-2.3135,-2.3135,-2.3135,-2.3135,-2.2031,-2.1293,-2.1293,-1.9131,-1.787,-1.787,-1.6669,-1.6015,-1.6015,-1.5825,-1.5832,-1.5832,-1.5832,-1.5832,-1.5832,-1.5832,-1.5832,2.9372,3.0133,3.0843,3.0202,2.6952,2.3392,2.1335,0.0,0.0,-0.6818,-0.9638,-1.1296,-1.2704,-1.3832,-1.5128,0.0,0.0,0.0,0.0,0.0,0.0,0.0,0.0,0.0,0.0,0.0,0.0,0.0,0.0,0.0,-3.8044,-3.7128,-3.6275,-3.5504,-3.51,-3.5085,-3.5504,-3.4718,-3.4215,-3.3959,-3.2664,-3.1742,-3.118,-3.0203,-2.9792,-2.9792,-2.9792,0.0,0.0,-2.9792,-2.9792,-2.9792,-2.9792,-2.9792,-2.9792,-2.9792,-2.9106,-2.8096,-2.8096,-2.6685,-2.4787,-2.4787,-2.4382,-2.3714,-2.3222,-2.3135,-2.3135,-2.3135,-2.3135,-2.3135,-2.3135,-2.3135,-2.3135,-2.3135,-2.3135,-2.3135,-2.3135,-2.3135,-2.3135,-2.3135,-2.3135,-2.3135,-2.3135,-2.3135,-2.3135,-2.3135,-2.3135,-2.3135,-2.3135,-2.3135,-2.3135,-2.3135,-2.3135,-2.2775,-2.212,-2.0935,-1.9943,-1.9222,-1.749,-1.6574,-1.6574,-1.6109,-1.5832,-1.5832,-1.5832,-1.5832,-1.5832,-1.5832,-1.5832,-1.5832,-1.5832,-1.5832,2.9868,3.1101,3.1834,3.1814,2.8341,2.4452,0.0,0.0,-0.0065,-1.0161,-1.2312,-1.3028,-1.5198,-1.6791,-1.7899,0.0,0.0,0.0,0.0,0.0,0.0,0.0,0.0,0.0,0.0,0.0,0.0,0.0,0.0,0.0,-3.8962,-3.7658,-3.6631,-3.5831,-3.5138,-3.5011,-3.5504,-3.5026,-3.4658,-3.4394,-3.3058,-3.2047,-3.1342,-2.992,-2.9302,-2.9302,-2.9465,0.0,0.0,-2.9654,-2.9691,-2.9553,-2.9729,-2.9792,-2.9792,-2.9792,-2.9106,-2.8084,-2.7763,-2.6367,-2.4702,-2.4372,-2.3714,-2.3135,-2.3135,-2.3135,-2.3135,-2.3135,-2.3135,-2.3135,-2.3135,-2.3135,-2.3135,-2.3135,-2.3135,-2.3135,-2.3135,-2.3135,-2.3135,-2.3135,-2.3135,-2.3135,-2.3135,-2.3135,-2.3135,-2.3135,-2.3135,-2.3135,-2.3135,-2.3135,-2.296,-2.2589,-2.2589,-2.2217,-2.1382,-1.9852,-1.8596,-1.7777,-1.648,-1.5832,-1.5832,-1.5832,-1.5832,-1.5832,-1.5832,-1.5832,-1.5832,-1.5832,-1.5832,-1.5832,-1.5832,-1.5832,2.8096,3.0885,3.1661,3.2324,2.8998,2.518,0.0,0.0,-0.0744,-1.1956,-1.4164,-1.4694,-1.6712,-1.9126,-2.11,-2.1824,0.0,0.0,0.0,0.0,0.0,0.0,0.0,0.0,0.0,0.0,0.0,0.0,0.0,0.0,-3.8962,-3.8189,-3.7397,-3.66,-3.5879,-3.5489,-3.5504,-3.5489,-3.5504,-3.5424,-3.299,-3.1778,-3.1695,-2.9256,-2.8122,0.0,0.0,0.0,0.0,-2.9327,-2.9453,-2.9001,-2.9566,-2.9792,-2.9792,-2.9792,-2.9106,-2.7924,-2.6883,-2.5797,-2.4617,-2.3464,-2.3135,-2.3135,-2.3135,-2.3135,-2.3135,-2.3135,-2.3135,-2.3135,-2.3135,-2.3135,-2.3135,-2.3135,-2.3135,-2.3135,-2.3135,-2.3135,-2.3135,-2.3135,-2.3135,-2.3135,-2.3135,-2.3135,-2.3135,-2.3135,-2.3135,-2.3135,-2.3135,-2.3135,-2.2677,-2.1471,-2.1293,-2.1293,-2.1293,-1.9131,-1.7684,-1.7692,-1.648,-1.5832,-1.5832,-1.5832,-1.5832,-1.5832,-1.5832,-1.5832,-1.5832,-1.5832,-1.5832,-1.5832,-1.5832,-1.5832,2.0199,2.5633,3.0675,3.1535,2.8197,2.328,1.7821,0.7832,-0.3071,-1.3002,-1.6924,-1.94,-2.1811,-2.4242,-2.6394,-2.8068,-3.161,0.0,0.0,0.0,0.0,0.0,0.0,0.0,0.0,0.0,0.0,0.0,0.0,0.0,-3.9731,-3.8486,-3.7456,-3.6615,-3.5425,-3.4801,-3.4801,-3.4352,-3.4128,-3.4128,-3.2688,-3.1692,-3.1074,-2.9614,-2.8856,0.0,0.0,0.0,0.0,-2.9051,-2.9089,-2.8988,-2.9566,-2.9792,-2.9792,-2.9792,-2.9106,-2.8016,-2.7683,-2.6871,-2.5797,-2.4628,-2.4296,-2.4125,-2.3299,-2.3135,-2.3135,-2.3135,-2.3135,-2.3135,-2.3135,-2.3135,-2.3135,-2.3135,-2.3135,-2.3135,-2.3135,-2.3135,-2.3135,-2.3135,-2.3135,-2.3135,-2.3135,-2.3135,-2.3135,-2.3135,-2.3135,-2.3135,-2.3135,-2.2403,-2.1747,-2.1382,-1.9852,-1.8864,-1.8864,-1.8141,-1.7318,-1.648,-1.6015,-1.5832,-1.5832,-1.5832,-1.5832,-1.5832,-1.5832,-1.5832,-1.5832,-1.5832,-1.5832,-1.5832,-1.5832,-1.5832,0.0,1.7695,2.3715,2.6291,2.3388,0.0,0.0,0.2694,-0.6898,-1.717,-2.0914,-2.3181,-2.5869,-2.8478,-3.0722,-3.2326,-3.5186,0.0,0.0,0.0,0.0,0.0,0.0,0.0,0.0,0.0,0.0,0.0,0.0,0.0,-4.007,-3.8668,-3.7573,-3.71,-3.5658,-3.4741,-3.4472,-3.4068,-3.3739,-3.3499,-3.229,-3.1511,-3.09,-2.943,-2.8669,0.0,0.0,0.0,0.0,-2.8674,-2.88,-2.8699,-2.949,-2.9792,-2.9792,-2.9792,-2.9365,-2.8652,-2.8028,-2.7531,-2.6837,-2.5579,-2.4977,-2.4628,-2.3474,-2.3135,-2.3135,-2.3135,-2.3135,-2.3135,-2.3135,-2.3135,-2.3135,-2.3135,-2.3135,-2.3135,-2.3135,-2.3135,-2.3135,-2.3135,-2.3135,-2.3135,-2.3135,-2.3135,-2.3135,-2.3135,-2.2677,-2.2403,-2.2403,-2.1391,-2.0486,-2.0034,-1.8596,-1.7505,-1.7037,-1.6943,-1.6662,-1.5825,-1.5832,-1.5832,-1.5832,-1.5832,-1.5832,-1.5832,-1.5832,-1.5832,-1.5832,-1.5832,-1.5832,-1.5832,-1.5832,-1.5832,0.0,0.0,0.0,0.0,0.0,0.0,0.0,-0.2959,0.0,-2.3276,-2.5577,-2.636,-2.9158,-3.195,-3.4088,-3.4934,-3.7797,0.0,0.0,0.0,0.0,0.0,0.0,0.0,0.0,0.0,0.0,0.0,0.0,0.0,-4.007,-3.8603,-3.7742,-3.7742,-3.6198,-3.5055,-3.4412,-3.4367,-3.4008,-3.335,-3.1918,-3.1213,-3.1075,-2.8852,-2.7815,0.0,0.0,0.0,0.0,-2.8185,-2.8536,-2.821,-2.9302,-2.9754,-2.9779,-2.9741,-2.9729,-2.9487,-2.7968,-2.771,-2.7885,-2.6302,-2.5333,-2.4628,-2.3551,-2.3135,-2.3135,-2.3135,-2.3135,-2.3135,-2.3135,-2.3135,-2.3135,-2.3135,-2.3135,-2.3135,-2.3135,-2.3135,-2.3135,-2.3135,-2.3135,-2.3135,-2.3135,-2.3135,-2.3047,-2.296,-2.2031,-2.1293,-2.1203,-2.0124,-1.8956,-1.7777,-1.7591,-1.7131,-1.592,-1.5832,-1.5832,-1.5832,-1.5832,-1.5832,-1.5832,-1.5832,-1.5832,-1.5832,-1.5832,-1.5832,-1.5832,-1.5832,-1.5832,-1.5832,-1.5832,-1.5832,-1.508,0.0,0.7007,0.8432,0.6381,0.0,0.0,0.0,0.0,0.0,0.0,-3.0526,-3.3462,-3.5102,-3.6616,-3.834,-4.0122,-4.2048,0.0,0.0,0.0,0.0,0.0,0.0,0.0,0.0,0.0,0.0,0.0,-4.007,-4.007,-3.8166,-3.703,-3.703,-3.5062,-3.3888,-3.3724,-3.323,-3.2647,-3.2003,-3.1575,-3.1116,-3.047,-2.9946,-2.9173,0.0,0.0,0.0,-2.7118,-2.7507,-2.7846,-2.8172,-2.8863,-2.9402,-2.9741,-2.9289,-2.9139,-2.9038,-2.8648,-2.861,-2.8605,-2.7743,-2.6266,-2.4787,-2.4457,-2.38,-2.3135,-2.3135,-2.3135,-2.3135,-2.3135,-2.3135,-2.3135,-2.3135,-2.3135,-2.3135,-2.3135,-2.3135,-2.3135,-2.3135,-2.3135,-2.3135,-2.3135,-2.3135,-2.2784,-2.1872,-2.1489,-2.0935,-2.0034,-1.8864,-1.8048,-1.7684,-1.6857,-1.6109,-1.5832,-1.5832,-1.5832,-1.5832,-1.5832,-1.5832,-1.5832,-1.5832,-1.5832,-1.5832,-1.5832,-1.5832,-1.5832,-1.5832,-1.5832,-1.5832,-1.5832,-1.5832,-2.2778,-1.3584,-0.4464,-0.5324,-0.5711,-0.788,0.0,0.0,0.0,0.0,0.0,0.0,-3.6036,0.0,0.0,-3.968,-4.2114,0.0,0.0,0.0,0.0,0.0,0.0,0.0,0.0,0.0,0.0,0.0,0.0,-3.9952,-3.9558,-3.7785,-3.6605,-3.6263,-3.4149,-3.3036,-3.3036,-3.2392,-3.1884,-3.1482,-3.121,-3.0981,-3.0837,-3.0464,-2.9936,0.0,0.0,0.0,-2.7503,-2.776,-2.7774,-2.7783,-2.8335,-2.8737,-2.8976,-2.8662,-2.8549,-2.8549,-2.8549,-2.8712,-2.8737,-2.7969,-2.7071,-2.603,-2.4522,-2.3957,-2.38,-2.3222,-2.3135,-2.3135,-2.3135,-2.3135,-2.3135,-2.3135,-2.3135,-2.3135,-2.3135,-2.3135,-2.3135,-2.3135,-2.3135,-2.3135,-2.3135,-2.3135,-2.2677,-2.1498,-2.0854,-2.0034,-1.8864,-1.7584,-1.6857,-1.6857,-1.6204,-1.5832,-1.5832,-1.5832,-1.5832,-1.5832,-1.5832,-1.5832,-1.5832,-1.5832,-1.5832,-1.5832,-1.5832,-1.5832,-1.5832,-1.5698,-1.5698,-1.5825,-1.5691,-1.5631,-2.5674,-2.1564,-1.761,-1.9173,-1.7935,-1.8679,0.0,0.0,0.0,0.0,0.0,0.0,0.0,0.0,0.0,0.0,0.0,0.0,0.0,0.0,0.0,0.0,0.0,0.0,0.0,0.0,0.0,0.0,0.0,-3.9731,-3.8962,-3.7452,-3.6276,-3.5512,-3.3425,-3.2362,-3.2362,-3.175,-3.1482,-3.1467,-3.0941,-3.0971,-3.1467,-3.0777,-3.0389,-3.0269,0.0,0.0,-2.7894,-2.8237,-2.8023,-2.7518,-2.7868,-2.8034,-2.8097,-2.8009,-2.7984,-2.7984,-2.7984,-2.8348,-2.8637,-2.7754,-2.7489,-2.7114,-2.4357,-2.3958,-2.4186,-2.3268,-2.3086,-2.3135,-2.3135,-2.3135,-2.3135,-2.3135,-2.3135,-2.3135,-2.3135,-2.3135,-2.3135,-2.3135,-2.3135,-2.3135,-2.3135,-2.3135,-2.2589,-2.1203,-2.0124,-1.8948,-1.7591,-1.648,-1.5832,-1.5832,-1.5832,-1.5832,-1.5832,-1.5832,-1.5832,-1.5832,-1.5832,-1.5832,-1.5832,-1.5832,-1.5832,-1.5832,-1.5832,-1.5832,-1.5832,-1.5538,-1.5524,-1.5758,-1.5464,-1.5331,-2.6917,-2.6436,-2.565,-2.44,-2.4648,-2.5972,0.0,0.0,0.0,0.0,0.0,0.0,0.0,0.0,0.0,0.0,0.0,0.0,0.0,0.0,0.0,0.0,0.0,0.0,0.0,0.0,0.0,0.0,0.0,-3.9731,-3.8962,-3.7037,-3.5633,-3.4845,-3.2758,-3.1616,-3.1616,-3.1526,-3.1482,-3.1482,-3.1377,-3.1377,-3.1482,-3.1351,-3.097,-3.0269,0.0,-2.9628,-2.8748,-2.8079,-2.8011,-2.8239,-2.7627,-2.7695,-2.8047,-2.7582,-2.7406,-2.7406,-2.7406,-2.777,-2.8235,-2.8002,-2.688,-2.5351,-2.4882,-2.3619,-2.2389,-2.251,-2.2861,-2.3135,-2.3135,-2.3135,-2.3135,-2.3135,-2.3135,-2.3135,-2.3135,-2.3135,-2.3135,-2.3135,-2.3135,-2.3135,-2.3135,-2.3135,-2.2315,-2.0124,-1.9579,-1.8672,-1.6386,-1.592,-1.5832,-1.5832,-1.5832,-1.5832,-1.5832,-1.5832,-1.5832,-1.5832,-1.5832,-1.5832,-1.5832,-1.5832,-1.5832,-1.5832,-1.5832,-1.5832,-1.5832,-1.5538,-1.5418,-1.5451,-1.5164,-1.503,-2.7239,-2.7828,-2.86,-2.8537,-2.9702,-3.1319,0.0,0.0,0.0,0.0,0.0,0.0,0.0,0.0,0.0,0.0,0.0,0.0,0.0,0.0,0.0,0.0,0.0,0.0,0.0,0.0,0.0,0.0,0.0,0.0,-3.8374,-3.635,-3.4831,-3.4074,-3.2374,-3.1482,-3.1482,-3.1482,-3.1482,-3.1482,-3.115,-3.1165,-3.1467,-3.115,-3.0936,-3.0925,0.0,-2.9827,-2.9676,-2.8906,-2.8356,-2.8039,-2.7673,-2.7385,-2.718,-2.6929,-2.703,-2.7281,-2.7281,-2.7645,-2.8059,-2.7758,-2.6857,-2.565,-2.4506,-2.3495,-2.2696,-2.2276,-2.248,-2.2852,-2.3076,-2.3135,-2.3135,-2.3135,-2.3135,-2.3135,-2.3135,-2.3135,-2.3135,-2.3135,-2.3135,-2.2862,-2.2217,-2.212,-2.1311,-1.8864,-1.8503,-1.7855,-1.6015,-1.5832,-1.5832,-1.5832,-1.5832,-1.5832,-1.5832,-1.5832,-1.5832,-1.5832,-1.5832,-1.5832,-1.5832,-1.5832,-1.5758,-1.5598,-1.5591,-1.5518,-1.5357,-1.507,-1.501,-1.5157,-1.5023,-1.4591,-2.7412,-2.8293,-2.9837,-3.1245,0.0,0.0,0.0,0.0,0.0,0.0,0.0,0.0,0.0,0.0,0.0,0.0,0.0,0.0,0.0,0.0,0.0,0.0,0.0,0.0,0.0,0.0,0.0,0.0,0.0,0.0,-3.7623,-3.5734,-3.4278,-3.3336,-3.2138,-3.1482,-3.1482,-3.1317,-3.1317,-3.1467,-3.1001,-3.1016,-3.1452,-3.0821,-3.0791,-3.1225,-3.0073,-2.9785,-3.006,-2.9344,-2.8491,-2.7734,-2.7485,-2.704,-2.6508,-2.637,-2.6615,-2.7067,-2.6942,-2.7256,-2.7657,-2.7231,-2.6686,-2.5867,-2.4033,-2.3362,-2.297,-2.2006,-2.2041,-2.248,-2.2998,-2.3066,-2.3018,-2.3115,-2.3135,-2.3135,-2.3135,-2.3135,-2.3135,-2.3135,-2.3135,-2.2775,-2.1845,-2.148,-2.0576,-1.8411,-1.787,-1.7225,-1.592,-1.5832,-1.5832,-1.5832,-1.5832,-1.5832,-1.5832,-1.5765,-1.5732,-1.5732,-1.5792,-1.5832,-1.5832,-1.5832,-1.5691,-1.5404,-1.5398,-1.5251,-1.4963,-1.4663,-1.4636,-1.4856,-1.479,-1.4116,-2.7866,-2.8804,-3.0298,-3.1783,0.0,0.0,0.0,0.0,0.0,0.0,0.0,0.0,0.0,0.0,0.0,0.0,0.0,0.0,0.0,0.0,0.0,0.0,0.0,0.0,0.0,0.0,0.0,0.0,0.0,0.0,-3.6942,-3.5524,-3.4063,-3.2602,-3.1898,-3.1482,-3.1482,-3.0896,-3.0896,-3.1482,-3.1422,-3.1422,-3.1452,-3.0821,-3.0537,-3.0537,-2.9864,-2.9639,-2.958,-2.8499,-2.8057,-2.7919,-2.6956,-2.6521,-2.6458,-2.585,-2.6025,-2.6508,-2.59,-2.6088,-2.6647,-2.6596,-2.5889,-2.4873,-2.3841,-2.282,-2.2008,-2.1392,-2.1592,-2.2119,-2.293,-2.2852,-2.2656,-2.3047,-2.3135,-2.3135,-2.3135,-2.3135,-2.3135,-2.3135,-2.3135,-2.3047,-2.296,-2.2031,-2.0845,-1.9588,-1.8411,-1.7225,-1.592,-1.5832,-1.5832,-1.5832,-1.5832,-1.5832,-1.5832,-1.5585,-1.5431,-1.5431,-1.5678,-1.5832,-1.5832,-1.5832,-1.5691,-1.5404,-1.5398,-1.5251,-1.4963,-1.4663,-1.4529,-1.4543,-1.4275,-1.3528,-2.862,-2.9525,-3.1118,-3.3152,0.0,0.0,0.0,0.0,0.0,0.0,0.0,0.0,0.0,0.0,0.0,0.0,0.0,0.0,0.0,0.0,0.0,0.0,0.0,0.0,0.0,0.0,0.0,0.0,0.0,0.0,-3.6137,-3.4693,-3.3487,-3.2527,-3.1465,-3.0896,-3.0896,-3.0253,-3.0058,-3.0328,-3.0717,-3.0896,-3.0866,-3.0223,-2.9924,-2.9864,-2.8801,-2.8816,-2.9564,-2.87,-2.8209,-2.7913,-2.6876,-2.6239,-2.59,-2.5674,-2.5737,-2.5887,-2.5674,-2.5975,-2.6533,-2.6533,-2.5804,-2.4791,-2.3818,-2.2776,-2.1915,-2.1332,-2.1357,-2.168,-2.2529,-2.2822,-2.2939,-2.3096,-2.3135,-2.3135,-2.3135,-2.3135,-2.3135,-2.3135,-2.3135,-2.2862,-2.212,-2.0944,-1.9761,-1.8596,-1.7311,-1.6386,-1.5825,-1.5832,-1.5832,-1.5832,-1.5832,-1.5832,-1.5832,-1.5732,-1.5665,-1.5665,-1.5431,-1.5291,-1.5291,-1.5291,-1.515,-1.4856,-1.485,-1.471,-1.4422,-1.4302,-1.3898,-1.3348,-1.333,-1.2306,-2.9406,-3.0502,-3.2246,0.0,0.0,0.0,0.0,0.0,0.0,0.0,0.0,0.0,0.0,0.0,0.0,0.0,0.0,0.0,0.0,0.0,0.0,0.0,0.0,0.0,0.0,0.0,0.0,0.0,0.0,0.0,0.0,-3.3985,-3.2781,-3.1913,-3.0986,-3.0417,-3.0223,-2.9594,-2.937,-2.9579,-2.9804,-3.0013,-3.0193,-2.9564,-2.9265,-2.9205,-2.8068,-2.798,-2.8586,-2.8067,-2.7484,-2.6943,-2.6228,-2.5699,-2.5335,-2.5159,-2.5197,-2.536,-2.536,-2.5724,-2.6214,-2.6471,-2.6025,-2.5217,-2.3891,-2.2999,-2.2252,-2.1312,-2.1221,-2.1543,-2.1992,-2.2422,-2.2812,-2.3076,-2.3037,-2.2978,-2.3105,-2.3135,-2.3135,-2.3135,-2.3135,-2.2677,-2.148,-2.0305,-1.9131,-1.787,-1.6574,-1.5832,-1.5832,-1.5832,-1.5832,-1.5832,-1.5745,-1.5732,-1.5818,-1.5658,-1.5558,-1.5558,-1.5097,-1.495,-1.5224,-1.515,-1.4963,-1.4663,-1.4663,-1.4469,-1.4088,-1.4088,-1.3749,-1.3051,-1.2772,-1.1623,-3.0224,-3.1676,0.0,0.0,0.0,0.0,0.0,0.0,0.0,0.0,0.0,0.0,0.0,0.0,0.0,0.0,0.0,0.0,0.0,0.0,0.0,0.0,0.0,0.0,0.0,0.0,0.0,0.0,0.0,0.0,0.0,-3.3317,-3.1898,-3.0552,-3.0492,-3.0193,-2.9579,-2.8921,-2.8921,-2.9549,-2.8906,-2.8936,-2.9549,-2.8891,-2.8592,-2.8547,-2.7874,-2.7152,-2.6447,-2.6273,-2.5661,-2.4808,-2.482,-2.482,-2.4745,-2.4205,-2.4343,-2.4808,-2.482,-2.5159,-2.5686,-2.6264,-2.6533,-2.6082,-2.4108,-2.3514,-2.3073,-2.1155,-2.1201,-2.1777,-2.1348,-2.1553,-2.209,-2.293,-2.2812,-2.2627,-2.3037,-2.3135,-2.3135,-2.3135,-2.3047,-2.2677,-2.148,-2.0305,-1.9039,-1.7863,-1.6567,-1.5825,-1.5825,-1.5825,-1.5825,-1.5825,-1.5565,-1.5504,-1.5798,-1.5297,-1.4963,-1.4963,-1.4683,-1.491,-1.5778,-1.5538,-1.5251,-1.4963,-1.4957,-1.4676,-1.4088,-1.4088,-1.4088,-1.4088,-1.2857,-1.1724,-3.1784,-3.2811,0.0,0.0,0.0,0.0,0.0,0.0,0.0,0.0,0.0,0.0,0.0,0.0,0.0,0.0,0.0,0.0,0.0,0.0,0.0,0.0,0.0,0.0,0.0,0.0,0.0,0.0,0.0,0.0,0.0,-3.2736,-3.1898,-3.0552,-3.0088,-2.9549,-2.8891,-2.8218,-2.7758,-2.7409,-2.7219,-2.7748,-2.8891,-2.8682,-2.8062,-2.7117,-2.6913,-2.639,-2.5729,-2.5486,-2.5255,-2.4978,-2.4849,-2.4582,-2.4217,-2.4054,-2.4104,-2.4293,-2.4695,-2.5159,-2.5686,-2.6264,-2.6533,-2.6082,-2.4108,-2.3514,-2.3073,-2.1155,-2.0986,-2.1396,-2.1269,-2.1328,-2.1572,-2.2129,-2.2383,-2.2471,-2.2295,-2.2725,-2.3057,-2.2754,-2.2205,-2.1747,-2.1382,-1.9579,-1.8057,-1.7439,-1.6331,-1.5524,-1.5524,-1.5524,-1.5524,-1.5524,-1.5264,-1.5124,-1.5211,-1.5064,-1.4963,-1.4963,-1.4683,-1.4543,-1.4603,-1.3806,-1.3824,-1.4656,-1.3749,-1.3667,-1.4389,-1.4188,-1.3749,-1.3051,-1.2502,-1.1732,-3.3272,0.0,0.0,0.0,0.0,0.0,0.0,0.0,0.0,0.0,0.0,0.0,0.0,0.0,0.0,0.0,0.0,0.0,0.0,0.0,0.0,0.0,0.0,0.0,0.0,0.0,0.0,0.0,0.0,0.0,0.0,-3.2003,-3.1225,-3.0178,-2.952,-2.8861,-2.8203,-2.7513,-2.6799,-2.6121,-2.5845,-2.6021,-2.6651,-2.7123,-2.687,-2.6068,-2.5728,-2.5342,-2.4935,-2.4485,-2.4283,-2.4309,-2.4191,-2.3954,-2.3653,-2.3653,-2.3653,-2.374,-2.4305,-2.4845,-2.5385,-2.5937,-2.6264,-2.6082,-2.4108,-2.3514,-2.3073,-2.1155,-2.0889,-2.1191,-2.1016,-2.1103,-2.1348,-2.1777,-2.1943,-2.2021,-2.2119,-2.2539,-2.2812,-2.2568,-2.1717,-2.0925,-2.0237,-1.8643,-1.7271,-1.6404,-1.5749,-1.5224,-1.5224,-1.5224,-1.5224,-1.5224,-1.4963,-1.4836,-1.495,-1.4856,-1.4783,-1.4783,-1.4623,-1.4389,-1.4095,-1.3652,-1.3768,-1.4689,-1.3768,-1.3711,-1.4522,-1.4229,-1.3795,-1.3348,-1.2736,-1.2272,0.0,0.0,0.0,0.0,0.0,0.0,0.0,0.0,0.0,0.0,0.0,0.0,0.0,0.0,0.0,0.0,0.0,0.0,0.0,0.0,0.0,0.0,0.0,0.0,0.0,0.0,0.0,0.0,0.0,0.0,0.0,-3.1165,-3.0193,-2.9451,-2.88,-2.8159,-2.7408,-2.6707,-2.606,-2.5414,-2.471,-2.4075,-2.3537,-2.4721,-2.5232,-2.5122,-2.4403,-2.4097,-2.404,-2.3399,-2.3078,-2.3078,-2.3078,-2.3078,-2.3078,-2.3078,-2.3078,-2.3165,-2.3803,-2.433,-2.4833,-2.536,-2.5912,-2.6008,-2.4039,-2.3481,-2.3073,-2.1155,-2.0859,-2.1074,-2.0674,-2.0869,-2.1269,-2.167,-2.1494,-2.1435,-2.2178,-2.2402,-2.2441,-2.2223,-2.1351,-2.0208,-1.8601,-1.7582,-1.6621,-1.5217,-1.4957,-1.4937,-1.4963,-1.4943,-1.4923,-1.4923,-1.4656,-1.4589,-1.4863,-1.4636,-1.4482,-1.4482,-1.4482,-1.4376,-1.4135,-1.4289,-1.4555,-1.4917,-1.4568,-1.4442,-1.4563,-1.4269,-1.4262,-1.4435,-1.3373,-1.2963,0.0,0.0,0.0,0.0,0.0,0.0,0.0,0.0,0.0,0.0,0.0,0.0,0.0,0.0,0.0,0.0,0.0,0.0,0.0,0.0,0.0,0.0,0.0,0.0,0.0,0.0,0.0,0.0,0.0,0.0,-3.0986,-3.0657,-2.9748,-2.8035,-2.7806,-2.7144,-2.5892,-2.5728,-2.5025,0.0,-2.37,-2.3023,-2.2021,-2.3418,-2.3738,-2.3191,-2.2845,-2.2718,-2.2743,-2.3009,-2.3078,-2.3078,-2.3078,-2.3078,-2.3078,-2.3078,-2.3078,-2.3165,-2.3803,-2.4079,-2.4268,-2.4808,-2.5347,-2.5425,-2.3441,-2.3139,-2.3073,-2.1155,-2.0635,-2.0684,-2.0586,-2.0635,-2.0732,-2.083,-2.1045,-2.1182,-2.1025,-2.1533,-2.1655,-2.0448,-1.9534,-1.8589,-1.7644,-1.6497,-1.564,-1.5402,-1.491,-1.4703,-1.4937,-1.4763,-1.4616,-1.4616,-1.4355,-1.4208,-1.4269,-1.4215,-1.4182,-1.4182,-1.4182,-1.4255,-1.4422,-1.3505,-1.3473,-1.4616,-1.3561,-1.3636,-1.487,-1.4569,-1.4456,-1.4435,-1.3475,-1.2855,0.0,0.0,0.0,0.0,0.0,0.0,0.0,0.0,0.0,0.0,0.0,0.0,0.0,0.0,0.0,0.0,0.0,0.0,0.0,0.0,0.0,0.0,0.0,0.0,0.0,0.0,0.0,0.0,0.0,-3.1028,-3.0013,-2.9304,-2.8297,-2.7017,-2.665,-2.616,-2.5412,-2.5063,-2.4225,-2.3027,-2.2656,-2.1843,-2.0756,-2.206,-2.2417,-2.2076,-2.1951,-2.192,-2.1945,-2.2234,-2.2347,-2.2347,-2.2347,-2.251,-2.2736,-2.2736,-2.266,-2.2616,-2.3354,-2.3505,-2.3501,-2.4191,-2.4632,-2.4631,-2.314,-2.2761,-2.2478,-2.1011,-2.0566,-2.0566,-2.0566,-2.0566,-2.0566,-2.0566,-2.0742,-2.0908,-2.0889,-2.0818,-2.0557,-1.9752,-1.8439,-1.7212,-1.6632,-1.5655,-1.5023,-1.517,-1.4803,-1.4576,-1.473,-1.4496,-1.4315,-1.4315,-1.4175,-1.4088,-1.4088,-1.4088,-1.4088,-1.4088,-1.4088,-1.4155,-1.4309,-1.3694,-1.3735,-1.4723,-1.3828,-1.3828,-1.475,-1.4456,-1.4095,-1.3729,-1.3231,-1.2711,0.0,0.0,0.0,0.0,0.0,0.0,0.0,0.0,0.0,0.0,0.0,0.0,0.0,0.0,0.0,0.0,0.0,0.0,0.0,0.0,0.0,0.0,0.0,0.0,0.0,0.0,0.0,0.0,0.0,-2.9688,-2.9029,-2.7773,-2.6765,-2.6057,-2.5492,-2.5078,-2.4857,-2.4249,-2.3385,-2.2272,-2.1559,-2.0702,-1.9836,-2.0778,-2.1192,-2.1204,-2.1305,-2.1287,-2.1176,-2.1275,-2.1313,-2.1313,-2.1313,-2.1636,-2.2064,-2.2064,-2.1922,-2.1815,-2.2628,-2.2663,-2.2455,-2.3329,-2.3717,-2.3664,-2.2663,-2.2185,-2.1811,-2.0857,-2.0566,-2.0566,-2.0566,-2.0566,-2.0566,-2.0566,-2.0566,-2.0664,-2.0796,-2.0111,-1.9353,-1.9018,-1.7319,-1.5867,-1.5661,-1.5019,-1.4716,-1.5057,-1.4776,-1.4536,-1.4589,-1.4295,-1.4088,-1.4088,-1.4088,-1.4088,-1.4088,-1.4088,-1.4088,-1.4088,-1.4088,-1.4108,-1.4162,-1.4115,-1.4342,-1.4877,-1.4362,-1.4229,-1.4522,-1.4282,-1.3809,-1.3012,-1.2786,-1.228,0.0,0.0,0.0,0.0,0.0,0.0,0.0,0.0,0.0,0.0,0.0,0.0,0.0,0.0,0.0,0.0,0.0,0.0,0.0,0.0,0.0,0.0,0.0,0.0,0.0,0.0,0.0,0.0,-2.9195,-2.8196,-2.7523,-2.6868,-2.5914,-2.4585,-2.4492,-2.3869,-2.27,-2.2642,-2.2027,-2.098,-2.0315,-1.9949,-1.9811,-1.9962,-2.0024,-2.0062,-2.0552,-2.0427,-1.9901,-2.0358,-2.0538,-2.0538,-2.0538,-2.0804,-2.1188,-2.1188,-2.0973,-2.091,-2.1753,-2.1537,-2.1012,-2.1922,-2.2208,-2.2148,-2.1182,-2.1429,-2.1811,-2.0857,-2.0566,-2.0566,-2.0566,-2.0566,-2.0566,-2.0566,-2.0566,-2.0342,-1.9515,-1.9197,-1.854,-1.6582,-1.5418,-1.4844,-1.5069,-1.4966,-1.509,-1.5631,-1.503,-1.4609,-1.487,-1.4429,-1.4088,-1.4088,-1.4088,-1.4088,-1.4088,-1.4088,-1.4088,-1.4088,-1.4088,-1.4202,-1.4449,-1.4222,-1.4242,-1.4569,-1.4255,-1.4229,-1.4522,-1.4482,-1.3907,-1.3018,-1.2117,-1.1024,0.0,0.0,0.0,0.0,0.0,0.0,0.0,0.0,0.0,0.0,0.0,0.0,0.0,0.0,0.0,0.0,0.0,0.0,0.0,0.0,0.0,0.0,0.0,0.0,0.0,0.0,0.0,0.0,-2.8133,-2.708,-2.6134,-2.5449,-2.4588,-2.3675,-2.3662,-2.3216,-2.2322,-2.2309,-2.1757,-2.0706,-2.0075,-1.9798,-1.9798,-1.9798,-1.9798,-1.9798,-1.9426,-1.9194,-1.9059,-1.8686,-1.8661,-1.8848,-1.8848,-1.9399,-2.0201,-2.0201,-2.0167,-2.0228,-2.1108,-2.0734,-2.0009,-2.091,-2.1185,-2.1156,-2.0744,-2.0884,-2.1155,-2.0712,-2.0566,-2.0566,-2.0566,-2.0566,-2.0566,-2.0566,-2.0566,-2.0157,-1.839,-1.8069,-1.7415,-1.522,-1.4514,-1.4322,-1.4449,-1.4743,-1.505,-1.5304,-1.5157,-1.5057,-1.519,-1.4696,-1.4329,-1.4329,-1.4182,-1.4155,-1.4315,-1.4182,-1.4155,-1.4315,-1.4175,-1.4142,-1.4269,-1.4155,-1.4148,-1.4275,-1.4155,-1.4148,-1.4275,-1.3563,-1.2726,-1.1727,-1.076,-0.9652,0.0,0.0,0.0,0.0,0.0,0.0,0.0,0.0,0.0,0.0,0.0,0.0,0.0,0.0,0.0,0.0,0.0,0.0,0.0,0.0,0.0,0.0,0.0,0.0,0.0,0.0,0.0,0.0,-2.6924,-2.5968,-2.4936,-2.4198,-2.3514,-2.2949,-2.2924,-2.2585,-2.1895,-2.1744,-2.1137,-2.0014,-1.9664,-1.9349,-1.9111,-1.9193,-1.9254,-1.9178,-1.8437,-1.7981,-1.7762,-1.6994,-1.6904,-1.7181,-1.7258,-1.8114,-1.9312,-1.9441,-1.9467,-1.9541,-2.0542,-2.0076,-1.911,-2.0009,-2.0172,-2.0103,-2.0216,-2.0306,-2.042,-2.0537,-2.0566,-2.0566,-2.0566,-2.0566,-2.0566,-2.0566,-2.0566,-1.9991,-1.7738,-1.6854,-1.6041,-1.4412,-1.4088,-1.4135,-1.4282,-1.4676,-1.5017,-1.5164,-1.5304,-1.5398,-1.5398,-1.4883,-1.4522,-1.4522,-1.4262,-1.4175,-1.4389,-1.4282,-1.4255,-1.4402,-1.4275,-1.4162,-1.4088,-1.4088,-1.4122,-1.4195,-1.4122,-1.4088,-1.4088,-1.3203,-1.2117,-1.0776,-1.0026,-0.8938,0.0,0.0,0.0,0.0,0.0,0.0,0.0,0.0,0.0,0.0,0.0,0.0,0.0,0.0,0.0,0.0,0.0,0.0,0.0,0.0,0.0,0.0,0.0,0.0,0.0,0.0,0.0,0.0,-2.5704,-2.4671,-2.4079,-2.3477,-2.2924,-2.2372,-2.2347,-2.1832,-2.0819,-2.0213,-1.9379,-1.8253,-1.8606,-1.819,-1.7183,-1.7528,-1.7688,-1.7709,-1.7972,-1.706,-1.5383,-1.5818,-1.5954,-1.6018,-1.6416,-1.727,-1.844,-1.8958,-1.8916,-1.8743,-2.0134,-1.9475,-1.8202,-1.911,-1.9104,-1.8811,-1.9232,-1.96,-2.0029,-2.0449,-2.0566,-2.0566,-2.0566,-2.0566,-2.0566,-2.0566,-2.0566,-1.9991,-1.7738,-1.5718,-1.425,-1.4088,-1.4088,-1.4262,-1.4823,-1.4943,-1.515,-1.5705,-1.5565,-1.5398,-1.5398,-1.4883,-1.4522,-1.4522,-1.4262,-1.4095,-1.4108,-1.4349,-1.4389,-1.4128,-1.4355,-1.4376,-1.4095,-1.4088,-1.4215,-1.4489,-1.4229,-1.4088,-1.4088,-1.3997,-1.2918,-1.0771,-1.0781,-0.9635,0.0,0.0,0.0,0.0,0.0,0.0,0.0,0.0,0.0,0.0,0.0,0.0,0.0,0.0,0.0,0.0,0.0,0.0,0.0,0.0,0.0,0.0,0.0,0.0,0.0,0.0,0.0,0.0,0.0,-2.3612,-2.2724,-2.2092,-2.1955,-2.2322,-2.197,-2.1194,-1.9989,-1.8667,-1.7821,-1.7387,-1.756,-1.7402,-1.7021,-1.7148,-1.6771,-1.6072,-1.5902,-1.5927,-1.5949,-1.51,-1.5054,-1.5632,-1.626,-1.703,-1.7958,-1.9033,-1.9132,-1.8888,-1.9743,-1.9101,-1.8076,-1.8327,-1.8745,-1.9082,-1.9238,-1.9775,-2.0361,-2.0518,-2.0566,-2.0566,-2.0566,-2.0566,-2.0566,-2.0566,-2.0079,-1.9195,-1.7658,-1.5636,-1.4088,-1.4088,-1.4088,-1.4155,-1.4362,-1.4556,-1.475,-1.4957,-1.5217,-1.5331,-1.5144,-1.4937,-1.473,-1.4543,-1.4262,-1.4242,-1.4616,-1.4569,-1.4636,-1.491,-1.485,-1.4669,-1.4376,-1.4362,-1.4322,-1.4242,-1.4142,-1.4175,-1.4362,-1.3376,-1.2123,-1.0644,-0.999,-0.8927,0.0,0.0,0.0,0.0,0.0,0.0,0.0,0.0,0.0,0.0,0.0,0.0,0.0,0.0,0.0,0.0,0.0,0.0,0.0,0.0,0.0,0.0,0.0,0.0,0.0,0.0,0.0,0.0,0.0,0.0,-2.2111,-2.1388,-2.1092,-2.1416,-2.0859,-2.0006,-1.892,-1.7759,-1.693,-1.6398,-1.6563,-1.637,-1.5803,-1.5965,-1.5595,-1.481,-1.4419,-1.4604,-1.5229,-1.4304,-1.4498,-1.5431,-1.6078,-1.7102,-1.8391,-1.9483,-1.9761,-1.9655,-1.9907,-1.9286,-1.8395,-1.8076,-1.8389,-1.8887,-1.9023,-1.957,-2.0166,-2.0303,-2.0449,-2.0566,-2.0566,-2.0566,-2.0566,-2.0566,-1.9766,-1.8718,-1.7577,-1.5876,-1.4489,-1.4173,-1.4088,-1.4148,-1.4349,-1.4456,-1.4583,-1.4783,-1.515,-1.5291,-1.4997,-1.4963,-1.485,-1.4556,-1.4262,-1.4242,-1.4636,-1.4576,-1.4643,-1.4937,-1.4963,-1.483,-1.4529,-1.4616,-1.4576,-1.4389,-1.4282,-1.415,-1.3886,-1.2898,-1.1766,-1.0639,-0.9611,-0.8532,0.0,0.0,0.0,0.0,0.0,0.0,0.0,0.0,0.0,0.0,0.0,0.0,0.0,0.0,0.0,0.0,0.0,0.0,0.0,0.0,0.0,0.0,0.0,0.0,0.0,0.0,0.0,0.0,-2.2754,-2.2094,-2.2456,-2.1493,-2.0581,-1.9614,-1.8946,-1.8274,-1.7556,-1.7533,-1.672,-1.5163,-1.5627,-1.5026,-1.3516,-1.3873,-1.4058,-1.4038,-1.3672,-1.3252,-1.2959,-1.34,-1.4215,-1.5247,-1.5775,-1.7444,-1.9626,-2.0232,-2.0676,-2.0936,-2.0665,-2.0009,-1.9177,-1.8269,-1.8018,-1.8105,-1.8525,-1.8965,-1.9394,-1.9814,-2.0244,-2.0566,-2.0566,-2.0566,-2.0566,-2.0566,-1.9766,-1.8718,-1.7577,-1.6519,-1.5462,-1.4328,-1.4088,-1.4269,-1.4836,-1.4703,-1.4716,-1.5284,-1.5378,-1.5277,-1.499,-1.495,-1.4836,-1.4536,-1.4255,-1.4088,-1.4095,-1.4362,-1.4416,-1.4142,-1.4663,-1.485,-1.4556,-1.4816,-1.4963,-1.4963,-1.4676,-1.3899,-1.2815,-1.2627,-1.1921,-1.0686,-0.9723,-0.8617,-3.4394,0.0,0.0,0.0,0.0,0.0,0.0,0.0,0.0,0.0,0.0,0.0,0.0,0.0,0.0,0.0,0.0,0.0,0.0,0.0,0.0,0.0,0.0,0.0,0.0,0.0,0.0,0.0,-2.1495,-2.1297,-2.1529,-2.0918,-2.027,-1.9602,-1.8013,-1.6861,-1.6396,-1.5484,-1.4679,-1.3971,-1.41,-1.3928,-1.3516,-1.3633,-1.3682,-1.3652,-1.3232,-1.3262,-1.3614,-1.4377,-1.5123,-1.5839,-1.7326,-1.8347,-1.9102,-2.0662,-2.0864,-2.0452,-2.054,-2.0009,-1.9177,-1.8269,-1.8213,-1.8545,-1.8975,-1.9404,-1.9834,-2.0264,-2.0469,-2.0566,-2.0566,-2.0566,-2.0566,-2.0566,-2.0401,-1.9599,-1.7738,-1.709,-1.6281,-1.4496,-1.4088,-1.4135,-1.4302,-1.4436,-1.4576,-1.4736,-1.4943,-1.4977,-1.4683,-1.4643,-1.4529,-1.4242,-1.4135,-1.4175,-1.4382,-1.4669,-1.4897,-1.5023,-1.5184,-1.5244,-1.5157,-1.503,-1.4963,-1.4963,-1.3956,-1.3279,-1.2907,-1.2534,-1.1396,-0.9521,-0.8652,-0.8034,0.0,0.0,0.0,0.0,0.0,0.0,-2.8798,-2.9119,-2.9796,0.0,0.0,0.0,0.0,0.0,0.0,0.0,0.0,0.0,0.0,0.0,0.0,0.0,0.0,0.0,0.0,-2.3564,-2.2433,-2.1471,-2.1007,-2.0722,-2.0618,-2.0484,-1.9829,-1.8635,-1.7088,-1.6008,-1.5475,-1.4552,-1.3926,-1.3506,-1.3506,-1.3418,-1.3242,-1.3242,-1.3242,-1.3232,-1.2988,-1.3238,-1.3889,-1.5167,-1.6027,-1.6614,-1.7686,-1.8698,-1.9707,-2.0989,-2.1084,-2.0547,-2.0563,-2.0009,-1.9177,-1.8269,-1.8174,-1.8457,-1.8887,-1.9316,-1.9736,-2.0166,-2.042,-2.0566,-2.0566,-2.0566,-2.0566,-2.0566,-2.0566,-1.9991,-1.7738,-1.7342,-1.669,-1.4496,-1.4088,-1.4162,-1.4409,-1.4489,-1.4603,-1.485,-1.503,-1.4997,-1.4576,-1.4629,-1.4543,-1.4128,-1.4195,-1.4335,-1.4502,-1.4796,-1.5037,-1.5204,-1.5331,-1.5107,-1.4631,-1.4587,-1.4228,-1.3555,-1.2802,-1.2102,-1.1456,-1.1282,-1.0227,-0.8671,-0.8041,-0.7845,0.0,0.0,0.0,0.0,0.0,0.0,-2.9277,-2.8825,-2.8654,0.0,0.0,0.0,0.0,0.0,0.0,0.0,0.0,0.0,0.0,0.0,0.0,0.0,0.0,0.0,-2.408,-2.2606,-2.1647,-2.1387,-2.0955,-2.0443,-1.9894,-2.0026,-1.9273,-1.7336,-1.6294,-1.5444,-1.4707,-1.4277,-1.3857,-1.3437,-1.3437,-1.3242,-1.2881,-1.2881,-1.2881,-1.2881,-1.2881,-1.3286,-1.402,-1.5619,-1.6692,-1.7339,-1.7508,-1.8843,-2.0639,-2.1267,-2.1256,-2.0877,-2.0642,-2.0009,-1.9177,-1.8269,-1.8008,-1.8086,-1.8516,-1.8945,-1.9375,-1.9795,-2.0195,-2.0498,-2.0498,-2.0527,-2.0566,-2.0566,-2.0566,-1.9991,-1.7738,-1.7342,-1.669,-1.4496,-1.4115,-1.4315,-1.487,-1.477,-1.4796,-1.5317,-1.5364,-1.5157,-1.4636,-1.477,-1.4716,-1.4195,-1.4396,-1.4569,-1.4569,-1.4843,-1.501,-1.501,-1.5251,-1.4836,-1.3719,-1.382,-1.316,-1.1826,-1.1442,-1.0598,-0.9125,-0.925,-0.8829,-0.8011,-0.7875,-0.7892,0.0,0.0,0.0,0.0,0.0,0.0,-2.8461,-2.826,-2.8233,0.0,0.0,0.0,0.0,0.0,0.0,0.0,0.0,0.0,0.0,0.0,0.0,0.0,0.0,0.0,-2.2551,-2.1165,-2.0581,-2.1209,-2.1129,-2.0897,-2.049,-1.9175,-1.8309,-1.7859,-1.6026,-1.4775,-1.4268,-1.3838,-1.3418,-1.2998,-1.2998,-1.2959,-1.2881,-1.2881,-1.2881,-1.2881,-1.2881,-1.3525,-1.4558,-1.5348,-1.6307,-1.7411,-1.877,-1.957,-2.0087,-2.1104,-2.1011,-2.0394,-2.0529,-2.0009,-1.9177,-1.8269,-1.8008,-1.8086,-1.8516,-1.8945,-1.9375,-1.9795,-1.9971,-2.0039,-2.0039,-2.0303,-2.0566,-2.0566,-2.0566,-1.9991,-1.7738,-1.7342,-1.669,-1.4496,-1.4275,-1.4549,-1.4903,-1.511,-1.5264,-1.5378,-1.5197,-1.501,-1.4897,-1.4716,-1.4563,-1.4449,-1.4703,-1.4877,-1.4877,-1.5144,-1.5311,-1.5311,-1.5364,-1.5405,-1.5341,-1.4127,-1.3449,-1.3408,-1.139,-0.9633,-0.8241,-0.8027,-0.7903,-0.7855,-0.7824,-0.7892,0.0,0.0,0.0,-2.9428,0.0,0.0,0.0,-2.8298,-2.8109,0.0,0.0,0.0,0.0,0.0,0.0,0.0,0.0,0.0,0.0,0.0,0.0,0.0,0.0,0.0,-2.1703,-2.0959,-2.073,-2.1177,-2.0625,-1.9866,-1.9029,-1.7988,-1.7102,-1.6471,-1.4764,-1.391,-1.4087,-1.3506,-1.3096,-1.2881,-1.2881,-1.2881,-1.2881,-1.2881,-1.2881,-1.2929,-1.3238,-1.3884,-1.4811,-1.5936,-1.6943,-1.7872,-1.8996,-1.9572,-1.9911,-2.0765,-2.0423,-1.9618,-2.0025,-1.949,-1.8596,-1.8134,-1.8008,-1.8135,-1.8769,-1.9258,-1.9525,-1.906,-1.891,-1.8761,-1.8273,-1.8674,-1.9278,-1.9476,-1.9918,-1.9899,-1.8426,-1.7658,-1.682,-1.5339,-1.4747,-1.4616,-1.491,-1.5204,-1.5398,-1.5398,-1.5277,-1.5077,-1.4776,-1.4609,-1.4469,-1.4315,-1.4569,-1.4803,-1.495,-1.5231,-1.5458,-1.5605,-1.5611,-1.5094,-1.3884,-1.3082,-1.2112,-1.096,-0.9702,-0.8627,-0.8038,-0.7814,-0.778,-0.7923,-0.7845,-0.7892,0.0,0.0,0.0,0.0,0.0,-2.9038,0.0,0.0,0.0,0.0,0.0,0.0,0.0,0.0,0.0,0.0,0.0,0.0,0.0,0.0,0.0,0.0,0.0,0.0,0.0,-2.1408,-2.1314,-2.0973,-1.9825,-1.869,-1.771,-1.689,-1.6114,-1.5136,-1.3908,-1.3551,-1.4077,-1.3379,-1.2959,-1.2881,-1.2881,-1.2881,-1.2881,-1.2881,-1.2881,-1.2929,-1.3645,-1.4283,-1.4968,-1.6751,-1.78,-1.8417,-1.897,-1.9434,-1.9886,-2.0577,-2.0109,-1.9239,-1.9968,-1.9372,-1.8269,-1.8269,-1.8144,-1.8154,-1.8926,-1.9346,-1.9271,-1.811,-1.7741,-1.751,-1.6572,-1.7098,-1.8033,-1.8415,-1.9212,-1.964,-1.8867,-1.798,-1.7016,-1.5963,-1.506,-1.4616,-1.491,-1.5204,-1.5378,-1.5317,-1.5311,-1.5117,-1.4589,-1.4522,-1.4429,-1.4195,-1.4429,-1.4703,-1.4943,-1.5177,-1.5418,-1.5651,-1.547,-1.4337,-1.2266,-1.1731,-1.0386,-0.8038,-0.8038,-0.8038,-0.8038,-0.7916,-0.7919,-0.8035,-0.7882,-0.7892,0.0,0.0,0.0,0.0,-2.9741,0.0,0.0,0.0,-2.7821,-2.6854,0.0,0.0,0.0,0.0,0.0,0.0,0.0,0.0,0.0,0.0,0.0,0.0,0.0,0.0,0.0,-2.2302,-2.1811,-2.017,-1.9132,-1.8524,-1.8446,-1.6555,-1.5649,-1.5943,-1.5071,-1.4412,-1.4087,-1.3672,-1.3252,-1.2881,-1.2881,-1.2881,-1.2881,-1.2881,-1.2881,-1.2949,-1.4024,-1.4866,-1.5522,-1.7281,-1.8349,-1.8933,-1.951,-1.9748,-1.9924,-2.1004,-2.0831,-2.0194,-2.1315,-2.0546,-1.9177,-1.9177,-1.8654,-1.8096,-1.8574,-1.8486,-1.8074,-1.7458,-1.7252,-1.7026,-1.6125,-1.6898,-1.8033,-1.8415,-1.9212,-1.9478,-1.7823,-1.7423,-1.6698,-1.4699,-1.4428,-1.4616,-1.491,-1.5204,-1.5311,-1.505,-1.5017,-1.489,-1.4563,-1.4522,-1.4502,-1.4476,-1.4736,-1.493,-1.4963,-1.499,-1.503,-1.5064,-1.4132,-1.3401,-1.3239,-1.126,-0.9509,-0.8038,-0.8038,-0.8038,-0.8038,-0.8021,-0.8021,-0.8035,-0.7882,-0.7892,0.0,0.0,0.0,0.0,0.0,0.0,-2.7883,0.0,-2.7406,0.0,0.0,0.0,0.0,0.0,0.0,0.0,-2.609,0.0,0.0,0.0,0.0,0.0,0.0,0.0,0.0,0.0,0.0,0.0,-1.9073,-1.8027,-1.6854,-1.5919,-1.5466,-1.5644,-1.5029,-1.5079,-1.5775,-1.4946,-1.4287,-1.3906,-1.3432,-1.3115,-1.2881,-1.2881,-1.2881,-1.2998,-1.4467,-1.5293,-1.566,-1.7736,-1.8759,-1.9033,-1.9597,-1.9798,-1.9899,-2.0715,-2.068,-2.0333,-2.108,-2.0471,-1.9243,-1.8721,-1.8438,-1.8359,-1.8291,-1.832,-1.8141,-1.7128,-1.682,-1.6537,-1.4953,-1.5863,-1.7162,-1.7238,-1.8461,-1.9353,-1.8497,-1.7747,-1.6854,-1.5304,-1.4592,-1.4309,-1.4436,-1.4836,-1.5044,-1.475,-1.4856,-1.4796,-1.4329,-1.4416,-1.4456,-1.4282,-1.4382,-1.4522,-1.4689,-1.4129,-1.3913,-1.4074,-1.2308,-1.1288,-1.1404,-0.9656,-0.8485,-0.7906,-0.7994,-0.7994,-0.7909,-0.7994,-0.8038,-0.8038,-0.7974,-0.7977,-2.881,0.0,0.0,0.0,0.0,0.0,0.0,0.0,0.0,0.0,0.0,0.0,0.0,0.0,0.0,0.0,0.0,-2.4557,0.0,0.0,0.0,0.0,0.0,0.0,0.0,0.0,0.0,-1.9825,-1.8823,-1.7555,-1.6086,-1.5891,-1.5841,-1.6058,-1.5837,-1.6108,-1.6893,-1.5923,-1.5101,-1.4449,-1.38,-1.335,-1.3047,-1.293,-1.2881,-1.3008,-1.4898,-1.5747,-1.5924,-1.8264,-1.9246,-1.9284,-1.966,-1.9899,-2.0112,-2.0677,-2.0884,-2.0827,-2.1164,-2.0403,-1.9177,-1.8269,-1.8213,-1.8408,-1.8105,-1.8223,-1.8209,-1.7073,-1.6718,-1.6263,-1.4824,-1.5378,-1.6349,-1.6506,-1.7601,-1.8497,-1.8162,-1.7415,-1.6519,-1.5462,-1.465,-1.4115,-1.4195,-1.4629,-1.4863,-1.4563,-1.4843,-1.4903,-1.4396,-1.4442,-1.4442,-1.4229,-1.3867,-1.373,-1.3844,-1.2969,-1.2248,-1.2151,-1.0552,-0.9556,-0.936,-0.833,-0.7831,-0.7872,-0.7984,-0.7984,-0.7875,-0.7984,-0.8038,-0.8038,-0.8038,-0.8038,0.0,0.0,0.0,-2.826,0.0,0.0,0.0,0.0,-2.713,0.0,0.0,0.0,0.0,0.0,0.0,0.0,0.0,0.0,0.0,0.0,0.0,0.0,0.0,0.0,0.0,0.0,0.0,-1.9545,-1.8059,-1.7269,-1.7337,-1.6865,-1.6967,-1.7882,-1.82,-1.782,-1.6722,-1.6145,-1.5262,-1.4102,-1.3701,-1.3496,-1.3477,-1.3066,-1.2881,-1.3017,-1.5356,-1.6378,-1.6558,-1.8853,-1.9773,-1.9773,-1.9798,-2.015,-2.0756,-2.1255,-2.1807,-2.2185,-2.1982,-2.0771,-1.9177,-1.8269,-1.8018,-1.8027,-1.8018,-1.8018,-1.79,-1.7348,-1.6874,-1.6528,-1.6378,-1.6005,-1.5856,-1.666,-1.6834,-1.6618,-1.595,-1.5786,-1.5462,-1.4328,-1.4088,-1.4175,-1.4456,-1.4763,-1.4863,-1.4563,-1.501,-1.5277,-1.4977,-1.4696,-1.4516,-1.4502,-1.3188,-1.2334,-1.2339,-1.1316,-1.0202,-0.9087,-0.9076,-0.8718,-0.7698,-0.774,-0.7882,-0.8028,-0.8038,-0.8038,-0.8031,-0.8038,-0.8038,-0.8038,-0.8038,-0.8038,0.0,0.0,-2.88,-2.8247,0.0,0.0,0.0,0.0,0.0,0.0,0.0,0.0,0.0,0.0,0.0,0.0,0.0,0.0,0.0,0.0,0.0,0.0,0.0,0.0,0.0,0.0,0.0,-1.9472,-1.8591,-1.7916,-1.7432,-1.7207,-1.7356,-1.7873,-1.8009,-1.7927,-1.7785,-1.7062,-1.6269,-1.5283,-1.4676,-1.4199,-1.3863,-1.3779,-1.3949,-1.4521,-1.6122,-1.7082,-1.765,-1.9179,-1.9798,-1.9798,-1.9798,-2.0376,-2.123,-2.1418,-2.1832,-2.2209,-2.1304,-2.0268,-1.9177,-1.8269,-1.8008,-1.8008,-1.8008,-1.8008,-1.8027,-1.8085,-1.7385,-1.6528,-1.6338,-1.5964,-1.5658,-1.5827,-1.6308,-1.6555,-1.5868,-1.5696,-1.5379,-1.4334,-1.4088,-1.4122,-1.4215,-1.4636,-1.4863,-1.4563,-1.4856,-1.5003,-1.471,-1.475,-1.4736,-1.4543,-1.39,-1.3203,-1.2413,-1.0701,-0.93,-0.8228,-0.819,-0.8104,-0.7882,-0.7838,-0.7834,-0.7885,-0.7987,-0.7991,-0.7889,-0.7991,-0.8038,-0.8038,-0.8038,-0.8038,-2.8348,-2.8348,0.0,-2.7896,-2.767,0.0,-2.6866,0.0,0.0,0.0,0.0,0.0,0.0,0.0,0.0,0.0,0.0,0.0,0.0,-1.9738,0.0,0.0,0.0,0.0,0.0,0.0,-2.0741,-1.9164,-1.8799,-1.833,0.0,0.0,-1.7999,-1.8354,-1.8426,-1.8437,-1.8436,-1.7578,-1.6763,-1.5936,-1.5203,-1.4639,-1.4365,-1.4457,-1.4736,-1.5257,-1.6733,-1.7646,-1.8205,-1.9317,-1.9798,-1.9798,-1.9798,-2.0489,-2.1493,-2.1493,-2.1786,-2.2042,-2.0986,-2.0009,-1.9177,-1.8269,-1.8008,-1.8008,-1.8008,-1.8008,-1.8135,-1.8711,-1.8113,-1.7284,-1.724,-1.6581,-1.5924,-1.5496,-1.5625,-1.5686,-1.5253,-1.5137,-1.4894,-1.425,-1.4088,-1.4122,-1.4222,-1.4469,-1.4656,-1.4676,-1.5017,-1.5204,-1.501,-1.497,-1.489,-1.4696,-1.3965,-1.2857,-1.1214,-0.954,-0.8199,-0.7567,-0.7624,-0.7723,-0.7875,-0.7838,-0.7838,-0.7892,-0.7987,-0.7991,-0.7892,-0.7991,-0.8038,-0.8038,-0.8038,-0.8038]},{"header":{"parameterUnit":"m.s-1","parameterCategory":1,"la1":30.6,"la2":29.2853,"lo1":-89.7004,"lo2":-87.6739,"dy":0.0162,"dx":0.0183,"nx":112,"ny":82,"refTime":"2023-08-05T12:00:00:Z","depth":0,"parameterNumber":3,"parameterNumberName":"V-component_of_WINDS"},"data":[0.0,0.0,0.0,0.0,0.0,0.0,0.0,0.0,0.0,0.0,0.0,0.0,0.0,0.0,0.0,0.0,0.0,0.0,0.0,0.0,0.0,0.0,0.0,0.0,0.0,0.0,0.0,0.0,0.0,0.0,0.0,0.0,0.0,0.0,0.0,0.0,0.0,0.0,0.0,0.0,0.0,0.0,0.0,0.0,0.0,0.0,0.0,0.0,0.0,0.0,0.0,0.0,0.0,0.0,0.0,0.0,0.0,0.0,0.0,0.0,0.0,0.0,0.0,0.0,0.0,0.0,0.0,0.0,0.0,0.0,0.0,0.0,0.0,0.0,0.0,0.0,0.0,0.0,0.0,0.0,0.0,0.0,0.0,0.0,0.0,0.0,0.0,0.0,0.0,0.0,-3.2314,-3.4153,-3.4695,-3.445,-3.3424,-3.4053,-3.3387,-3.0715,0.0,0.0,0.0,0.0,0.0,0.0,0.0,0.0,0.0,0.0,0.0,0.0,0.0,0.0,0.0,0.0,0.0,0.0,0.0,0.0,0.0,0.0,0.0,0.0,0.0,0.0,0.0,0.0,0.0,0.0,0.0,0.0,0.0,0.0,0.0,0.0,0.0,0.0,0.0,0.0,0.0,0.0,0.0,0.0,0.0,0.0,0.0,0.0,0.0,0.0,0.0,0.0,0.0,0.0,0.0,0.0,0.0,0.0,0.0,0.0,0.0,0.0,0.0,0.0,0.0,0.0,0.0,0.0,0.0,0.0,0.0,0.0,0.0,0.0,0.0,0.0,0.0,0.0,0.0,0.0,0.0,0.0,0.0,0.0,0.0,0.0,0.0,0.0,0.0,0.0,0.0,0.0,0.0,0.0,0.0,0.0,0.0,0.0,0.0,0.0,0.0,0.0,0.0,0.0,-3.1522,-3.1704,-3.3574,-3.4322,-3.3011,-3.334,-3.3119,-3.1912,0.0,0.0,0.0,0.0,0.0,0.0,0.0,0.0,0.0,0.0,0.0,0.0,0.0,0.0,0.0,0.0,0.0,0.0,0.0,0.0,0.0,0.0,0.0,0.0,0.0,0.0,0.0,0.0,0.0,0.0,0.0,0.0,0.0,0.0,0.0,0.0,0.0,0.0,0.0,0.0,0.0,0.0,0.0,0.0,0.0,0.0,0.0,0.0,0.0,0.0,0.0,0.0,0.0,0.0,0.0,0.0,0.0,0.0,0.0,0.0,0.0,0.0,0.0,0.0,0.0,0.0,0.0,0.0,0.0,0.0,0.0,0.0,0.0,0.0,0.0,0.0,0.0,0.0,0.0,0.0,0.0,0.0,0.0,0.0,0.0,0.0,0.0,0.0,0.0,0.0,0.0,0.0,0.0,0.0,0.0,0.0,0.0,0.0,0.0,0.0,0.0,0.0,0.0,-3.3042,-3.2612,-3.1289,-3.3132,-3.4135,-3.2903,-3.2969,-3.2853,-3.2106,-3.2126,0.0,0.0,0.0,0.0,0.0,0.0,0.0,0.0,0.0,0.0,0.0,0.0,0.0,0.0,0.0,0.0,0.0,0.0,0.0,0.0,0.0,0.0,0.0,0.0,0.0,0.0,0.0,0.0,0.0,0.0,0.0,0.0,0.0,0.0,0.0,0.0,0.0,0.0,0.0,0.0,0.0,0.0,0.0,0.0,0.0,0.0,0.0,0.0,0.0,0.0,0.0,0.0,0.0,0.0,0.0,0.0,0.0,0.0,0.0,0.0,0.0,0.0,0.0,0.0,0.0,0.0,0.0,0.0,0.0,0.0,0.0,0.0,0.0,0.0,0.0,0.0,0.0,0.0,0.0,0.0,0.0,0.0,0.0,0.0,0.0,0.0,0.0,0.0,0.0,0.0,0.0,0.0,0.0,0.0,0.0,0.0,0.0,0.0,0.0,0.0,0.0,0.0,-3.3699,-3.3746,-3.1759,-3.3193,-3.3866,-3.2745,-3.2686,-3.2602,-3.2353,-3.1853,0.0,0.0,0.0,0.0,0.0,0.0,0.0,0.0,0.0,0.0,0.0,0.0,0.0,0.0,0.0,0.0,0.0,0.0,0.0,0.0,0.0,0.0,0.0,0.0,0.0,0.0,0.0,0.0,0.0,0.0,0.0,0.0,0.0,0.0,0.0,0.0,0.0,0.0,0.0,0.0,0.0,0.0,0.0,0.0,0.0,0.0,0.0,0.0,0.0,0.0,0.0,0.0,0.0,0.0,0.0,0.0,0.0,0.0,0.0,0.0,0.0,0.0,0.0,0.0,0.0,0.0,0.0,0.0,0.0,0.0,0.0,0.0,0.0,0.0,0.0,0.0,0.0,0.0,0.0,0.0,0.0,0.0,0.0,0.0,0.0,0.0,0.0,0.0,0.0,0.0,0.0,0.0,0.0,0.0,0.0,0.0,0.0,0.0,0.0,0.0,0.0,0.0,-3.3939,-3.4035,-3.2791,-3.3699,-3.3727,-3.2332,-3.2488,-3.2815,-3.3211,-3.2116,0.0,0.0,0.0,0.0,0.0,0.0,0.0,0.0,0.0,0.0,0.0,0.0,0.0,0.0,0.0,0.0,0.0,0.0,0.0,0.0,0.0,0.0,0.0,0.0,0.0,0.0,0.0,0.0,0.0,0.0,0.0,0.0,0.0,0.0,0.0,0.0,0.0,0.0,0.0,0.0,0.0,0.0,0.0,0.0,0.0,0.0,0.0,0.0,0.0,0.0,0.0,0.0,0.0,0.0,0.0,0.0,0.0,0.0,0.0,0.0,0.0,0.0,0.0,0.0,0.0,0.0,0.0,0.0,0.0,0.0,0.0,0.0,0.0,0.0,0.0,0.0,0.0,0.0,0.0,0.0,0.0,0.0,0.0,0.0,0.0,0.0,0.0,0.0,0.0,0.0,0.0,0.0,0.0,0.0,0.0,0.0,0.0,0.0,0.0,0.0,0.0,0.0,-3.3736,-3.4167,0.0,-3.4831,-3.5131,-3.4996,-3.4776,-3.4748,-3.4739,0.0,0.0,0.0,0.0,0.0,0.0,0.0,0.0,0.0,0.0,0.0,0.0,0.0,0.0,0.0,0.0,0.0,0.0,0.0,0.0,0.0,0.0,0.0,0.0,0.0,0.0,0.0,0.0,0.0,0.0,0.0,0.0,0.0,0.0,0.0,0.0,0.0,0.0,0.0,0.0,0.0,0.0,0.0,0.0,0.0,0.0,0.0,0.0,0.0,0.0,0.0,0.0,0.0,0.0,0.0,0.0,0.0,0.0,0.0,0.0,0.0,0.0,0.0,0.0,0.0,0.0,0.0,0.0,0.0,0.0,0.0,0.0,0.0,0.0,0.0,0.0,0.0,0.0,0.0,0.0,0.0,0.0,0.0,0.0,0.0,0.0,0.0,0.0,0.0,0.0,0.0,0.0,0.0,0.0,0.0,0.0,0.0,0.0,0.0,0.0,0.0,0.0,-3.3506,-3.3917,-3.4382,0.0,-3.5604,-3.5946,-3.6353,-3.6104,-3.568,-3.5412,0.0,0.0,0.0,0.0,0.0,0.0,0.0,0.0,0.0,0.0,0.0,0.0,0.0,0.0,0.0,0.0,0.0,0.0,0.0,0.0,0.0,0.0,0.0,0.0,0.0,0.0,0.0,0.0,0.0,0.0,0.0,0.0,0.0,0.0,0.0,0.0,0.0,0.0,0.0,0.0,0.0,0.0,0.0,0.0,0.0,0.0,0.0,0.0,0.0,0.0,0.0,0.0,0.0,0.0,0.0,0.0,0.0,0.0,0.0,0.0,0.0,0.0,0.0,0.0,0.0,0.0,0.0,0.0,0.0,0.0,0.0,0.0,0.0,0.0,0.0,0.0,0.0,0.0,0.0,0.0,0.0,0.0,0.0,0.0,0.0,0.0,0.0,0.0,0.0,0.0,0.0,0.0,0.0,0.0,0.0,0.0,0.0,0.0,0.0,0.0,0.0,0.0,-3.4766,-3.47,-3.4868,-3.5776,-3.5817,-3.5911,-3.5994,-3.585,-3.5592,0.0,0.0,0.0,0.0,0.0,0.0,0.0,0.0,0.0,0.0,0.0,0.0,0.0,0.0,0.0,0.0,0.0,0.0,0.0,0.0,0.0,0.0,0.0,0.0,0.0,0.0,0.0,0.0,0.0,0.0,0.0,0.0,0.0,0.0,0.0,0.0,0.0,0.0,0.0,0.0,0.0,0.0,0.0,0.0,0.0,0.0,0.0,0.0,0.0,0.0,0.0,0.0,0.0,0.0,0.0,0.0,0.0,0.0,0.0,0.0,0.0,0.0,0.0,0.0,0.0,0.0,0.0,0.0,0.0,0.0,0.0,0.0,0.0,0.0,0.0,0.0,0.0,0.0,0.0,0.0,0.0,0.0,0.0,0.0,0.0,0.0,0.0,0.0,0.0,0.0,0.0,0.0,0.0,0.0,0.0,0.0,0.0,0.0,0.0,0.0,0.0,0.0,0.0,-3.4766,-3.5325,-3.6019,-3.7209,-3.774,-3.8263,-3.9065,-3.8472,-3.7842,-3.7591,0.0,0.0,0.0,0.0,0.0,0.0,0.0,0.0,0.0,0.0,0.0,0.0,0.0,0.0,0.0,0.0,0.0,0.0,0.0,0.0,0.0,0.0,0.0,0.0,0.0,0.0,0.0,0.0,0.0,0.0,0.0,0.0,0.0,0.0,0.0,0.0,0.0,0.0,0.0,0.0,0.0,0.0,0.0,0.0,0.0,0.0,0.0,0.0,0.0,0.0,0.0,0.0,0.0,0.0,0.0,0.0,0.0,0.0,0.0,0.0,0.0,0.0,0.0,0.0,0.0,0.0,0.0,0.0,0.0,0.0,0.0,0.0,0.0,0.0,0.0,0.0,0.0,0.0,0.0,0.0,0.0,0.0,0.0,0.0,0.0,0.0,0.0,0.0,0.0,0.0,0.0,0.0,0.0,0.0,0.0,0.0,0.0,0.0,0.0,0.0,0.0,0.0,-3.5829,-3.6198,-3.6924,-3.8589,-3.9274,-3.9991,-4.0888,-4.0815,-4.0189,-3.893,0.0,0.0,0.0,0.0,0.0,0.0,0.0,0.0,0.0,0.0,0.0,0.0,0.0,0.0,0.0,0.0,0.0,0.0,0.0,0.0,0.0,0.0,0.0,0.0,0.0,0.0,0.0,0.0,0.0,0.0,0.0,0.0,0.0,0.0,0.0,0.0,0.0,0.0,0.0,0.0,0.0,0.0,0.0,0.0,0.0,0.0,0.0,0.0,0.0,0.0,0.0,0.0,0.0,0.0,0.0,0.0,0.0,0.0,0.0,0.0,0.0,0.0,0.0,0.0,0.0,0.0,0.0,0.0,0.0,0.0,0.0,0.0,0.0,0.0,0.0,0.0,0.0,0.0,0.0,0.0,0.0,0.0,0.0,0.0,0.0,0.0,0.0,0.0,0.0,0.0,0.0,0.0,0.0,0.0,0.0,0.0,0.0,0.0,0.0,0.0,0.0,0.0,-3.7512,-3.7326,-3.783,-3.976,-4.0635,-4.1218,-4.1749,-4.278,-4.2164,-3.9294,0.0,0.0,0.0,0.0,0.0,0.0,0.0,0.0,0.0,0.0,0.0,0.0,0.0,0.0,0.0,0.0,0.0,0.0,0.0,0.0,0.0,0.0,0.0,0.0,0.0,0.0,0.0,0.0,0.0,0.0,0.0,0.0,0.0,0.0,0.0,0.0,0.0,0.0,0.0,0.0,0.0,0.0,0.0,0.0,0.0,0.0,0.0,0.0,0.0,0.0,0.0,0.0,0.0,0.0,0.0,0.0,0.0,0.0,0.0,0.0,-3.2051,0.0,0.0,0.0,0.0,0.0,0.0,0.0,0.0,0.0,0.0,0.0,0.0,0.0,0.0,0.0,0.0,0.0,0.0,0.0,0.0,0.0,0.0,0.0,0.0,0.0,0.0,0.0,0.0,0.0,0.0,0.0,0.0,0.0,0.0,0.0,0.0,0.0,0.0,0.0,0.0,0.0,-3.7512,-3.8845,-4.0083,-4.1215,-4.2287,-4.2985,-4.3109,-4.2968,-4.2266,-4.0915,-3.959,0.0,0.0,0.0,0.0,0.0,0.0,0.0,0.0,0.0,0.0,0.0,0.0,0.0,0.0,0.0,0.0,0.0,0.0,0.0,0.0,0.0,0.0,0.0,0.0,0.0,0.0,0.0,0.0,0.0,0.0,0.0,0.0,0.0,0.0,0.0,0.0,0.0,0.0,0.0,0.0,0.0,0.0,0.0,0.0,0.0,0.0,0.0,0.0,0.0,0.0,0.0,0.0,0.0,0.0,0.0,0.0,0.0,0.0,0.0,0.0,-3.3156,0.0,0.0,0.0,0.0,0.0,0.0,0.0,0.0,0.0,0.0,0.0,0.0,0.0,0.0,0.0,0.0,0.0,0.0,0.0,0.0,0.0,0.0,0.0,0.0,0.0,0.0,0.0,0.0,0.0,0.0,0.0,0.0,0.0,0.0,0.0,0.0,0.0,0.0,0.0,0.0,-3.8341,-3.9685,-4.0983,-4.2396,-4.3617,-4.4329,-4.3941,-4.4267,-4.369,-4.1982,-4.0671,0.0,0.0,0.0,0.0,0.0,0.0,0.0,0.0,0.0,0.0,0.0,0.0,0.0,0.0,0.0,0.0,0.0,0.0,0.0,0.0,0.0,0.0,0.0,0.0,0.0,0.0,0.0,0.0,0.0,0.0,0.0,0.0,0.0,0.0,0.0,0.0,0.0,0.0,0.0,0.0,0.0,0.0,0.0,0.0,0.0,0.0,0.0,0.0,0.0,0.0,0.0,0.0,0.0,-3.7789,-3.8291,-3.873,-3.873,-3.868,-3.8492,-3.6659,-3.5604,-3.5039,-3.3545,0.0,0.0,0.0,0.0,0.0,0.0,0.0,0.0,0.0,0.0,0.0,0.0,0.0,0.0,0.0,0.0,0.0,0.0,0.0,0.0,0.0,0.0,0.0,0.0,-4.1317,-4.1142,0.0,0.0,0.0,0.0,0.0,0.0,0.0,0.0,0.0,0.0,0.0,0.0,-3.92,-4.0436,-4.1782,-4.3414,-4.4747,-4.5269,-4.4617,-4.5501,-4.511,-4.2686,-4.1908,-4.0472,0.0,0.0,0.0,0.0,0.0,0.0,0.0,0.0,0.0,0.0,0.0,0.0,0.0,0.0,0.0,0.0,0.0,0.0,0.0,0.0,0.0,0.0,0.0,0.0,0.0,0.0,0.0,0.0,0.0,0.0,0.0,0.0,-3.5654,-3.2829,0.0,0.0,0.0,0.0,0.0,0.0,0.0,0.0,0.0,0.0,0.0,0.0,0.0,-3.686,-3.7563,-3.9019,-4.0061,-4.0689,-4.1241,-4.1543,-4.1605,-4.1605,-4.1354,-4.0877,-4.0601,0.0,-3.681,-3.6107,0.0,0.0,0.0,0.0,0.0,0.0,0.0,0.0,0.0,0.0,0.0,0.0,0.0,0.0,0.0,0.0,0.0,0.0,0.0,0.0,0.0,0.0,-4.3513,-4.3698,-4.428,-4.4661,0.0,-4.2186,-3.9995,-3.932,-3.8736,0.0,0.0,0.0,0.0,0.0,0.0,0.0,-3.9305,-4.1963,-4.3894,-4.4147,-4.5382,-4.5903,-4.5218,-4.5341,-4.4796,-4.3299,-4.2596,-4.1564,-4.0068,-3.8827,0.0,0.0,0.0,0.0,0.0,0.0,0.0,0.0,0.0,0.0,0.0,0.0,0.0,0.0,0.0,0.0,0.0,0.0,0.0,0.0,0.0,0.0,0.0,0.0,0.0,0.0,0.0,0.0,0.0,-3.5629,-3.4126,-3.0266,-2.9026,-2.7861,0.0,0.0,0.0,0.0,0.0,0.0,0.0,0.0,0.0,-3.7801,-3.8642,-3.9622,-4.0789,-4.153,-4.2183,-4.2723,-4.2961,-4.3074,-4.3074,-4.3074,-4.2773,-4.2246,-4.1932,-4.0927,-3.9408,-3.7902,-3.7464,-3.7709,0.0,0.0,0.0,0.0,-3.9903,-3.9723,-4.1205,-4.123,0.0,-4.1353,0.0,0.0,0.0,0.0,0.0,0.0,0.0,0.0,0.0,0.0,-4.4511,-4.5259,-4.5948,-4.6426,-4.6426,-4.5005,-4.3314,0.0,-4.1085,-4.0098,-3.8422,0.0,0.0,0.0,0.0,-3.9349,-4.0382,-4.2417,-4.3898,-4.4272,-4.517,-4.5484,-4.4796,-4.4751,-4.4574,-4.4205,-4.3578,-4.2959,-4.2529,-4.1264,-4.0388,0.0,0.0,0.0,0.0,0.0,0.0,0.0,0.0,0.0,0.0,0.0,0.0,0.0,0.0,0.0,0.0,0.0,0.0,0.0,0.0,0.0,0.0,0.0,0.0,0.0,0.0,0.0,0.0,-3.4021,-3.2721,-2.8361,-2.7946,-2.7242,0.0,0.0,0.0,0.0,0.0,0.0,-3.625,-3.6923,-3.8228,-4.0463,-4.1204,-4.2233,-4.3601,-4.3627,-4.3827,-4.4229,-4.4079,-4.394,-4.379,-4.3652,-4.3288,-4.2735,-4.2183,-4.1643,-4.099,-3.9182,-3.896,-3.9673,-3.8982,-3.9548,-4.0946,-4.2175,-4.2102,-4.1683,-4.3643,-4.3988,-4.3524,-4.321,-4.2776,-4.1968,-3.9798,0.0,0.0,0.0,0.0,-4.1399,-4.3539,-4.4466,-4.508,-4.6082,-4.6696,-4.701,-4.683,-4.6277,-4.5424,0.0,-4.318,-4.2043,-4.0232,0.0,0.0,0.0,0.0,-4.0277,-4.125,-4.2671,-4.3703,-4.4032,-4.4646,-4.4847,-4.4493,-4.4433,-4.4678,-4.511,-4.4726,-4.4402,-4.4449,-4.3267,-4.2301,-4.1428,0.0,0.0,0.0,0.0,0.0,0.0,0.0,0.0,0.0,0.0,0.0,0.0,0.0,0.0,0.0,0.0,0.0,0.0,0.0,0.0,0.0,0.0,0.0,0.0,0.0,0.0,0.0,0.0,0.0,-2.8111,-2.8733,0.0,0.0,0.0,0.0,-3.163,-3.398,-3.6338,-3.8592,-3.9233,-4.0538,-4.2735,-4.3853,-4.4719,-4.5359,-4.5359,-4.5384,-4.5397,-4.4844,-4.4305,-4.3777,-4.3263,-4.2723,-4.217,-4.1618,-4.1065,-4.0513,-3.9873,-3.9684,-3.996,-4.0418,-4.1055,-4.1845,-4.2841,-4.3643,-4.4137,-4.4272,-4.4287,-4.4362,-4.496,-4.3883,-4.2299,-4.1459,-4.0352,0.0,0.0,-4.2237,-4.2865,-4.5499,-4.6187,-4.6247,-4.6307,-4.6352,-4.6202,-4.5544,-4.487,-4.4571,0.0,-4.4167,-4.2865,-4.1519,0.0,-4.0083,-3.9469,-4.0457,-4.1309,-4.1369,-4.3075,-4.4032,-4.3449,-4.3973,-4.4478,-4.477,-4.4783,-4.5184,-4.6048,-4.6071,-4.5751,-4.5064,-4.4496,-4.3497,-4.2019,-4.1398,0.0,0.0,0.0,0.0,0.0,0.0,0.0,0.0,0.0,0.0,0.0,0.0,0.0,0.0,0.0,0.0,0.0,0.0,0.0,0.0,0.0,0.0,0.0,0.0,0.0,0.0,0.0,0.0,-2.8964,-2.9467,0.0,-2.9373,-3.0946,-3.29,-3.5067,-3.6836,-3.8773,-4.0915,-4.1505,-4.2321,-4.3476,-4.4229,-4.4719,-4.4932,-4.4932,-4.4932,-4.492,-4.4003,-4.3463,-4.3237,-4.2333,-4.1819,-4.1593,-4.1053,-4.0701,-4.0475,-3.9923,-4.0685,-4.2263,-4.242,-4.3357,-4.4773,-4.5555,-4.5768,-4.5603,-4.5603,-4.5603,-4.5499,-4.487,-4.3614,-4.2389,-4.2087,-4.1683,-4.1549,-4.2671,-4.3299,-4.4032,-4.5858,-4.5992,-4.5783,-4.6217,-4.5978,-4.5589,-4.5349,-4.511,-4.5005,-4.5244,-4.4227,-4.318,-4.2716,-4.2087,-4.1579,-4.1354,-4.1713,-4.2162,-4.2581,-4.3758,-4.4557,-4.4312,-4.4982,-4.5594,-4.5722,-4.531,-4.5394,-4.6352,-4.5979,-4.5816,-4.6175,-4.51,-4.3963,-4.2942,-4.1789,-4.0832,0.0,0.0,0.0,0.0,0.0,0.0,0.0,0.0,0.0,0.0,0.0,0.0,0.0,0.0,0.0,0.0,0.0,0.0,0.0,0.0,0.0,0.0,0.0,0.0,0.0,0.0,-3.0469,-2.8686,-3.0158,-3.132,-3.1127,-3.3214,-3.5436,-3.769,-3.9116,-4.0452,-4.1856,-4.2396,-4.2873,-4.3237,-4.3966,-4.4342,-4.4342,-4.4342,-4.4254,-4.4053,-4.3137,-4.261,-4.2396,-4.148,-4.1078,-4.0971,-4.0488,-4.0237,-4.0199,-3.9647,-4.0646,-4.2644,-4.3231,-4.4478,-4.6134,-4.6957,-4.689,-4.6292,-4.6052,-4.5828,-4.5499,-4.4601,-4.3584,-4.2686,-4.2686,-4.2686,-4.2821,-4.3479,-4.3988,-4.4571,-4.5678,-4.5633,-4.5349,-4.5589,-4.5304,-4.49,-4.4676,-4.4631,-4.4631,-4.4631,-4.4107,-4.3658,-4.3658,-4.312,-4.2686,-4.2686,-4.2686,-4.2992,-4.3726,-4.4159,-4.453,-4.4883,-4.5207,-4.5608,-4.5882,-4.5462,-4.5619,-4.657,-4.5889,-4.5634,-4.6041,-4.4857,-4.3707,-4.2692,-4.1457,-4.0578,-4.007,0.0,0.0,0.0,0.0,0.0,0.0,0.0,0.0,0.0,0.0,0.0,0.0,0.0,0.0,0.0,0.0,0.0,0.0,0.0,0.0,0.0,0.0,0.0,-2.8332,-2.9657,-2.9748,-2.7501,-3.1103,-3.3349,-3.2359,-3.5962,-3.8597,-3.9098,-4.0523,-4.1342,-4.1342,-4.1844,-4.2133,-4.2133,-4.3162,-4.3727,-4.3727,-4.3727,-4.3451,-4.2924,-4.2371,-4.1819,-4.1304,-4.0727,-4.0408,-4.047,-3.9923,-3.9647,-3.9597,-3.9069,-3.9594,-4.0857,-4.2644,-4.42,-4.5526,-4.677,-4.6815,-4.6157,-4.5499,-4.4825,-4.4287,-4.4287,-4.3853,-4.3329,-4.3329,-4.3329,-4.3464,-4.4107,-4.4287,-4.4436,-4.5095,-4.5244,-4.508,-4.4466,-4.4287,-4.4077,-4.3434,-4.3299,-4.3299,-4.3269,-4.3808,-4.4257,-4.4257,-4.3703,-4.3269,-4.3269,-4.3269,0.0,-4.46,-4.4161,-4.4091,-4.5011,-4.4541,-4.446,-4.5401,-4.5447,-4.5823,-4.6659,-4.6041,-4.5314,-4.457,-4.3792,-4.2692,-4.1238,-4.046,-4.007,-4.007,0.0,0.0,0.0,0.0,0.0,0.0,0.0,0.0,0.0,0.0,0.0,0.0,0.0,0.0,0.0,0.0,0.0,0.0,0.0,0.0,0.0,0.0,-3.1522,-2.9671,-3.059,-3.1527,-3.1818,-3.3872,-3.5758,-3.6927,-3.8095,-3.932,-4.0631,-4.1114,-4.1342,-4.1342,-4.148,-4.1568,-4.1568,-4.1856,-4.202,-4.202,-4.202,-4.1932,-4.1781,-4.1229,-4.089,-4.0714,-3.976,-3.9333,-3.9333,-3.873,-3.8467,-3.8467,-3.8304,-3.8427,-3.8907,-4.0341,-4.2164,-4.4123,-4.4502,-4.4722,-4.484,-4.4646,-4.4152,-4.3599,-4.3599,-4.3479,-4.3329,-4.3329,-4.3329,-4.3374,-4.3554,-4.3599,-4.3748,-4.4407,-4.4227,-4.3943,-4.4242,-4.3584,-4.2851,-4.2671,-4.2626,-4.2491,-4.2013,-4.2447,-4.2895,-4.2895,-4.2357,-4.1923,-4.1923,-4.2485,0.0,-4.3252,-4.4236,-4.526,-4.6061,-4.6562,-4.692,-4.72,-4.6697,-4.606,-4.5263,-4.4468,-4.3961,-4.3741,-4.2997,-4.2151,-4.1221,-4.046,-4.007,0.0,0.0,0.0,0.0,0.0,0.0,0.0,0.0,0.0,0.0,0.0,0.0,0.0,0.0,0.0,0.0,0.0,0.0,0.0,0.0,0.0,0.0,-3.1625,-3.2488,-3.1322,-3.2243,-3.3323,-3.4237,-3.5692,-3.7113,-3.852,-3.9261,-3.995,-4.0883,-4.099,-4.0902,-4.0664,-4.0651,-4.0651,-4.0651,-4.0877,-4.089,-4.0651,-4.0651,-4.0538,-4.03,-3.9735,-3.9459,-3.9446,-3.8806,-3.8567,-3.8466,-3.8115,-3.7952,-3.7962,-3.7726,-3.7663,0.0,0.0,0.0,0.0,0.0,-4.4039,-4.4227,-4.3688,-4.3419,-4.3284,-4.3015,-4.3105,-4.3329,-4.3329,-4.3329,-4.3329,-4.3329,-4.3329,-4.3419,-4.3808,-4.3614,-4.3359,-4.3464,-4.291,-4.2282,-4.2013,-4.1953,-4.1833,-4.1459,-4.1474,0.0,-4.1534,-4.1444,-4.152,-4.1864,-4.2349,-4.2949,-4.3701,-4.4513,-4.523,-4.6067,-4.637,-4.6515,-4.6515,-4.6109,0.0,0.0,0.0,-4.2658,-4.2049,-4.1593,0.0,0.0,0.0,-4.0696,-4.1001,0.0,0.0,0.0,-4.2286,-4.2878,0.0,0.0,0.0,0.0,0.0,0.0,0.0,0.0,0.0,0.0,0.0,0.0,0.0,0.0,0.0,0.0,-3.2677,-3.3126,-3.3387,-3.4394,-3.5207,-3.5574,-3.6921,-3.8182,-3.8655,-3.9823,-4.0525,-4.0433,-4.0433,-4.014,-3.9622,0.0,0.0,0.0,0.0,-4.0061,-3.9509,-3.9496,-3.9258,-3.8768,-3.8253,-3.8002,-3.8002,-3.7939,-3.7912,-3.7956,-3.7874,-3.7786,-3.7644,-3.7295,-3.7061,-3.7144,-3.8955,-4.0466,-4.1688,-4.327,-4.4012,-4.3913,-4.2686,0.0,0.0,-4.2432,-4.2641,-4.312,-4.312,-4.312,-4.312,-4.312,-4.312,-4.312,-4.312,-4.312,-4.297,-4.2387,-4.2192,-4.1983,-4.1399,-4.1265,-4.125,-4.1175,-4.0756,-4.0382,-4.0439,-4.0905,-4.1563,-4.2391,-4.2661,-4.3327,-4.4931,-4.4657,-4.4677,-4.5628,0.0,0.0,-4.4705,-4.4705,-4.4637,-4.4468,-4.3166,-4.1796,-4.0392,-4.0409,-4.073,-4.1322,-4.1322,-4.1644,-4.2286,-4.2963,-4.298,-4.2422,-4.2506,-4.3234,0.0,0.0,0.0,0.0,0.0,0.0,0.0,0.0,0.0,0.0,0.0,0.0,0.0,0.0,0.0,-3.2006,-3.4336,-3.6135,-3.6029,-3.7443,-3.8207,-3.7257,-3.9265,-4.079,-4.0911,-4.114,-4.091,-4.0004,-3.992,-3.9698,-3.9108,-3.9032,-3.9032,-3.9032,-3.9132,-3.8919,-3.8329,-3.8329,-3.8278,-3.8165,0.0,0.0,-3.799,-3.755,-3.7324,-3.7358,-3.686,-3.6408,-3.5994,-3.637,-3.6257,-3.5999,-3.7782,-3.9164,-4.035,-4.1076,-4.196,-4.2626,-4.1848,-4.1654,-4.1743,-4.1609,-4.1654,-4.1758,-4.1758,-4.1758,0.0,-4.1758,-4.1758,-4.1758,-4.1758,-4.1758,-4.1728,-4.1594,-4.116,-4.0741,-4.0621,-4.0591,-4.0427,-3.9903,-4.0127,-4.0422,-4.0585,-4.0739,-4.0886,-4.1093,-4.2267,-4.3333,-4.3657,-4.4173,-4.4838,-4.5635,-4.5568,-4.5483,-4.5483,-4.5483,-4.4959,-4.3724,-4.3369,-4.2794,-4.1897,-4.2455,-4.2557,-4.21,-4.2083,-4.2151,-4.2286,-4.2439,-4.2743,-4.3217,-4.3842,-4.3961,0.0,0.0,0.0,0.0,0.0,0.0,0.0,0.0,0.0,0.0,0.0,-3.438,0.0,0.0,-3.4164,-3.44,-3.5658,-3.669,-3.6793,-3.7813,-3.8599,-3.8543,-3.9712,-4.0597,-4.099,-4.0666,-4.0296,-3.9836,-3.9504,-3.9038,-3.8504,-3.8442,-3.8442,-3.8442,-3.8442,-3.8165,-3.76,-3.76,-3.745,-3.7186,-3.7186,-3.7036,-3.6772,-3.6483,-3.6219,-3.5931,-3.5655,-3.5391,-3.5152,-3.5429,-3.5378,-3.5244,-3.6623,-3.794,-3.9143,-4.0908,-4.1636,-4.1773,-4.1115,-4.1115,-4.1324,-4.0995,-4.1115,-4.1384,-4.1384,-4.1384,-4.1384,-4.1384,-4.1384,-4.1384,-4.1384,-4.1384,-4.1294,-4.0965,-4.0636,-4.0307,-3.9978,-3.9903,-3.9813,-3.9484,-3.9994,-4.0567,-4.0684,-4.1412,-4.1997,-4.1997,-4.2707,-4.3443,-4.3873,-4.4327,-4.4722,-4.5094,-4.5145,-4.5145,-4.5145,-4.5145,-4.4654,-4.3487,-4.342,-4.3081,-4.232,-4.2303,-4.2472,-4.2844,-4.2489,-4.2658,-4.3436,-4.3436,-4.3623,-4.4012,-4.4401,-4.457,0.0,0.0,0.0,0.0,0.0,0.0,0.0,0.0,-3.7109,-3.5845,-3.5133,-3.4874,-3.5497,-3.5504,-3.5731,-3.707,-3.7106,-3.7021,-3.7367,-3.7849,-3.8434,-3.947,-3.948,-3.973,-4.043,-3.9953,-3.9614,-3.9481,-3.9031,-3.854,-3.7748,-3.7789,-3.7852,-3.7852,-3.7852,-3.7575,-3.7023,-3.7023,-3.6747,-3.6207,-3.6207,-3.5918,-3.5391,-3.5391,-3.514,-3.4713,-3.4613,-3.4625,-3.47,-3.45,-3.4551,-3.4984,-3.6061,-3.6983,-3.8095,-4.068,-4.1471,-4.11,-4.0442,-4.0561,-4.0905,-4.0382,-4.0561,-4.0995,-4.0995,-4.0995,-4.0995,-4.0995,-4.0995,-4.0995,-4.0995,-4.0995,-4.0876,-4.0337,-4.0217,-4.0068,-3.9529,-3.9424,-3.9409,-3.961,-4.0239,-4.0811,-4.1147,-4.2395,-4.3306,-4.3306,-4.3426,-4.3814,-4.4514,-4.4587,-4.4587,-4.4587,-4.4587,-4.4587,-4.4587,-4.4587,-4.4316,-4.3673,-4.3639,-4.3234,-4.2337,-4.188,-4.2066,-4.2963,-4.2523,-4.2895,-4.413,-4.413,-4.413,-4.413,-4.413,-4.4621,-4.1284,-4.1237,-4.1913,-4.2824,-4.1601,-4.0524,0.0,0.0,-3.7317,-3.6143,-3.623,-3.6187,-3.4979,-3.6442,-3.7895,-3.8039,-3.8964,-3.9619,-3.9516,-3.9519,-3.9598,-3.9753,-3.9586,-3.9699,-4.0366,-4.0351,-3.9726,-3.8365,-3.8649,-3.8207,-3.6698,-3.701,-3.7274,-3.7274,-3.7274,-3.701,-3.6458,-3.6458,-3.6182,-3.5642,-3.5642,-3.5353,-3.4813,-3.4813,-3.4776,-3.47,-3.4211,-3.4274,-3.465,-3.3658,-3.4114,-3.5542,-3.6688,-3.706,-3.7071,-3.8611,-3.9674,-4.0412,-3.9753,-3.9574,-3.9634,-3.9559,-3.9574,-3.9634,-3.9634,-3.9634,-3.9634,-3.9634,-3.9634,-3.9634,-3.9634,-3.9634,-3.9619,-3.9544,-3.9529,-3.9514,-3.9439,-3.9424,-3.961,-4.0432,-4.0622,-4.1213,-4.2707,-4.3169,-4.3306,-4.3306,-4.3948,-4.4514,-4.4587,-4.4587,-4.4587,-4.4587,-4.4587,-4.4587,-4.4587,-4.4587,-4.4536,-4.4451,-4.4451,-4.3792,-4.2354,-4.2861,-4.2642,-4.1474,-4.1999,-4.2371,-4.2557,-4.2557,-4.2557,-4.2557,-4.2557,-4.3318,-4.31,-4.3,0.0,0.0,-4.3039,-4.1926,-4.157,-4.0191,-3.883,-3.835,-3.878,-3.899,-3.8345,-3.9143,-3.9647,0.0,-3.9235,-3.9298,-3.9253,-3.8882,-3.8448,-3.8009,-3.7867,-3.8345,-3.9825,-3.9154,-3.8311,-3.7618,-3.7359,-3.6431,-3.447,-3.4832,-3.4715,-3.4024,-3.4024,-3.4221,-3.4688,-3.4491,-3.4607,-3.5064,-3.5064,-3.4776,-3.4248,-3.4248,-3.3884,-3.3232,-3.2679,-3.2878,-3.3534,-3.314,-3.3631,-3.4884,-3.6039,-3.6333,-3.6489,-3.8384,-3.918,-3.92,-3.8916,-3.908,-3.9349,-3.8945,-3.8826,-3.8751,-3.8362,-3.8257,-3.8257,-3.8257,-3.8527,-3.8826,-3.8826,-3.9125,-3.9424,-3.9424,-3.9793,-4.0185,-4.0185,-4.0585,-4.1028,-4.1412,-4.1869,-4.2442,-4.3169,-4.3697,-4.4064,-4.4064,-4.4384,-4.4587,-4.4587,-4.4587,-4.4587,-4.4587,-4.4181,-4.391,-4.391,-4.3504,-4.3436,-4.3876,-4.3487,-4.3149,-4.2963,-4.2422,-4.2033,-4.183,-4.1711,-4.1863,-4.2286,-4.2286,-4.2286,-4.2286,-4.2286,-4.2821,-4.3718,0.0,0.0,-4.4257,-4.3953,-4.3134,-4.1499,-4.0607,-4.0093,-4.0074,-4.0469,-4.0778,-4.0818,-4.1154,-4.1196,-4.0466,-4.0094,-3.9814,-3.9427,-3.8969,-3.8293,-3.735,-3.6812,-3.7017,-3.8253,-3.7376,-3.6418,-3.5574,-3.5278,-3.4244,-3.2133,-3.2383,-3.2329,-3.151,-3.1678,-3.2341,-3.3351,-3.338,-3.3784,-3.45,-3.45,-3.4123,-3.3432,-3.3282,-3.2754,-3.1964,-3.1863,-3.2143,-3.2817,-3.313,-3.3824,-3.4831,-3.5581,-3.5999,-3.6254,-3.7946,-3.8407,-3.8123,-3.8123,-3.8452,-3.8781,-3.8272,-3.8123,-3.8033,-3.7554,-3.7404,-3.7404,-3.7404,-3.7749,-3.8123,-3.8123,-3.8616,-3.9152,-3.9169,-3.9979,-4.065,-4.0478,-4.1274,-4.1997,-4.2074,-4.2717,-4.3366,-4.3621,-4.4196,-4.4587,-4.4587,-4.4587,-4.4587,-4.4587,-4.4587,-4.4587,-4.4587,-4.3876,-4.342,-4.342,-4.2726,-4.2523,-4.3064,-4.2591,-4.2439,-4.2794,-4.1779,-4.1356,-4.1677,-4.117,-4.1153,-4.1677,-4.1677,-4.1677,-4.1677,-4.1852,-4.2261,0.0,0.0,-4.3267,-4.3463,-4.3627,-4.349,-4.2614,-4.1495,-4.0565,-4.051,-4.0508,-4.0527,-4.0612,-4.1698,-4.2462,-4.1842,-4.2317,-4.2306,-4.1024,-4.081,-4.0297,-3.8999,-3.7398,-3.6107,0.0,-3.519,-3.4091,-3.1669,-3.2382,-3.1981,-2.9818,-3.0179,-3.0665,-3.0971,-3.1763,-3.2408,-3.2921,-3.4065,-3.436,-3.3922,-3.3922,-3.3345,-3.224,-3.1712,-3.1449,-3.1493,-3.2382,-3.2752,-3.2909,-3.3837,-3.4906,-3.5885,-3.5885,-3.6105,-3.6522,-3.6567,-3.6941,-3.7434,-3.7434,-3.7449,-3.7464,-3.7449,-3.7434,-3.7434,-3.7419,-3.7404,-3.7404,-3.7404,-3.7419,-3.7434,-3.7434,-3.7928,-3.8451,-3.858,-3.9678,-4.052,-3.9944,-4.0975,-4.2059,-4.219,-4.2812,-4.3562,-4.4384,-4.457,-4.4587,-4.4587,-4.4587,-4.4587,-4.4587,-4.4587,-4.4587,-4.4587,-4.3876,-4.342,-4.342,-4.2726,-4.2303,-4.232,-4.2303,-4.1982,-4.1305,-4.1221,-4.0865,-4.0155,-4.0121,-4.0121,-4.0155,-4.0155,-4.0155,-4.0189,-4.0676,-4.1358,0.0,0.0,-4.3563,-4.452,-4.4456,-4.4006,-4.3428,-4.265,-4.2201,-4.2701,-4.1899,-4.1074,-4.113,-4.1355,-4.1274,-4.0592,-4.1446,-4.1877,-4.103,-4.0474,-3.9411,-3.7482,-3.5597,0.0,0.0,0.0,0.0,-3.0754,-3.0274,-2.9303,-2.7518,-2.7812,-2.8147,-2.8111,-2.8833,-2.9917,-3.1644,-3.2118,-3.2693,-3.3345,-3.2968,-3.239,-3.165,-3.1768,-3.1811,-3.1863,-3.2434,-3.2983,-3.3633,-3.3945,-3.4689,-3.5651,-3.5651,-3.5748,-3.5833,-3.5833,-3.5968,-3.6207,-3.6641,-3.706,-3.7345,-3.6926,-3.6791,-3.6716,-3.6282,-3.6148,-3.6148,-3.6148,-3.6462,-3.691,-3.743,-3.805,-3.8708,-3.9283,-4.0192,-4.0813,-4.0658,-4.142,-4.2232,-4.2239,-4.2462,-4.2908,-4.3669,-4.3809,-4.3978,-4.4502,-4.4587,-4.4401,-4.3876,-4.3809,-4.3623,-4.3115,-4.2388,-4.1948,-4.1948,-4.1255,-4.1035,-4.1542,-4.1102,-4.0933,-4.1187,-4.073,-4.0341,-4.007,-4.007,-4.007,-4.007,-4.007,-4.0303,-4.0707,-4.0844,-4.1453,-4.2107,-4.2772,-4.3066,-4.4083,-4.4048,-4.3687,-4.3294,-4.2895,-4.278,-4.325,-4.2217,-4.1211,-4.1213,-4.1015,-4.0617,-3.9812,-4.0456,-4.0726,-3.9735,-3.8601,-3.7151,-3.51,-3.3115,-3.1101,0.0,0.0,0.0,-2.8441,-2.7881,-2.6882,-2.5475,-2.6055,-2.6375,-2.6451,-2.7478,-2.8868,-3.0466,-3.1011,-3.1651,-3.2466,-3.2288,-3.1966,-3.1596,-3.1998,-3.2233,-3.2219,-3.283,-3.3449,-3.4027,-3.4394,-3.4905,-3.5504,-3.5504,-3.5504,-3.5504,-3.5504,-3.5504,-3.5564,-3.5983,-3.6402,-3.6671,-3.6267,-3.6133,-3.6058,-3.5624,-3.5504,-3.5504,-3.5504,-3.5969,-3.6645,-3.7141,-3.7966,-3.8795,-3.9317,-4.0245,-4.0951,-4.0718,-4.156,-4.2219,-4.1948,-4.2117,-4.2439,-4.2929,-4.3014,-4.3369,-4.4418,-4.4113,-4.3673,-4.3453,-4.3183,-4.2828,-4.2337,-4.1644,-4.1204,-4.1204,-4.051,-4.029,-4.0781,-4.0341,-4.029,-4.0781,-4.0341,-4.007,-4.007,-4.007,-4.0204,-4.0368,-4.0368,-4.0689,-4.1276,-4.1464,-4.1937,-4.0918,-4.1547,-4.185,-4.2264,-4.2473,-4.2557,-4.2367,-4.2297,-4.2289,-4.2199,-4.1461,-4.0805,0.0,0.0,-4.0489,-3.9613,-3.9556,-3.9027,-3.7275,-3.5382,-3.3575,0.0,0.0,0.0,0.0,0.0,0.0,-2.4787,0.0,-2.4954,-2.3929,-2.4866,-2.5669,-2.6199,-2.7934,-2.9118,-2.9618,-3.0774,-3.1373,-3.1336,-3.1772,-3.2024,-3.1972,-3.2436,-3.2664,-3.2749,-3.3671,-3.4095,-3.4177,-3.5133,-3.5504,-3.5504,-3.5504,-3.5504,-3.5504,-3.5504,-3.5504,-3.5504,-3.5504,-3.5504,-3.5504,-3.5504,-3.5504,-3.5504,-3.5504,-3.5504,-3.5554,-3.5554,-3.6117,-3.6661,-3.6722,-3.7752,-3.8798,-3.8909,-3.9962,-4.079,-4.0205,-4.1187,-4.1965,-4.1288,-4.1728,-4.2236,-4.2236,-4.2269,-4.2794,-4.4248,-4.3183,-4.2506,-4.3267,-4.2709,-4.2219,-4.2185,-4.1559,-4.1136,-4.1136,-4.0493,-4.007,-4.007,-4.007,-4.007,-4.007,-4.0121,-4.0121,-4.0121,-4.0171,-4.0466,-4.0949,-4.0949,-4.1268,-4.1853,-4.2422,-4.2711,-3.9318,-4.0376,-4.1173,-4.1678,-4.1537,-4.1496,-4.2324,-4.2283,-4.2063,-4.1992,-4.08,-3.9576,0.0,0.0,0.0,-3.8984,-3.8728,0.0,-3.5442,-3.2133,0.0,-2.6711,0.0,-2.4923,-2.395,-2.371,0.0,0.0,-2.4903,-2.4805,-2.4557,-2.5572,-2.6624,-2.7577,-2.8398,-2.9374,-3.0301,-3.1023,-3.1198,-3.0809,-3.1604,-3.1813,-3.1453,-3.296,-3.3671,-3.3671,-3.4691,-3.5133,-3.5133,-3.5359,-3.5504,-3.5504,-3.5504,-3.5504,-3.5504,-3.5504,-3.5504,-3.5504,-3.5504,-3.5504,-3.5504,-3.5504,-3.5504,-3.5504,-3.5504,-3.5894,-3.6337,-3.6337,-3.6859,-3.7616,-3.8173,-3.8583,-3.9029,-3.9661,-4.0068,-4.0305,-4.0155,-4.0375,-4.0595,-4.0409,-4.0967,-4.1474,-4.1474,-4.1931,-4.2422,-4.2811,-4.2083,-4.1745,-4.2489,-4.1931,-4.1271,-4.0696,-4.0476,-4.0358,-4.0358,-4.0189,-4.007,-4.007,-4.007,-4.007,-4.007,-4.0497,-4.0703,-4.0703,-4.115,-4.1402,-4.1578,-4.1578,-4.1895,-4.248,-4.2616,-4.2902,-3.7762,-3.8437,-3.8961,-3.9186,-3.9212,-3.9311,-3.9846,-3.9887,-3.9784,-3.9751,-3.8677,0.0,0.0,0.0,0.0,0.0,0.0,0.0,-2.7917,-2.4165,-2.1671,0.0,-2.1593,0.0,-2.193,-2.2689,-2.3387,0.0,-2.4542,-2.5041,-2.5546,-2.6625,-2.7452,-2.8084,-2.8887,-2.9561,-3.0256,-3.0545,-3.0757,-3.0881,-3.1805,-3.2345,-3.2464,-3.3973,-3.4691,-3.4691,0.0,-3.5504,-3.5504,-3.5504,-3.5504,-3.5504,-3.5504,-3.5504,-3.5504,-3.5504,-3.5504,-3.5504,-3.5504,-3.5504,-3.5554,-3.5894,-3.6243,-3.6492,-3.6492,-3.6829,-3.716,-3.716,-3.7674,-3.8358,-3.8799,-3.9139,-3.9542,-4.0003,-4.007,-4.007,-4.007,-4.007,-4.007,-4.007,-4.0409,-4.0815,-4.1136,-4.1271,-4.1542,-4.2185,-4.139,-4.0984,-4.1711,-4.117,-4.0544,-4.0121,-4.007,-4.007,-4.007,-4.007,-4.007,-4.007,-4.007,-4.007,-4.007,-4.0625,-4.0903,-4.0903,-4.149,-4.1937,-4.2203,-4.2203,-4.2501,-4.305,-4.305,-4.3214,-3.596,-3.5893,-3.5836,-3.5717,-3.6054,-3.6396,-3.63,-3.6546,-3.6781,-3.6814,0.0,-3.5799,-3.64,-3.7502,-3.596,-2.8767,0.0,-2.3325,-1.7508,-1.3986,-1.2984,-1.5573,-1.7466,-1.9137,-2.0606,-2.1994,-2.295,-2.3299,-2.4211,-2.5294,-2.6472,-2.7695,-2.8347,-2.8347,-2.9275,-2.9792,-2.9792,-2.9934,-3.0419,-3.118,-3.2321,-3.3241,-3.4027,-3.5052,-3.5504,-3.5504,-3.5504,0.0,-3.5504,-3.5504,-3.5504,-3.5504,-3.5504,-3.5504,-3.5504,-3.5504,-3.5504,-3.5504,-3.5504,-3.5619,-3.591,-3.6446,-3.7084,-3.7632,-3.7764,-3.7863,-3.7921,-3.7921,-3.8469,-3.9086,-3.9086,-3.961,-4.007,-4.007,-4.007,-4.007,-4.007,-4.007,-4.007,-4.007,-4.007,-4.029,-4.0933,-4.051,-4.051,-4.1813,-4.0899,-4.0307,-4.0967,-4.0493,-4.007,-4.007,-4.007,-4.007,-4.007,-4.007,-4.007,-4.007,-4.0171,-4.0204,-4.0204,-4.0797,-4.1133,-4.1133,-4.1707,-4.2284,-4.2826,-4.2826,-4.3069,-4.3497,-4.3497,-4.3497,-3.2944,-3.2688,-3.261,-3.2967,-3.298,-3.3184,-3.4423,-3.5172,0.0,0.0,0.0,-3.5452,-3.4638,-3.5475,0.0,-2.3838,0.0,0.0,0.0,0.0,-0.5943,0.0,0.0,0.0,0.0,0.0,0.0,0.0,0.0,-2.5294,-2.6472,-2.8383,-2.9534,-2.9534,-2.9714,-2.9792,-2.9792,-3.0558,-3.1044,-3.1254,-3.2961,-3.3808,-3.4027,-3.5052,-3.5504,-3.5504,-3.5504,0.0,-3.5504,-3.5504,-3.5504,-3.5504,-3.5504,-3.5504,-3.5504,-3.5504,-3.5504,-3.5504,-3.5504,-3.6305,-3.7294,-3.6798,-3.6661,-3.6904,-3.7573,-3.8262,-3.869,-3.869,-3.9262,-3.9901,-3.9901,-4.002,-4.007,-4.007,-4.007,-4.007,-4.007,-4.007,-4.007,-4.007,-4.007,-4.0121,-4.0257,-4.0155,-4.0172,-4.0426,-4.024,-4.0121,-4.0257,-4.0155,-4.007,-4.007,-4.007,-4.007,-4.007,-4.007,-4.007,-4.007,-4.0546,-4.078,-4.078,-4.181,-4.2382,-4.2382,-4.2921,-4.325,-4.3375,-4.3375,-4.341,-4.3497,-4.3497,-4.3497,-2.9746,-2.8114,-2.6557,-2.8494,-2.9097,-2.9717,-3.1458,0.0,0.0,0.0,0.0,-3.4116,-3.4376,0.0,0.0,0.0,0.0,0.0,0.0,0.0,0.0,0.0,0.0,0.0,0.0,0.0,0.0,0.0,0.0,-2.5535,-2.7197,-2.887,-2.9792,-2.9792,-2.9792,-2.9792,-2.9792,-3.0279,-3.0983,-3.196,-3.282,-3.3822,-3.4773,-3.5279,-3.5504,-3.5504,-3.5504,0.0,-3.5504,-3.5504,-3.5504,-3.5504,-3.5504,-3.5504,-3.5504,-3.5504,-3.5504,-3.5504,-3.5504,-3.6258,-3.716,-3.7203,-3.7774,-3.8509,-3.8887,-3.9209,-3.9542,-3.9542,-3.9782,-4.007,-4.007,-4.007,-4.007,-4.007,-4.007,-4.007,-4.007,-4.007,-4.007,-4.007,-4.007,-4.007,-4.007,-4.007,-4.007,-4.007,-4.007,-4.007,-4.007,-4.007,-4.007,-4.007,-4.007,-4.007,-4.007,-4.0368,-4.0546,-4.0546,-4.1059,-4.1358,-4.1358,-4.2221,-4.2711,-4.2711,-4.3214,-4.3497,-4.3497,-4.3497,-4.3497,-4.3497,-4.3497,-4.3497,-2.3818,-2.16,-1.9518,-2.2723,-2.4864,-2.6687,-2.8549,-3.0546,0.0,0.0,-3.2483,-3.2819,-3.3947,0.0,0.0,0.0,0.0,0.0,0.0,0.0,0.0,0.0,0.0,0.0,0.0,0.0,0.0,0.0,0.0,0.0,-2.8004,-2.8937,-2.9534,-2.9792,-2.9792,-2.9792,-2.9792,-2.9998,-3.0846,-3.2321,-3.2749,-3.3685,-3.5213,-3.5424,-3.5504,-3.5504,-3.5504,0.0,0.0,-3.5504,-3.5504,-3.5504,-3.5504,-3.5504,-3.5504,-3.5504,-3.5619,-3.5733,-3.5733,-3.6337,-3.7188,-3.7847,-3.8887,-3.9901,-4.007,-4.007,-4.007,-4.007,-4.007,-4.007,-4.007,-4.007,-4.007,-4.007,-4.007,-4.007,-4.007,-4.007,-4.007,-4.007,-4.007,-4.007,-4.007,-4.007,-4.007,-4.007,-4.007,-4.007,-4.007,-4.007,-4.007,-4.007,-4.007,-4.007,-4.007,-4.0577,-4.0903,-4.0903,-4.1578,-4.1979,-4.1979,-4.2559,-4.2864,-4.2864,-4.3304,-4.3497,-4.3497,-4.3497,-4.3497,-4.3497,-4.3497,-4.3497,-1.19,-1.1722,-1.2523,-1.5428,-2.0395,-2.4934,-2.6604,0.0,0.0,0.0,-3.1948,-3.227,-3.2126,-3.2506,0.0,0.0,0.0,0.0,0.0,0.0,0.0,0.0,0.0,0.0,0.0,0.0,0.0,0.0,0.0,0.0,-2.8004,-2.8176,-2.8767,-2.9792,-2.9792,-2.9792,-2.9792,-3.062,-3.118,-3.1315,-3.3031,-3.3959,-3.4177,-3.5067,-3.5504,-3.5504,-3.5504,0.0,0.0,-3.5504,-3.5504,-3.5504,-3.5504,-3.5504,-3.5504,-3.5504,-3.5943,-3.6492,-3.6492,-3.7467,-3.8674,-3.8799,-3.8908,-3.9139,-3.9901,-4.007,-4.007,-4.007,-4.007,-4.007,-4.007,-4.007,-4.007,-4.007,-4.007,-4.007,-4.007,-4.007,-4.007,-4.007,-4.007,-4.007,-4.007,-4.007,-4.007,-4.007,-4.007,-4.007,-4.007,-4.007,-4.007,-4.007,-4.007,-4.007,-4.007,-4.0577,-4.0903,-4.0903,-4.1979,-4.2616,-4.2616,-4.3142,-4.341,-4.341,-4.3479,-4.3497,-4.3497,-4.3497,-4.3497,-4.3497,-4.3497,-4.3497,-0.0385,-0.1184,-0.3446,-0.9234,-1.4787,-2.0067,-2.498,0.0,0.0,-3.1737,-3.1773,-3.1679,-3.2046,-3.2002,-3.0845,0.0,0.0,0.0,0.0,0.0,0.0,0.0,0.0,0.0,0.0,0.0,0.0,0.0,0.0,0.0,-2.6025,-2.7348,-2.8597,-2.9792,-2.9453,-2.944,-2.9792,-2.9783,-3.0271,-3.1254,-3.2522,-3.3449,-3.4027,-3.5052,-3.5504,-3.5504,-3.5504,0.0,0.0,-3.5504,-3.5504,-3.5504,-3.5504,-3.5504,-3.5504,-3.5504,-3.5943,-3.6615,-3.6615,-3.7584,-3.8908,-3.8908,-3.9209,-3.9662,-4.002,-4.007,-4.007,-4.007,-4.007,-4.007,-4.007,-4.007,-4.007,-4.007,-4.007,-4.007,-4.007,-4.007,-4.007,-4.007,-4.007,-4.007,-4.007,-4.007,-4.007,-4.007,-4.007,-4.007,-4.007,-4.007,-4.007,-4.007,-4.007,-4.0254,-4.0528,-4.1087,-4.1578,-4.1937,-4.2752,-4.3178,-4.3178,-4.3375,-4.3497,-4.3497,-4.3497,-4.3497,-4.3497,-4.3497,-4.3497,-4.3497,-4.3497,-4.3497,0.8213,0.7826,0.4758,-0.4047,-1.0808,-1.7042,0.0,0.0,-2.9844,-3.1507,-3.1256,-3.088,-3.1333,-3.1087,-3.0847,0.0,0.0,0.0,0.0,0.0,0.0,0.0,0.0,0.0,0.0,0.0,0.0,0.0,0.0,0.0,-2.4702,-2.6614,-2.8108,-2.9275,-2.9224,-2.9377,-2.9792,-2.939,-2.9732,-3.0833,-3.1784,-3.2612,-3.3317,-3.4419,-3.4921,-3.4921,-3.5115,0.0,0.0,-3.534,-3.5385,-3.522,-3.5429,-3.5504,-3.5504,-3.5504,-3.5943,-3.66,-3.6843,-3.7831,-3.8962,-3.9193,-3.9662,-4.007,-4.007,-4.007,-4.007,-4.007,-4.007,-4.007,-4.007,-4.007,-4.007,-4.007,-4.007,-4.007,-4.007,-4.007,-4.007,-4.007,-4.007,-4.007,-4.007,-4.007,-4.007,-4.007,-4.007,-4.007,-4.007,-4.007,-4.0171,-4.0336,-4.0336,-4.0497,-4.0856,-4.1621,-4.2262,-4.2655,-4.3214,-4.3497,-4.3497,-4.3497,-4.3497,-4.3497,-4.3497,-4.3497,-4.3497,-4.3497,-4.3497,-4.3497,-4.3497,-4.3497,1.2952,1.4732,1.1289,-0.0,-0.9352,-1.7225,0.0,0.0,-2.8428,-3.0158,-3.0203,-2.9796,-2.9389,-2.9172,-2.8777,-2.8059,0.0,0.0,0.0,0.0,0.0,0.0,0.0,0.0,0.0,0.0,0.0,0.0,0.0,0.0,-2.4702,-2.588,-2.7046,-2.8084,-2.9184,-2.9779,-2.9792,-2.9779,-2.9792,-2.9856,-3.1034,-3.164,-3.1695,-3.2922,-3.3514,0.0,0.0,0.0,0.0,-3.4951,-3.51,-3.4562,-3.5235,-3.5504,-3.5504,-3.5504,-3.5943,-3.6722,-3.7515,-3.8246,-3.9016,-3.9833,-4.007,-4.007,-4.007,-4.007,-4.007,-4.007,-4.007,-4.007,-4.007,-4.007,-4.007,-4.007,-4.007,-4.007,-4.007,-4.007,-4.007,-4.007,-4.007,-4.007,-4.007,-4.007,-4.007,-4.007,-4.007,-4.007,-4.007,-4.007,-4.0286,-4.081,-4.0903,-4.0903,-4.0903,-4.1979,-4.2693,-4.2711,-4.3214,-4.3497,-4.3497,-4.3497,-4.3497,-4.3497,-4.3497,-4.3497,-4.3497,-4.3497,-4.3497,-4.3497,-4.3497,-4.3497,0.4803,0.5566,0.2549,-0.4222,-1.1178,-1.8106,-2.4641,-2.7541,-2.9214,-3.0445,-2.9019,-2.745,-2.7298,-2.6688,-2.6279,-2.6404,-2.4255,0.0,0.0,0.0,0.0,0.0,0.0,0.0,0.0,0.0,0.0,0.0,0.0,0.0,-2.3637,-2.5473,-2.6964,-2.8096,-2.8815,-2.9202,-2.9202,-2.8825,-2.8637,-2.8637,-2.9692,-3.0471,-3.1074,-3.2177,-3.3195,0.0,0.0,0.0,0.0,-3.4622,-3.4666,-3.4547,-3.5235,-3.5504,-3.5504,-3.5504,-3.5943,-3.6676,-3.6904,-3.7499,-3.8246,-3.9032,-3.9262,-3.9368,-3.9952,-4.007,-4.007,-4.007,-4.007,-4.007,-4.007,-4.007,-4.007,-4.007,-4.007,-4.007,-4.007,-4.007,-4.007,-4.007,-4.007,-4.007,-4.007,-4.007,-4.007,-4.007,-4.007,-4.007,-4.007,-4.0417,-4.0685,-4.0856,-4.1621,-4.2121,-4.2121,-4.248,-4.2864,-4.3214,-4.341,-4.3497,-4.3497,-4.3497,-4.3497,-4.3497,-4.3497,-4.3497,-4.3497,-4.3497,-4.3497,-4.3497,-4.3497,-4.3497,0.0,-0.1665,-0.4717,-1.0422,-1.548,0.0,0.0,-2.7976,-2.8734,-2.9441,-2.7379,-2.5409,-2.5422,-2.4756,-2.422,-2.4249,-2.2632,0.0,0.0,0.0,0.0,0.0,0.0,0.0,0.0,0.0,0.0,0.0,0.0,0.0,-2.3135,-2.5231,-2.6801,-2.7452,-2.8619,-2.9151,-2.8925,-2.8586,-2.831,-2.8109,-2.882,-2.9384,-2.997,-3.1013,-3.198,0.0,0.0,0.0,0.0,-3.4173,-3.4322,-3.4203,-3.5145,-3.5504,-3.5504,-3.5504,-3.5782,-3.6182,-3.6199,-3.6701,-3.7451,-3.7922,-3.8461,-3.9032,-3.985,-4.007,-4.007,-4.007,-4.007,-4.007,-4.007,-4.007,-4.007,-4.007,-4.007,-4.007,-4.007,-4.007,-4.007,-4.007,-4.007,-4.007,-4.007,-4.007,-4.007,-4.007,-4.0286,-4.0417,-4.0417,-4.0874,-4.1313,-4.1534,-4.2262,-4.2788,-4.2976,-4.3014,-4.3124,-4.3479,-4.3497,-4.3497,-4.3497,-4.3497,-4.3497,-4.3497,-4.3497,-4.3497,-4.3497,-4.3497,-4.3497,-4.3497,-4.3497,-4.3497,0.0,0.0,0.0,0.0,0.0,0.0,0.0,-2.7576,0.0,-2.7253,-2.5245,-2.3527,-2.3612,-2.3213,-2.2669,-2.1935,-2.1167,0.0,0.0,0.0,0.0,0.0,0.0,0.0,0.0,0.0,0.0,0.0,0.0,0.0,-2.3135,-2.5189,-2.6427,-2.6427,-2.8536,-2.9415,-2.8875,-2.8837,-2.8536,-2.7984,-2.8239,-2.8352,-2.8475,-2.9617,-3.0222,0.0,0.0,0.0,0.0,-3.3589,-3.4008,-3.3619,-3.4921,-3.5459,-3.5489,-3.5444,-3.5429,-3.5454,-3.5477,-3.595,-3.6506,-3.6705,-3.7734,-3.9032,-3.9782,-4.007,-4.007,-4.007,-4.007,-4.007,-4.007,-4.007,-4.007,-4.007,-4.007,-4.007,-4.007,-4.007,-4.007,-4.007,-4.007,-4.007,-4.007,-4.007,-4.0121,-4.0171,-4.0577,-4.0903,-4.0949,-4.149,-4.208,-4.2655,-4.2732,-4.2939,-4.3444,-4.3497,-4.3497,-4.3497,-4.3497,-4.3497,-4.3497,-4.3497,-4.3497,-4.3497,-4.3497,-4.3497,-4.3497,-4.3497,-4.3497,-4.3497,-4.3497,-4.3497,-2.3671,0.0,-2.0206,-2.1134,-2.3404,0.0,0.0,0.0,0.0,0.0,0.0,-2.0687,-2.1011,-2.1405,-2.1461,-2.1034,-2.0333,-1.9496,0.0,0.0,0.0,0.0,0.0,0.0,0.0,0.0,0.0,0.0,0.0,-2.3135,-2.3135,-2.4785,-2.5809,-2.5809,-2.7517,-2.8436,-2.8298,-2.7883,-2.7394,-2.6854,-2.6967,-2.7288,-2.7921,-2.817,-2.9301,0.0,0.0,0.0,-3.2317,-3.2781,-3.3185,-3.3574,-3.4397,-3.504,-3.5444,-3.4906,-3.4726,-3.476,-3.4753,-3.4861,-3.5167,-3.6319,-3.7687,-3.8908,-3.9139,-3.961,-4.007,-4.007,-4.007,-4.007,-4.007,-4.007,-4.007,-4.007,-4.007,-4.007,-4.007,-4.007,-4.007,-4.007,-4.007,-4.007,-4.007,-4.007,-4.0271,-4.0707,-4.0844,-4.1087,-4.1534,-4.2121,-4.2519,-4.2693,-4.3069,-4.3375,-4.3497,-4.3497,-4.3497,-4.3497,-4.3497,-4.3497,-4.3497,-4.3497,-4.3497,-4.3497,-4.3497,-4.3497,-4.3497,-4.3497,-4.3497,-4.3497,-4.3497,-4.3497,-2.6907,-2.7098,-2.7036,-2.6462,-2.716,-2.771,0.0,0.0,0.0,0.0,0.0,0.0,-1.9872,0.0,0.0,-2.0766,-1.9862,0.0,0.0,0.0,0.0,0.0,0.0,0.0,0.0,0.0,0.0,0.0,0.0,-2.3299,-2.3887,-2.501,-2.587,-2.6347,-2.7285,-2.772,-2.772,-2.718,-2.6753,-2.6533,-2.6189,-2.646,-2.7162,-2.755,-2.8408,0.0,0.0,0.0,-3.1499,-3.1793,-3.2375,-3.311,-3.3769,-3.4247,-3.4532,-3.4158,-3.4023,-3.4023,-3.4023,-3.4218,-3.4706,-3.5799,-3.692,-3.7874,-3.7941,-3.8714,-3.961,-4.002,-4.007,-4.007,-4.007,-4.007,-4.007,-4.007,-4.007,-4.007,-4.007,-4.007,-4.007,-4.007,-4.007,-4.007,-4.007,-4.007,-4.0286,-4.0861,-4.115,-4.1534,-4.2121,-4.2714,-4.3069,-4.3069,-4.3339,-4.3497,-4.3497,-4.3497,-4.3497,-4.3497,-4.3497,-4.3497,-4.3497,-4.3497,-4.3497,-4.3497,-4.3497,-4.3497,-4.3497,-4.313,-4.313,-4.3479,-4.3112,-4.2947,-2.5674,-2.8358,-3.1125,-3.0833,-3.0146,-2.8764,0.0,0.0,0.0,0.0,0.0,0.0,0.0,0.0,0.0,0.0,0.0,0.0,0.0,0.0,0.0,0.0,0.0,0.0,0.0,0.0,0.0,0.0,0.0,-2.3637,-2.4702,-2.5262,-2.5995,-2.7127,-2.7188,-2.7155,-2.7155,-2.676,-2.6533,-2.6521,-2.5963,-2.5988,-2.6521,-2.7229,-2.7604,-2.7736,0.0,0.0,-3.0176,-3.0816,-3.1535,-3.2362,-3.3065,-3.341,-3.3484,-3.338,-3.335,-3.335,-3.335,-3.3784,-3.4433,-3.5049,-3.5825,-3.6476,-3.6625,-3.7607,-3.8894,-3.9699,-3.9986,-4.007,-4.007,-4.007,-4.007,-4.007,-4.007,-4.007,-4.007,-4.007,-4.007,-4.007,-4.007,-4.007,-4.007,-4.007,-4.0336,-4.0949,-4.149,-4.2062,-4.2732,-4.3214,-4.3497,-4.3497,-4.3497,-4.3497,-4.3497,-4.3497,-4.3497,-4.3497,-4.3497,-4.3497,-4.3497,-4.3497,-4.3497,-4.3497,-4.3497,-4.3497,-4.3497,-4.269,-4.2653,-4.3296,-4.2488,-4.2121,-2.6917,-2.8598,-2.99,-2.8193,-2.7374,-2.6314,0.0,0.0,0.0,0.0,0.0,0.0,0.0,0.0,0.0,0.0,0.0,0.0,0.0,0.0,0.0,0.0,0.0,0.0,0.0,0.0,0.0,0.0,0.0,-2.3637,-2.4702,-2.4864,-2.5417,-2.6617,-2.6646,-2.6647,-2.6647,-2.6571,-2.6533,-2.6533,-2.6445,-2.6445,-2.6533,-2.6658,-2.704,-2.7736,0.0,-2.8363,-2.9254,-3.0111,-3.0838,-3.15,-3.2347,-3.3006,-3.3425,-3.2871,-3.2662,-3.2662,-3.2662,-3.3095,-3.3649,-3.3818,-3.4716,-3.5872,-3.5867,-3.6896,-3.8199,-3.8988,-3.9597,-4.007,-4.007,-4.007,-4.007,-4.007,-4.007,-4.007,-4.007,-4.007,-4.007,-4.007,-4.007,-4.007,-4.007,-4.007,-4.0466,-4.149,-4.175,-4.2185,-4.325,-4.3444,-4.3497,-4.3497,-4.3497,-4.3497,-4.3497,-4.3497,-4.3497,-4.3497,-4.3497,-4.3497,-4.3497,-4.3497,-4.3497,-4.3497,-4.3497,-4.3497,-4.3497,-4.269,-4.2359,-4.2451,-4.1662,-4.1295,-2.712,-2.7828,-2.8105,-2.6845,-2.5819,-2.4249,0.0,0.0,0.0,0.0,0.0,0.0,0.0,0.0,0.0,0.0,0.0,0.0,0.0,0.0,0.0,0.0,0.0,0.0,0.0,0.0,0.0,0.0,0.0,0.0,-2.5641,-2.569,-2.6247,-2.7347,-2.6806,-2.6533,-2.6533,-2.6533,-2.6533,-2.6533,-2.6138,-2.6151,-2.6521,-2.6138,-2.6422,-2.7002,0.0,-2.6974,-2.8285,-2.8406,-2.9364,-3.0733,-3.1141,-3.1782,-3.2392,-3.2093,-3.2213,-3.2512,-3.2512,-3.2946,-3.344,-3.308,-3.3916,-3.4983,-3.4675,-3.5836,-3.7402,-3.8198,-3.8937,-3.958,-3.9969,-4.007,-4.007,-4.007,-4.007,-4.007,-4.007,-4.007,-4.007,-4.007,-4.007,-4.0204,-4.0497,-4.0528,-4.0938,-4.2121,-4.2302,-4.258,-4.341,-4.3497,-4.3497,-4.3497,-4.3497,-4.3497,-4.3497,-4.3497,-4.3497,-4.3497,-4.3497,-4.3497,-4.3497,-4.3497,-4.3296,-4.2855,-4.2837,-4.2635,-4.2194,-4.1405,-4.124,-4.1644,-4.1277,-4.1204,-2.7774,-2.7804,-2.734,-2.6451,0.0,0.0,0.0,0.0,0.0,0.0,0.0,0.0,0.0,0.0,0.0,0.0,0.0,0.0,0.0,0.0,0.0,0.0,0.0,0.0,0.0,0.0,0.0,0.0,0.0,0.0,-2.6222,-2.6442,-2.6902,-2.7848,-2.6967,-2.6533,-2.6533,-2.6395,-2.6395,-2.6521,-2.6013,-2.6025,-2.6508,-2.5862,-2.5837,-2.6201,-2.5234,-2.5664,-2.7066,-2.7125,-2.8243,-2.9872,-3.0392,-3.097,-3.1452,-3.1287,-3.1719,-3.2258,-3.2108,-3.2482,-3.2961,-3.2452,-3.3102,-3.4017,-3.3693,-3.4799,-3.6406,-3.736,-3.8176,-3.8937,-3.9834,-3.9952,-3.9868,-4.0037,-4.007,-4.007,-4.007,-4.007,-4.007,-4.007,-4.007,-4.0254,-4.0655,-4.0827,-4.1268,-4.2342,-4.2616,-4.2902,-4.3444,-4.3497,-4.3497,-4.3497,-4.3497,-4.3497,-4.3497,-4.3314,-4.3222,-4.3222,-4.3387,-4.3497,-4.3497,-4.3497,-4.3112,-4.2323,-4.2304,-4.1901,-4.1111,-4.0286,-4.0212,-4.0818,-4.0634,-4.0708,-2.9883,-2.9827,-2.9131,-2.7145,0.0,0.0,0.0,0.0,0.0,0.0,0.0,0.0,0.0,0.0,0.0,0.0,0.0,0.0,0.0,0.0,0.0,0.0,0.0,0.0,0.0,0.0,0.0,0.0,0.0,0.0,-2.5628,-2.6167,-2.6733,-2.7356,-2.6766,-2.6533,-2.6533,-2.5925,-2.5925,-2.6533,-2.6483,-2.6483,-2.6508,-2.5862,-2.5624,-2.5624,-2.5059,-2.487,-2.5152,-2.7282,-2.818,-2.8535,-3.0602,-3.1467,-3.1392,-3.0806,-3.1016,-3.1452,-3.0866,-3.1091,-3.1616,-3.1556,-3.2114,-3.2858,-3.3423,-3.4152,-3.505,-3.6498,-3.7398,-3.8311,-3.9715,-3.958,-3.9242,-3.9918,-4.007,-4.007,-4.007,-4.007,-4.007,-4.007,-4.007,-4.0121,-4.0171,-4.0577,-4.1133,-4.1768,-4.2342,-4.2902,-4.3444,-4.3497,-4.3497,-4.3497,-4.3497,-4.3497,-4.3497,-4.2818,-4.2396,-4.2396,-4.3075,-4.3497,-4.3497,-4.3497,-4.3112,-4.2323,-4.2304,-4.1901,-4.1111,-4.0286,-3.9918,-3.9955,-3.9221,-3.901,-2.938,-2.9914,-2.9659,-2.6966,0.0,0.0,0.0,0.0,0.0,0.0,0.0,0.0,0.0,0.0,0.0,0.0,0.0,0.0,0.0,0.0,0.0,0.0,0.0,0.0,0.0,0.0,0.0,0.0,0.0,0.0,-2.6618,-2.7227,-2.7482,-2.7293,-2.6402,-2.5925,-2.5925,-2.5385,-2.5222,-2.5448,-2.5774,-2.5925,-2.59,-2.536,-2.5109,-2.5059,-2.4167,-2.418,-2.4808,-2.5392,-2.6653,-2.8405,-3.0646,-3.127,-3.0866,-3.0597,-3.0672,-3.0851,-3.0597,-3.0956,-3.1482,-3.1482,-3.2007,-3.2749,-3.3391,-3.4087,-3.4901,-3.6397,-3.6992,-3.755,-3.9022,-3.9529,-3.9732,-4.0003,-4.007,-4.007,-4.007,-4.007,-4.007,-4.007,-4.007,-4.0204,-4.0528,-4.1105,-4.1664,-4.2262,-4.2846,-4.325,-4.3479,-4.3497,-4.3497,-4.3497,-4.3497,-4.3497,-4.3497,-4.3222,-4.3039,-4.3039,-4.2396,-4.2011,-4.2011,-4.2011,-4.1625,-4.0818,-4.0799,-4.0414,-3.9625,-3.9294,-3.9522,-4.0185,-3.9841,-4.0251,-2.9151,-2.9455,-2.9162,0.0,0.0,0.0,0.0,0.0,0.0,0.0,0.0,0.0,0.0,0.0,0.0,0.0,0.0,0.0,0.0,0.0,0.0,0.0,0.0,0.0,0.0,0.0,0.0,0.0,0.0,0.0,0.0,-2.752,-2.7507,-2.6779,-2.6,-2.5523,-2.536,-2.4833,-2.4644,-2.482,-2.5008,-2.5184,-2.5335,-2.4808,-2.4556,-2.4506,-2.3552,-2.3687,-2.4631,-2.4722,-2.631,-2.8767,-3.0305,-3.0627,-3.0193,-2.9983,-3.0028,-3.0223,-3.0223,-3.0657,-3.124,-3.1407,-3.1853,-3.2422,-3.3339,-3.3937,-3.4594,-3.6001,-3.6755,-3.7313,-3.8091,-3.8836,-3.9512,-3.9969,-3.9901,-3.98,-4.002,-4.007,-4.007,-4.007,-4.007,-4.0286,-4.0827,-4.1402,-4.1979,-4.2616,-4.3178,-4.3497,-4.3497,-4.3497,-4.3497,-4.3497,-4.3259,-4.3222,-4.3461,-4.302,-4.2745,-4.2745,-4.1479,-4.1075,-4.1827,-4.1625,-4.1111,-4.0286,-4.0286,-3.9753,-3.8707,-3.8707,-3.9098,-3.9871,-3.99,-4.0534,-2.9572,-2.8773,0.0,0.0,0.0,0.0,0.0,0.0,0.0,0.0,0.0,0.0,0.0,0.0,0.0,0.0,0.0,0.0,0.0,0.0,0.0,0.0,0.0,0.0,0.0,0.0,0.0,0.0,0.0,0.0,0.0,-2.698,-2.6766,-2.5636,-2.5586,-2.5335,-2.482,-2.4268,-2.4268,-2.4795,-2.4255,-2.428,-2.4795,-2.4243,-2.3991,-2.3954,-2.3389,-2.3603,-2.4447,-2.5819,-2.7639,-2.9564,-2.9579,-2.9579,-2.949,-2.8846,-2.9011,-2.9564,-2.9579,-2.9983,-3.0612,-3.13,-3.1482,-3.1781,-3.3182,-3.3582,-3.3887,-3.5207,-3.6721,-3.7719,-3.6975,-3.733,-3.8261,-3.9715,-3.9512,-3.9191,-3.9901,-4.007,-4.007,-4.007,-4.0121,-4.0286,-4.0827,-4.1402,-4.2021,-4.2598,-4.316,-4.3479,-4.3479,-4.3479,-4.3479,-4.3479,-4.2763,-4.2598,-4.3406,-4.2029,-4.1111,-4.1111,-4.0341,-4.0965,-4.3351,-4.269,-4.1901,-4.1111,-4.1093,-4.0322,-3.8707,-3.8707,-3.8707,-3.8707,-3.899,-3.9264,-2.8244,-2.9028,0.0,0.0,0.0,0.0,0.0,0.0,0.0,0.0,0.0,0.0,0.0,0.0,0.0,0.0,0.0,0.0,0.0,0.0,0.0,0.0,0.0,0.0,0.0,0.0,0.0,0.0,0.0,0.0,0.0,-2.7226,-2.6766,-2.5636,-2.5247,-2.4795,-2.4243,-2.3678,-2.3707,-2.4463,-2.4294,-2.4227,-2.4243,-2.4067,-2.4073,-2.4203,-2.4021,-2.4394,-2.5174,-2.6623,-2.7561,-2.8232,-2.9223,-2.9295,-2.8861,-2.8667,-2.8727,-2.8951,-2.943,-2.9983,-3.0612,-3.13,-3.1482,-3.1781,-3.3182,-3.3582,-3.3887,-3.5207,-3.6349,-3.706,-3.684,-3.6941,-3.7364,-3.8328,-3.8768,-3.892,-3.8616,-3.936,-3.9935,-3.9411,-4.0058,-4.0685,-4.0856,-4.175,-4.2282,-4.1843,-4.2267,-4.2653,-4.2653,-4.2653,-4.2653,-4.2653,-4.1937,-4.1552,-4.1791,-4.1387,-4.1111,-4.1111,-4.0341,-3.9955,-4.012,-4.067,-4.0725,-4.0267,-4.0503,-4.0263,-3.9533,-3.8982,-3.9098,-3.9871,-3.9351,-3.9607,-2.8167,0.0,0.0,0.0,0.0,0.0,0.0,0.0,0.0,0.0,0.0,0.0,0.0,0.0,0.0,0.0,0.0,0.0,0.0,0.0,0.0,0.0,0.0,0.0,0.0,0.0,0.0,0.0,0.0,0.0,0.0,-2.6854,-2.6201,-2.5322,-2.477,-2.4217,-2.3665,-2.3603,-2.3709,-2.3936,-2.4206,-2.416,-2.3787,-2.4314,-2.4622,-2.4738,-2.5063,-2.5453,-2.5934,-2.7074,-2.7568,-2.7598,-2.8449,-2.8547,-2.8188,-2.8188,-2.8188,-2.8293,-2.8966,-2.9609,-3.0253,-3.0911,-3.13,-3.1781,-3.3182,-3.3582,-3.3887,-3.5207,-3.618,-3.6705,-3.64,-3.6552,-3.6975,-3.7719,-3.8007,-3.8142,-3.8311,-3.9039,-3.9512,-3.9089,-3.9791,-4.0412,-4.0368,-4.1385,-4.1955,-4.1379,-4.157,-4.1827,-4.1827,-4.1827,-4.1827,-4.1827,-4.1111,-4.0763,-4.1075,-4.0818,-4.0616,-4.0616,-4.0175,-3.9533,-3.8726,-3.9649,-4.027,-4.0359,-4.027,-4.0104,-3.99,-3.9093,-3.9227,-4.0185,-3.9788,-4.0139,0.0,0.0,0.0,0.0,0.0,0.0,0.0,0.0,0.0,0.0,0.0,0.0,0.0,0.0,0.0,0.0,0.0,0.0,0.0,0.0,0.0,0.0,0.0,0.0,0.0,0.0,0.0,0.0,0.0,0.0,0.0,-2.6151,-2.5335,-2.4822,-2.4381,-2.3838,-2.3305,-2.4047,-2.4089,-2.3493,-2.4177,-2.418,-2.364,-2.4721,-2.5232,-2.5342,-2.6169,-2.6529,-2.6582,-2.7276,-2.7625,-2.7625,-2.7625,-2.7625,-2.7625,-2.7625,-2.7625,-2.773,-2.8368,-2.8996,-2.9594,-3.0223,-3.0881,-3.169,-3.3087,-3.3534,-3.3887,-3.5207,-3.6129,-3.6502,-3.5808,-3.6146,-3.684,-3.7533,-3.7229,-3.7127,-3.8413,-3.8802,-3.887,-3.8882,-3.9324,-3.966,-3.9663,-4.0679,-4.1397,-4.1247,-4.1093,-4.1038,-4.1111,-4.1056,-4.1001,-4.1001,-4.0267,-4.0084,-4.0836,-4.0212,-3.979,-3.979,-3.979,-3.9496,-3.8836,-3.9528,-4.0262,-4.0983,-4.0299,-3.995,-4.001,-3.9203,-3.9184,-3.9932,-4.0259,-4.0803,0.0,0.0,0.0,0.0,0.0,0.0,0.0,0.0,0.0,0.0,0.0,0.0,0.0,0.0,0.0,0.0,0.0,0.0,0.0,0.0,0.0,0.0,0.0,0.0,0.0,0.0,0.0,0.0,0.0,0.0,-2.6,-2.5724,-2.5407,-2.5023,-2.4927,-2.4873,-2.4894,-2.5063,-2.5135,0.0,-2.5194,-2.5236,-2.511,-2.425,-2.4156,-2.4761,-2.605,-2.6599,-2.6629,-2.73,-2.7625,-2.7625,-2.7625,-2.7625,-2.7625,-2.7625,-2.7625,-2.773,-2.8368,-2.8697,-2.8921,-2.9564,-3.0208,-3.0981,-3.2412,-3.3201,-3.3887,-3.5207,-3.574,-3.5825,-3.5656,-3.574,-3.591,-3.6079,-3.6451,-3.6688,-3.6417,-3.7297,-3.8082,-3.7858,-3.8754,-3.9863,-4.0823,-4.1615,-4.2111,-4.2032,-4.0965,-4.0396,-4.1038,-4.0561,-4.0157,-4.0157,-3.9441,-3.9038,-3.9203,-3.9056,-3.8964,-3.8964,-3.8964,-3.9166,-3.9625,-4.0071,-4.0267,-4.0157,-4.0237,-4.0459,-4.0855,-4.0029,-3.9717,-3.9932,-4.0863,-4.1083,0.0,0.0,0.0,0.0,0.0,0.0,0.0,0.0,0.0,0.0,0.0,0.0,0.0,0.0,0.0,0.0,0.0,0.0,0.0,0.0,0.0,0.0,0.0,0.0,0.0,0.0,0.0,0.0,0.0,-2.7092,-2.6205,-2.627,-2.6158,-2.5638,-2.5401,-2.5263,-2.5412,-2.5728,-2.5639,-2.502,-2.5383,-2.5239,-2.4627,-2.45,-2.4679,-2.5062,-2.5816,-2.6123,-2.6153,-2.6497,-2.6632,-2.6632,-2.6632,-2.6826,-2.7096,-2.7096,-2.7489,-2.8054,-2.8081,-2.8514,-2.9021,-2.9087,-3.0014,-3.1244,-3.2292,-3.3272,-3.4284,-3.5316,-3.5622,-3.5622,-3.5622,-3.5622,-3.5622,-3.5622,-3.5926,-3.6214,-3.618,-3.6985,-3.7665,-3.7543,-3.8443,-3.9349,-3.9662,-4.0518,-4.1277,-4.168,-4.0671,-4.0047,-4.0469,-3.9827,-3.9331,-3.9331,-3.8946,-3.8707,-3.8707,-3.8707,-3.8707,-3.8707,-3.8707,-3.8891,-3.9313,-3.949,-3.9889,-4.0451,-3.9877,-3.9877,-4.0524,-3.9717,-3.9804,-4.0737,-4.1332,-4.1903,0.0,0.0,0.0,0.0,0.0,0.0,0.0,0.0,0.0,0.0,0.0,0.0,0.0,0.0,0.0,0.0,0.0,0.0,0.0,0.0,0.0,0.0,0.0,0.0,0.0,0.0,0.0,0.0,0.0,-2.7444,-2.6834,-2.6938,-2.6765,-2.6285,-2.5828,-2.5631,-2.5628,-2.6232,-2.5857,-2.452,-2.502,-2.4672,-2.364,-2.4762,-2.5255,-2.527,-2.539,-2.5482,-2.5574,-2.5694,-2.574,-2.574,-2.574,-2.6131,-2.6766,-2.6766,-2.7559,-2.8559,-2.7944,-2.8492,-2.9397,-2.8809,-2.995,-3.169,-3.2366,-3.3518,-3.4736,-3.5407,-3.5622,-3.5622,-3.5622,-3.5622,-3.5622,-3.5622,-3.5622,-3.5791,-3.6571,-3.7041,-3.7376,-3.7526,-3.8447,-3.9027,-3.852,-3.9382,-4.0432,-4.1368,-4.0598,-3.9937,-4.0084,-3.9276,-3.8707,-3.8707,-3.8707,-3.8707,-3.8707,-3.8707,-3.8707,-3.8707,-3.8707,-3.8762,-3.8909,-3.8781,-3.9405,-4.0873,-3.946,-3.9093,-3.99,-3.9239,-3.9822,-4.1586,-4.182,-4.2825,0.0,0.0,0.0,0.0,0.0,0.0,0.0,0.0,0.0,0.0,0.0,0.0,0.0,0.0,0.0,0.0,0.0,0.0,0.0,0.0,0.0,0.0,0.0,0.0,0.0,0.0,0.0,0.0,-2.7826,-2.7708,-2.7166,-2.6634,-2.6371,-2.648,-2.6379,-2.6393,-2.6461,-2.651,-2.5905,-2.4565,-2.4104,-2.3774,-2.361,-2.3789,-2.3864,-2.3909,-2.4492,-2.5001,-2.5472,-2.6057,-2.6287,-2.6287,-2.6287,-2.6748,-2.7365,-2.7365,-2.8215,-2.918,-2.8606,-2.8842,-2.9323,-2.8698,-2.9876,-3.163,-3.2308,-3.3475,-3.4736,-3.5407,-3.5622,-3.5622,-3.5622,-3.5622,-3.5622,-3.5622,-3.5622,-3.5773,-3.6319,-3.6488,-3.6783,-3.7685,-3.8891,-3.9969,-4.0573,-4.084,-4.146,-4.2947,-4.1295,-4.0139,-4.0855,-3.9643,-3.8707,-3.8707,-3.8707,-3.8707,-3.8707,-3.8707,-3.8707,-3.8707,-3.8707,-3.9019,-3.9698,-3.9074,-3.9129,-4.0029,-3.9166,-3.9093,-3.99,-3.979,-4.0388,-4.1605,-4.2607,-4.3407,0.0,0.0,0.0,0.0,0.0,0.0,0.0,0.0,0.0,0.0,0.0,0.0,0.0,0.0,0.0,0.0,0.0,0.0,0.0,0.0,0.0,0.0,0.0,0.0,0.0,0.0,0.0,0.0,-2.838,-2.8288,-2.73,-2.741,-2.7428,-2.7115,-2.71,-2.6944,-2.6602,-2.6587,-2.5929,-2.4567,-2.3924,-2.3595,-2.3595,-2.3595,-2.3595,-2.3595,-2.3776,-2.4239,-2.4839,-2.5023,-2.5334,-2.5705,-2.5705,-2.5978,-2.6326,-2.6326,-2.7378,-2.8754,-2.8139,-2.8801,-2.9805,-2.918,-3.0396,-3.2115,-3.2406,-3.3748,-3.5207,-3.5515,-3.5622,-3.5622,-3.5622,-3.5622,-3.5622,-3.5622,-3.5622,-3.581,-3.6684,-3.6843,-3.7135,-3.815,-3.8821,-3.935,-3.9698,-4.0506,-4.135,-4.2047,-4.1644,-4.1368,-4.1735,-4.0377,-3.9368,-3.9368,-3.8964,-3.8891,-3.9331,-3.8964,-3.8891,-3.9331,-3.8946,-3.8854,-3.9203,-3.8891,-3.8872,-3.9221,-3.8891,-3.8872,-3.9221,-3.939,-4.0058,-4.1236,-4.2366,-4.3092,0.0,0.0,0.0,0.0,0.0,0.0,0.0,0.0,0.0,0.0,0.0,0.0,0.0,0.0,0.0,0.0,0.0,0.0,0.0,0.0,0.0,0.0,0.0,0.0,0.0,0.0,0.0,0.0,-2.8999,-2.884,-2.7694,-2.8083,-2.8023,-2.735,-2.732,-2.6916,-2.6093,-2.5914,-2.5302,-2.4279,-2.396,-2.3788,-2.3705,-2.3914,-2.3991,-2.4002,-2.3492,-2.3647,-2.4225,-2.4271,-2.4595,-2.5115,-2.5347,-2.5512,-2.5628,-2.58,-2.7042,-2.8565,-2.8144,-2.9074,-3.0435,-2.9805,-3.0915,-3.2486,-3.2669,-3.3963,-3.5368,-3.5571,-3.5622,-3.5622,-3.5622,-3.5622,-3.5622,-3.5622,-3.5622,-3.5881,-3.6981,-3.7414,-3.7791,-3.8546,-3.8707,-3.8836,-3.9239,-4.0322,-4.1258,-4.1662,-4.2047,-4.2304,-4.2304,-4.0891,-3.99,-3.99,-3.9184,-3.8946,-3.9533,-3.9239,-3.9166,-3.957,-3.9221,-3.8909,-3.8707,-3.8707,-3.8799,-3.9001,-3.8799,-3.8707,-3.8707,-3.8894,-3.9634,-4.0929,-4.1762,-4.2508,0.0,0.0,0.0,0.0,0.0,0.0,0.0,0.0,0.0,0.0,0.0,0.0,0.0,0.0,0.0,0.0,0.0,0.0,0.0,0.0,0.0,0.0,0.0,0.0,0.0,0.0,0.0,0.0,-2.944,-2.9271,-2.8569,-2.7979,-2.732,-2.6662,-2.6632,-2.6019,-2.4701,-2.4088,-2.3613,-2.3363,-2.4029,-2.4248,-2.4089,-2.4802,-2.5144,-2.5057,-2.385,-2.348,-2.3801,-2.4474,-2.4804,-2.4903,-2.5645,-2.6091,-2.6334,-2.6949,-2.8045,-2.928,-2.9295,-3.0133,-3.1055,-3.0435,-3.1175,-3.2418,-3.3144,-3.3947,-3.4692,-3.5419,-3.5622,-3.5622,-3.5622,-3.5622,-3.5622,-3.5622,-3.5622,-3.5881,-3.6981,-3.7948,-3.8627,-3.8707,-3.8707,-3.9184,-4.0726,-4.1056,-4.1625,-4.3149,-4.2763,-4.2304,-4.2304,-4.0891,-3.99,-3.99,-3.9184,-3.8726,-3.8762,-3.9423,-3.9533,-3.8817,-3.9441,-3.9496,-3.8726,-3.8707,-3.9056,-3.9808,-3.9093,-3.8707,-3.8707,-3.8719,-3.9463,-4.091,-4.0948,-4.1734,0.0,0.0,0.0,0.0,0.0,0.0,0.0,0.0,0.0,0.0,0.0,0.0,0.0,0.0,0.0,0.0,0.0,0.0,0.0,0.0,0.0,0.0,0.0,0.0,0.0,0.0,0.0,0.0,0.0,-2.9684,-2.8568,-2.7898,-2.7233,-2.6602,-2.6183,-2.5711,-2.5129,-2.4327,-2.3865,-2.3822,-2.4058,-2.4173,-2.4084,-2.4377,-2.4402,-2.4167,-2.3245,-2.3724,-2.5155,-2.4763,-2.5179,-2.6016,-2.6021,-2.5852,-2.5646,-2.5957,-2.6946,-2.8135,-2.8592,-2.9839,-3.1151,-3.0958,-3.1823,-3.3051,-3.3322,-3.4252,-3.5267,-3.5537,-3.5622,-3.5622,-3.5622,-3.5622,-3.5622,-3.5622,-3.5854,-3.6291,-3.702,-3.7982,-3.8707,-3.8707,-3.8707,-3.8891,-3.946,-3.9992,-4.0524,-4.1093,-4.1809,-4.2121,-4.1607,-4.1038,-4.0469,-3.9955,-3.9184,-3.9129,-4.0157,-4.0029,-4.0212,-4.0965,-4.0799,-4.0304,-3.9496,-3.946,-3.935,-3.9129,-3.8854,-3.8946,-3.946,-3.9124,-3.9346,-4.0075,-4.0827,-4.1552,0.0,0.0,0.0,0.0,0.0,0.0,0.0,0.0,0.0,0.0,0.0,0.0,0.0,0.0,0.0,0.0,0.0,0.0,0.0,0.0,0.0,0.0,0.0,0.0,0.0,0.0,0.0,0.0,0.0,0.0,-2.8947,-2.8,-2.7118,-2.6211,-2.5531,-2.5264,-2.5336,-2.4782,-2.4292,-2.3971,-2.4213,-2.4155,-2.3876,-2.4121,-2.4129,-2.3933,-2.3187,-2.3601,-2.473,-2.4284,-2.4736,-2.5681,-2.5605,-2.5475,-2.5313,-2.5621,-2.6463,-2.7556,-2.843,-2.9697,-3.0918,-3.1151,-3.185,-3.2713,-3.2949,-3.3897,-3.4928,-3.5165,-3.5419,-3.5622,-3.5622,-3.5622,-3.5622,-3.5622,-3.6028,-3.6539,-3.7058,-3.7861,-3.8496,-3.8676,-3.8707,-3.8872,-3.9423,-3.9717,-4.0065,-4.0616,-4.1625,-4.2011,-4.1203,-4.1111,-4.0799,-3.9992,-3.9184,-3.9129,-4.0212,-4.0047,-4.023,-4.1038,-4.1111,-4.0744,-3.9918,-4.0157,-4.0047,-3.9533,-3.9239,-3.9412,-4.0043,-3.9695,-3.972,-4.0056,-4.1218,-4.1934,0.0,0.0,0.0,0.0,0.0,0.0,0.0,0.0,0.0,0.0,0.0,0.0,0.0,0.0,0.0,0.0,0.0,0.0,0.0,0.0,0.0,0.0,0.0,0.0,0.0,0.0,0.0,0.0,-3.1607,-3.0974,-2.9666,-2.8264,-2.6822,-2.5447,-2.4803,-2.4697,-2.5189,-2.5157,-2.4673,-2.3687,-2.4411,-2.4281,-2.341,-2.415,-2.4472,-2.4438,-2.368,-2.2953,-2.2333,-2.3093,-2.3541,-2.3819,-2.4525,-2.5029,-2.5462,-2.613,-2.6824,-2.7657,-2.8971,-2.9805,-3.0393,-3.1015,-3.1207,-3.136,-3.2087,-3.2848,-3.3592,-3.432,-3.5064,-3.5622,-3.5622,-3.5622,-3.5622,-3.5622,-3.6028,-3.6539,-3.7058,-3.7542,-3.8032,-3.8578,-3.8707,-3.9203,-4.0763,-4.0396,-4.0432,-4.1992,-4.2249,-4.1974,-4.1185,-4.1075,-4.0763,-3.9937,-3.9166,-3.8707,-3.8726,-3.946,-3.9606,-3.8854,-4.0286,-4.0799,-3.9992,-4.0708,-4.1111,-4.1111,-4.0322,-4.008,-4.0337,-4.0356,-4.057,-4.0953,-4.2115,-4.2833,-3.0833,0.0,0.0,0.0,0.0,0.0,0.0,0.0,0.0,0.0,0.0,0.0,0.0,0.0,0.0,0.0,0.0,0.0,0.0,0.0,0.0,0.0,0.0,0.0,0.0,0.0,0.0,0.0,-3.2476,-3.1575,-3.0322,-2.8013,-2.6298,-2.5431,-2.5488,-2.5354,-2.4889,-2.4779,-2.431,-2.3483,-2.3701,-2.3644,-2.341,-2.3613,-2.3697,-2.3646,-2.2919,-2.2291,-2.1893,-2.3121,-2.3968,-2.4507,-2.4515,-2.457,-2.4782,-2.5515,-2.623,-2.7019,-2.8796,-2.9805,-3.0393,-3.1015,-3.1546,-3.2121,-3.2865,-3.3609,-3.4353,-3.5098,-3.5453,-3.5622,-3.5622,-3.5622,-3.5622,-3.5622,-3.5694,-3.6097,-3.6981,-3.7285,-3.7667,-3.8515,-3.8707,-3.8836,-3.9294,-3.9662,-4.0047,-4.0487,-4.1056,-4.1148,-4.0341,-4.023,-3.9918,-3.9129,-3.8836,-3.8946,-3.9515,-4.0304,-4.0928,-4.1277,-4.1717,-4.1882,-4.1644,-4.1295,-4.1111,-4.1111,-4.1114,-4.1173,-4.125,-4.0057,-4.0071,-4.1239,-4.3005,-4.388,0.0,0.0,0.0,0.0,0.0,0.0,-3.4017,-3.3794,-3.3383,0.0,0.0,0.0,0.0,0.0,0.0,0.0,0.0,0.0,0.0,0.0,0.0,0.0,0.0,0.0,0.0,-3.3809,-3.3893,-3.3541,-3.2817,-3.1606,-2.972,-2.7556,-2.6314,-2.6125,-2.5696,-2.5372,-2.5129,-2.4704,-2.412,-2.3393,-2.3393,-2.3241,-2.2936,-2.2936,-2.2936,-2.2919,-2.2496,-2.2032,-2.1697,-2.2916,-2.3538,-2.3727,-2.3576,-2.3933,-2.4554,-2.5348,-2.6153,-2.7143,-2.8828,-2.9805,-3.0393,-3.1015,-3.1478,-3.1968,-3.2713,-3.3457,-3.4184,-3.4928,-3.5368,-3.5622,-3.5622,-3.5622,-3.5622,-3.5622,-3.5622,-3.5881,-3.6981,-3.719,-3.7487,-3.8515,-3.8707,-3.8909,-3.9588,-3.9808,-4.012,-4.0799,-4.1295,-4.1203,-4.0047,-4.0194,-3.9955,-3.8817,-3.9001,-3.9386,-3.9845,-4.0653,-4.1313,-4.1772,-4.2121,-4.2368,-4.2493,-4.2364,-4.2218,-4.2028,-4.2202,-4.2205,-4.2021,-4.138,-4.1794,-4.3101,-4.3918,-4.4489,0.0,0.0,0.0,0.0,0.0,0.0,-3.4891,-3.4352,-3.355,0.0,0.0,0.0,0.0,0.0,0.0,0.0,0.0,0.0,0.0,0.0,0.0,0.0,0.0,0.0,-3.4711,-3.4644,-3.4308,-3.3571,-3.2735,-3.1181,-2.8677,-2.7312,-2.6772,-2.7212,-2.57,-2.5079,-2.5473,-2.4729,-2.4002,-2.3274,-2.3274,-2.2936,-2.231,-2.231,-2.231,-2.231,-2.231,-2.2003,-2.1589,-2.2515,-2.2661,-2.2293,-2.2409,-2.3269,-2.4597,-2.5345,-2.6366,-2.7579,-2.8939,-2.9805,-3.0393,-3.1015,-3.119,-3.1326,-3.207,-3.2814,-3.3558,-3.4286,-3.4979,-3.5504,-3.5504,-3.5554,-3.5622,-3.5622,-3.5622,-3.5881,-3.6981,-3.719,-3.7487,-3.8515,-3.8781,-3.9331,-4.0855,-4.0579,-4.0653,-4.2084,-4.2213,-4.1644,-4.0212,-4.0579,-4.0432,-3.9001,-3.9551,-4.0029,-4.0029,-4.0781,-4.124,-4.124,-4.1901,-4.2484,-4.2858,-4.3502,-4.3726,-4.3378,-4.346,-4.3312,-4.2928,-4.352,-4.4384,-4.5432,-4.4662,-4.4759,0.0,0.0,0.0,0.0,0.0,0.0,-3.3918,-3.3679,-3.3498,0.0,0.0,0.0,0.0,0.0,0.0,0.0,0.0,0.0,0.0,0.0,0.0,0.0,0.0,0.0,-3.4726,-3.4539,-3.4253,-3.3614,-3.1922,-3.0406,-2.9262,-2.8294,-2.7793,-2.7898,-2.628,-2.5208,-2.4712,-2.3968,-2.3241,-2.2513,-2.2513,-2.2446,-2.231,-2.231,-2.231,-2.231,-2.231,-2.1857,-2.1183,-2.1919,-2.224,-2.2385,-2.3076,-2.3531,-2.3939,-2.5151,-2.6062,-2.6941,-2.878,-2.9805,-3.0393,-3.1015,-3.119,-3.1326,-3.207,-3.2814,-3.3558,-3.4286,-3.459,-3.4709,-3.4709,-3.5165,-3.5622,-3.5622,-3.5622,-3.5881,-3.6981,-3.719,-3.7487,-3.8515,-3.9221,-3.9974,-4.0946,-4.1515,-4.1937,-4.2249,-4.1754,-4.124,-4.0928,-4.0432,-4.001,-3.9698,-4.0396,-4.0873,-4.0873,-4.1607,-4.2066,-4.2066,-4.2213,-4.2613,-4.3321,-4.3157,-4.3312,-4.3855,-4.4442,-4.4836,-4.5013,-4.3841,-4.3705,-4.4547,-4.4374,-4.4759,0.0,0.0,0.0,-3.507,0.0,0.0,0.0,-3.3724,-3.3499,0.0,0.0,0.0,0.0,0.0,0.0,0.0,0.0,0.0,0.0,0.0,0.0,0.0,0.0,0.0,-3.5766,-3.471,-3.3499,-3.2148,-3.1014,-3.0158,-2.9584,-2.8787,-2.8323,-2.8243,-2.6362,-2.5094,-2.4523,-2.3393,-2.2682,-2.231,-2.231,-2.231,-2.231,-2.231,-2.231,-2.2282,-2.2032,-2.1584,-2.1054,-2.1834,-2.2081,-2.207,-2.284,-2.3325,-2.3729,-2.4747,-2.5906,-2.7126,-2.8467,-2.9727,-3.0797,-3.1095,-3.119,-3.141,-3.251,-3.3355,-3.399,-3.4209,-3.4292,-3.4374,-3.4547,-3.4754,-3.4959,-3.5318,-3.5205,-3.5351,-3.6556,-3.702,-3.7558,-3.8692,-3.9443,-4.0157,-4.0965,-4.1772,-4.2304,-4.2304,-4.1974,-4.1423,-4.0598,-4.0139,-3.9753,-3.9331,-4.0029,-4.0671,-4.1075,-4.1846,-4.247,-4.2873,-4.2892,-4.3221,-4.4035,-4.3811,-4.4049,-4.4792,-4.5161,-4.5438,-4.5586,-4.4316,-4.4124,-4.4932,-4.4489,-4.4759,0.0,0.0,0.0,0.0,0.0,-3.4607,0.0,0.0,0.0,0.0,0.0,0.0,0.0,0.0,0.0,0.0,0.0,0.0,0.0,0.0,0.0,0.0,0.0,0.0,0.0,-3.4595,-3.2665,-3.0803,-3.0674,-3.0351,-2.9621,-2.9107,-2.8628,-2.8318,-2.6295,-2.4957,-2.4506,-2.3173,-2.2446,-2.231,-2.231,-2.231,-2.231,-2.231,-2.231,-2.2282,-2.1943,-2.158,-2.1278,-2.2129,-2.2278,-2.1949,-2.2607,-2.3161,-2.3699,-2.4522,-2.5854,-2.7348,-2.8124,-2.9548,-3.1015,-3.1015,-3.1112,-3.1444,-3.278,-3.3508,-3.3888,-3.3882,-3.39,-3.3998,-3.4357,-3.4294,-3.4276,-3.5002,-3.4839,-3.4891,-3.6243,-3.6865,-3.7555,-3.8776,-3.9491,-4.0157,-4.0965,-4.1772,-4.2249,-4.2084,-4.2066,-4.1534,-4.0084,-3.99,-3.9643,-3.9001,-3.9643,-4.0396,-4.1056,-4.1699,-4.2359,-4.3002,-4.3088,-4.3478,-4.4229,-4.4556,-4.4988,-4.5586,-4.5586,-4.5586,-4.5586,-4.4893,-4.4913,-4.5566,-4.4701,-4.4759,0.0,0.0,0.0,0.0,-3.5444,0.0,0.0,0.0,-3.3155,-3.2003,0.0,0.0,0.0,0.0,0.0,0.0,0.0,0.0,0.0,0.0,0.0,0.0,0.0,0.0,0.0,-3.3535,-3.2336,-3.1358,-3.1683,-3.1137,-2.9376,-2.9411,-2.8973,-2.7894,-2.6368,-2.5215,-2.4523,-2.368,-2.2953,-2.231,-2.231,-2.231,-2.231,-2.231,-2.231,-2.2316,-2.2443,-2.2248,-2.1963,-2.2829,-2.2964,-2.2664,-2.3251,-2.3535,-2.3744,-2.5031,-2.5955,-2.6798,-2.8031,-2.9342,-3.0393,-3.0393,-3.074,-3.1343,-3.2171,-3.2019,-3.1783,-3.2835,-3.3142,-3.3236,-3.3618,-3.3892,-3.4276,-3.5002,-3.4839,-3.4959,-3.6745,-3.7152,-3.7505,-3.8542,-3.9373,-4.0157,-4.0965,-4.1772,-4.2066,-4.135,-4.1258,-4.091,-4.001,-3.99,-3.9845,-3.9772,-4.0487,-4.102,-4.1111,-4.1185,-4.1295,-4.1387,-4.1632,-4.218,-4.2967,-4.4335,-4.5222,-4.5586,-4.5586,-4.5586,-4.5586,-4.549,-4.549,-4.5566,-4.4701,-4.4759,0.0,0.0,0.0,0.0,0.0,0.0,-3.323,0.0,-3.2662,0.0,0.0,0.0,0.0,0.0,0.0,0.0,-3.2654,0.0,0.0,0.0,0.0,0.0,0.0,0.0,0.0,0.0,0.0,0.0,-3.1901,-3.1382,-2.9488,-2.9472,-2.8784,-2.7097,-2.6031,-2.5096,-2.4292,-2.3802,-2.32,-2.2471,-2.2803,-2.2716,-2.231,-2.231,-2.231,-2.2288,-2.2277,-2.2147,-2.2057,-2.2701,-2.2858,-2.2783,-2.3355,-2.3595,-2.3714,-2.4687,-2.5651,-2.6619,-2.7596,-2.8965,-3.0351,-3.0699,-3.1301,-3.1799,-3.1681,-3.1732,-3.1902,-3.2214,-3.231,-3.2456,-3.3194,-3.3072,-3.3144,-3.4574,-3.4358,-3.438,-3.6301,-3.6999,-3.7414,-3.8117,-3.8771,-3.9313,-3.9662,-4.0763,-4.1332,-4.0524,-4.0818,-4.0653,-3.9368,-3.9606,-3.9717,-3.9239,-3.9515,-3.99,-4.0359,-4.1034,-4.1582,-4.2063,-4.2573,-4.3258,-4.4096,-4.4472,-4.469,-4.4836,-4.5336,-4.5336,-4.4855,-4.5336,-4.5586,-4.5586,-4.522,-4.524,-3.4032,0.0,0.0,0.0,0.0,0.0,0.0,0.0,0.0,0.0,0.0,0.0,0.0,0.0,0.0,0.0,0.0,-3.3338,0.0,0.0,0.0,0.0,0.0,0.0,0.0,0.0,0.0,-3.2038,-3.2276,-3.1671,-2.9781,-2.942,-2.8579,-2.6991,-2.6098,-2.5285,-2.4579,-2.4172,-2.3704,-2.3123,-2.3311,-2.3122,-2.2598,-2.2395,-2.231,-2.2304,-2.2297,-2.2282,-2.2325,-2.2757,-2.2936,-2.2981,-2.343,-2.3714,-2.3969,-2.4642,-2.5561,-2.6657,-2.7458,-2.8869,-3.0393,-3.1015,-3.1546,-3.1884,-3.136,-3.1562,-3.2021,-3.211,-3.1944,-3.2091,-3.3294,-3.2977,-3.2791,-3.4605,-3.4544,-3.4605,-3.6427,-3.7135,-3.7542,-3.8032,-3.8415,-3.8781,-3.9001,-4.0194,-4.0836,-4.001,-4.0781,-4.0946,-3.9551,-3.968,-3.968,-3.9093,-3.8891,-3.9043,-3.9644,-4.0514,-4.1349,-4.2029,-4.272,-4.3554,-4.4515,-4.4401,-4.4412,-4.4643,-4.5278,-4.5278,-4.4662,-4.5278,-4.5586,-4.5586,-4.5586,-4.5586,0.0,0.0,0.0,-3.3679,0.0,0.0,0.0,0.0,-3.2332,0.0,0.0,0.0,0.0,0.0,0.0,0.0,0.0,0.0,0.0,0.0,0.0,0.0,0.0,0.0,0.0,0.0,0.0,-3.3347,-3.3088,-3.2139,-3.018,-2.9211,-2.8518,-2.8069,-2.6855,-2.605,-2.575,-2.51,-2.4663,-2.4425,-2.3731,-2.3376,-2.3342,-2.2632,-2.231,-2.2321,-2.2766,-2.2961,-2.3,-2.3386,-2.3565,-2.3565,-2.3595,-2.4014,-2.4627,-2.533,-2.5989,-2.6793,-2.801,-2.9255,-3.0393,-3.1015,-3.1207,-3.1224,-3.1207,-3.1207,-3.1477,-3.2628,-3.2414,-3.2263,-3.4146,-3.4129,-3.4004,-3.5526,-3.5897,-3.6256,-3.7575,-3.7877,-3.8032,-3.8578,-3.8707,-3.8946,-3.9717,-4.0561,-4.0836,-4.001,-4.124,-4.1974,-4.1148,-4.0377,-3.9882,-3.9845,-3.9415,-3.9117,-3.9136,-3.9464,-3.9807,-4.0157,-4.094,-4.1915,-4.3107,-4.3893,-4.4701,-4.5528,-4.5586,-4.5586,-4.5547,-4.5586,-4.5586,-4.5586,-4.5586,-4.5586,0.0,0.0,-3.4322,-3.3664,0.0,0.0,0.0,0.0,0.0,0.0,0.0,0.0,0.0,0.0,0.0,0.0,0.0,0.0,0.0,0.0,0.0,0.0,0.0,0.0,0.0,0.0,0.0,-3.3389,-3.2859,-3.1827,-3.0192,-2.9803,-2.9173,-2.819,-2.7732,-2.7085,-2.6121,-2.6274,-2.5785,-2.4697,-2.479,-2.4594,-2.4133,-2.3866,-2.3563,-2.3238,-2.3568,-2.3512,-2.3211,-2.3474,-2.3595,-2.3595,-2.3595,-2.4283,-2.53,-2.5525,-2.6019,-2.6823,-2.8529,-2.9629,-3.0393,-3.1015,-3.119,-3.119,-3.119,-3.119,-3.1382,-3.2293,-3.2187,-3.2263,-3.4252,-3.4234,-3.416,-3.5969,-3.6203,-3.6327,-3.761,-3.7893,-3.8065,-3.8596,-3.8707,-3.8799,-3.9056,-4.0212,-4.0836,-4.001,-4.0818,-4.1222,-4.0414,-4.0524,-4.0487,-3.9955,-3.9252,-3.8894,-3.9072,-4.0646,-4.195,-4.283,-4.3136,-4.3728,-4.4701,-4.4451,-4.4432,-4.472,-4.5297,-4.5316,-4.4739,-4.5316,-4.5586,-4.5586,-4.5586,-4.5586,-3.3784,-3.3784,0.0,-3.3245,-3.2976,0.0,-3.2018,0.0,0.0,0.0,0.0,0.0,0.0,0.0,0.0,0.0,0.0,0.0,0.0,-3.2527,0.0,0.0,0.0,0.0,0.0,0.0,-3.3354,-3.3026,-3.256,-3.1749,0.0,0.0,-2.9515,-2.8949,-2.8509,-2.7988,-2.7332,-2.7197,-2.6697,-2.5878,-2.5681,-2.5355,-2.4881,-2.4421,-2.4047,-2.372,-2.3786,-2.3631,-2.3302,-2.3538,-2.3595,-2.3595,-2.3595,-2.4418,-2.5615,-2.5615,-2.6311,-2.7463,-2.8884,-2.9805,-3.0393,-3.1015,-3.119,-3.119,-3.119,-3.119,-3.141,-3.2408,-3.2344,-3.2507,-3.4769,-3.4958,-3.4941,-3.6728,-3.7034,-3.7178,-3.799,-3.8183,-3.83,-3.8627,-3.8707,-3.8799,-3.9074,-3.9753,-4.0267,-4.0322,-4.1258,-4.1772,-4.124,-4.113,-4.091,-4.0377,-3.9436,-3.899,-3.9432,-4.0914,-4.2179,-4.2912,-4.3239,-4.3797,-4.4662,-4.4451,-4.4451,-4.4759,-4.5297,-4.5316,-4.4759,-4.5316,-4.5586,-4.5586,-4.5586,-4.5586]}]]